     2              OBSERVATION DATA    G (GPS)             RINEX VERSION / TYPE
ASRINEXO V2.9.7 UX USGS/MENLO_PARK 24-JUL-01 12:52          PGM / RUN BY / DATE
                                                            COMMENT
National Earthquake Hazard Reduction Program                COMMENT
Crustal Strain Project                                      COMMENT
345 Middlefield Road, MS/977                                COMMENT
U.S. Geological Survey, Menlo Park, California 94025        COMMENT
Contact: kwendt@usgs.gov (Ph: 650-329-4866)                 COMMENT
HI's are vertical to base of antenna                        COMMENT
BIT 2 OF LLI (+4) FLAGS DATA COLLECTED UNDER "AS" CONDITION COMMENT
hp13 HPGN_01-13_1991_Cal_Trans                              MARKER NAME
GDH                                                         OBSERVER / AGENCY
lp019992809 ASHTECH Z-XII3 CD00                             REC # / TYPE / VERS
CR619992805 ASH701945.02B NONE                              ANT # / TYPE
 -2668166.0000 -3932229.0000  4240027.0000                  APPROX POSITION XYZ
        1.2378        0.0000        0.0000                  ANTENNA: DELTA H/E/N
     1     1                                                WAVELENGTH FACT L1/2
     5    C1    L1    L2    P1    P2                        # / TYPES OF OBSERV
    30                                                      INTERVAL
  2001     7    19    16     9   30.000000                  TIME OF FIRST OBS
                                                            END OF HEADER
 01  7 19 16  9 30.0000000  0  9 15 30 26 23 06 22 18 10 17
  21119187.202     -872110.60247                  21119186.541    21119194.0304
  24636734.660     -590484.91945                  24636735.963    24636745.9924
  22448543.885    -1293586.800 8   -999180.26246  22448541.829    22448550.1744
  20946709.989     -860709.29246                  20946709.105    20946716.5834
  20668063.815     -927708.048 9   -731697.73548  20668063.028    20668070.0624
  22825672.507    -1178434.833 8   -914626.77046  22825672.476    22825680.8474
  21848875.918    -1437928.364 8  -1104441.96947  21848875.169    21848882.1944
  23953175.355     -692446.035 8   -558743.48945  23953174.202    23953183.2684
  20553843.196     -858043.48847                  20553842.391    20553849.9204
 01  7 19 16 10  0.0000000  0  9 15 30 26 23 06 22 18 10 17
  21109245.280    -1355708.90019   -912821.75547  21109244.404    21109252.0154
  24657675.035     -622906.71618   -504738.47645  24657674.997    24657685.8174
  22439268.777    -1342325.384 8  -1037158.34146  22439267.278    22439275.6044
  20938406.814    -1317411.724 9   -894709.44647  20938405.913    20938413.4074
  20676172.870     -885095.160 9   -698492.91648  20676172.054    20676179.0534
  22822038.879    -1197531.447 8   -929507.22746  22822038.462    22822046.9814
  21832536.317    -1523794.032 9  -1171350.23847  21832535.470    21832542.4584
  23972996.786     -588284.014 8   -477578.35445  23972995.490    23973004.7294
  20549549.440    -1210546.18019   -875626.07548  20549548.683    20549556.0994
 01  7 19 16 10 30.0000000  0  9 15 30 26 23 06 22 18 10 17
  21099354.848    -1407683.272 9   -953321.25047  21099353.881    21099361.6724
  24678609.773     -512895.460 8   -419015.63945  24678609.794    24678620.6864
  22430093.812    -1390537.437 7  -1074726.12145  22430092.849    22430101.1304
  20930194.303    -1360568.708 9   -928338.25247  20930193.409    20930200.9074
  20684367.607     -842031.235 9   -664936.63548  20684366.861    20684373.8984
  22818514.813    -1216051.965 8   -943938.81146  22818514.131    22818522.6864
  21816265.437    -1609298.133 9  -1237976.76947  21816264.594    21816271.5794
  23992846.907     -483970.197 8   -396294.93045  23992845.688    23992854.9694
  20545308.176    -1232834.363 9   -892993.49948  20545307.340    20545314.7374
 01  7 19 16 11  0.0000000  0  9 15 30 26 23 06 22 18 10 17
  21089515.310    -1459390.602 9   -993612.66247  21089514.363    21089522.0864
  24699537.196     -402921.524 7   -333321.87645  24699537.186    24699548.1094
  22421018.819    -1438225.527 8  -1111885.63946  22421018.052    22421026.4084
  20922071.673    -1403253.303 9   -961598.95248  20922070.792    20922078.2844
  20692647.276     -798521.127 9   -631032.70748  20692646.609    20692653.6414
  22815099.488    -1234000.312 8   -957924.55146  22815098.686    22815107.1774
  21800062.768    -1694443.532 9  -1304323.80047  21800061.941    21800068.9074
  24012724.729     -379511.928 8   -314898.93045  24012723.527    24012732.7254
  20541118.485    -1254851.163 9   -910149.44448  20541117.680    20541125.0404
 01  7 19 16 11 30.0000000  0  9 15 30 26 23 06 22 18 10 17
  21079726.576    -1510831.018 9  -1033696.09047  21079725.590    21079733.2594
  24720456.588     -292988.024 7   -247659.63045  24720456.884    24720467.9114
  22412043.982    -1485387.424 8  -1148635.12446  22412043.405    22412051.8154
  20914039.007    -1445465.357 9   -994491.44848  20914038.103    20914045.6164
  20701011.722     -754565.586 9   -596781.67248  20701011.058    20701018.1004
  22811793.002    -1251376.670 8   -971464.59146  22811792.075    22811800.5414
  21783928.680    -1779228.816 9  -1370390.20747  21783927.851    21783934.7914
  24032629.439     -274911.899 8   -233392.43745  24032628.278    24032637.4114
  20536980.445    -1276596.917 9   -927094.18948  20536979.605    20536986.9574
 01  7 19 16 12  0.0000000  0 10 15 30 26 23 06 22 21 18 10 17
  21069988.244    -1562006.051 9  -1073572.73147  21069987.272    21069995.0084
  24741367.728     -183099.359 8   -162032.32645  24741368.077    24741379.0854
  22403169.567    -1532022.455 8  -1184974.07946  22403169.039    22403177.4914
  20906096.053    -1487205.901 9  -1027016.52948  20906095.142    20906102.6514
  20709460.555     -710166.748 9   -562185.21348  20709459.949    20709466.9604
  22808594.974    -1268182.789 8   -984560.28746  22808594.009    22808602.4554
  24910423.440    -1617594.175 7  -1242046.21945  24910421.324    24910433.0114
  21767863.081    -1863653.965 9  -1436175.99847  21767862.282    21767869.1964
  24052560.338     -170174.530 8   -151778.98245  24052559.190    24052568.4604
  20532893.605    -1298073.397 9   -943829.11848  20532892.744    20532900.1004
 01  7 19 16 12 30.0000000  0 10 15 30 26 23 06 22 21 18 10 17
  21060300.560    -1612914.926 9  -1113241.96747  21060299.608    21060307.4004
  24762270.256      -73257.753 8    -76441.66545  24762270.316    24762281.2544
  22394395.945    -1578127.889 8  -1220900.36246  22394395.452    22394403.8974
  20898243.003    -1528474.073 9  -1059173.52648  20898242.098    20898249.5934
  20717993.822     -665324.414 9   -527243.16048  20717993.192    20718000.1974
  22805505.533    -1284418.279 8   -997211.32446  22805504.497    22805512.9854
  24891410.058    -1717508.849 7  -1319901.78945  24891408.307    24891420.0344
  21751866.414    -1947716.755 9  -1501679.42447  21751865.607    21751872.5304
  24072516.854      -65301.772 7    -70060.00445  24072515.824    24072525.0514
  20528858.053    -1319280.090 9   -960353.81148  20528857.228    20528864.5654
 01  7 19 16 13  0.0000000  0 10 15 30 26 23 06 22 21 18 10 17
  21050663.986    -1663555.403 9  -1152702.06847  21050663.039    21050670.8554
  24783163.778       36536.315 7      9111.94045  24783163.602    24783174.4934
  22385723.962    -1623699.184 8  -1256410.42046  22385723.555    22385731.9564
  20890480.269    -1569267.448 9  -1090960.55348  20890479.362    20890486.8854
  20726611.722     -620036.998 9   -491954.30448  20726611.126    20726618.1234
  22802525.241    -1300080.487 8  -1009415.66746  22802524.151    22802532.5654
  24872415.799    -1817323.288 7  -1397679.22745  24872414.376    24872426.0124
  21735939.450    -2031413.384 9  -1566897.54447  21735938.673    21735945.5784
  24092499.133       39705.821 8     11764.05245  24092498.070    24092507.2114
  20524874.262    -1340215.158 9   -976666.84848  20524873.396    20524880.7534
 01  7 19 16 13 30.0000000  0 10 15 30 26 23 06 22 21 18 10 17
  21041078.594    -1713927.108 9  -1191952.73347  21041077.635    21041085.4204
  24804047.368      146280.235 7     94626.46745  24804047.275    24804058.3234
  22377154.130    -1668734.035 8  -1291502.47246  22377153.739    22377162.0364
  20882807.930    -1609585.695 9  -1122377.35348  20882807.034    20882814.5364
  20735314.291     -574304.708 9   -456318.79648  20735313.711    20735320.7334
  22799653.998    -1315168.971 8  -1021172.92846  22799652.859    22799661.3314
  24853441.060    -1917035.938 7  -1475377.34645  24853439.672    24853451.2724
  21720082.536    -2114742.060 9  -1631828.93947  21720081.741    21720088.6404
  24112506.787      144845.961 8     93691.32645  24112505.609    24112514.8764
  20520942.124    -1360878.539 9   -992768.17948  20520941.278    20520948.6374
 01  7 19 16 14  0.0000000  0  9 15 26 23 06 22 21 18 10 17
  21031544.571    -1764028.731 9  -1230992.94847  21031543.605    21031551.3804
  22368686.979    -1713229.093 8  -1326173.92446  22368686.561    22368694.8784
  20875226.312    -1649427.215 9  -1153422.67748  20875225.432    20875232.9014
  20744101.667     -528126.890 9   -420336.11248  20744101.088    20744108.0944
  22796892.142    -1329682.675 8  -1032482.32346  22796891.031    22796899.4724
  24834485.972    -2016644.506 7  -1552994.36345  24834484.914    24834496.3834
  21704296.048    -2197700.096 9  -1696471.52747  21704295.299    21704302.2104
  24132539.230      250117.181 8    175720.77545  24132538.021    24132547.2934
  20517061.893    -1381269.235 9  -1008657.03248  20517061.074    20517068.4284
 01  7 19 16 14 30.0000000  0  9 15 26 23 06 22 21 18 10 17
  21022061.971    -1813860.435 9  -1269822.83647  21022061.000    21022068.7214
  22360322.983    -1757182.446 8  -1360423.25146  22360322.590    22360330.8034
  20867735.479    -1688792.049 9  -1184096.55648  20867734.588    20867742.0194
  20752973.669     -481504.428 9   -384006.96348  20752973.106    20752980.1034
  22794239.535    -1343622.425 8  -1043344.49346  22794238.377    22794246.7004
  24815551.160    -2116147.724 7  -1630529.27545  24815550.182    24815561.5534
  21688580.412    -2280286.239 9  -1760824.32947  21688579.649    21688586.5914
  24152596.154      355516.650 8    257850.14445  24152594.946    24152604.2974
  20513233.518    -1401387.816 9  -1024333.84648  20513232.694    20513239.9664
 01  7 19 16 15  0.0000000  0  9 15 26 23 06 22 21 18 10 17
  21012630.943    -1863421.083 9  -1308441.51247  21012629.939    21012637.6644
  22352062.558    -1800591.109 8  -1394248.15246  22352062.200    22352070.3784
  20860335.534    -1727679.022 9  -1214398.08248  20860334.661    20860342.0684
  20761930.347     -434437.062 9   -347331.14148  20761929.785    20761936.7794
  22791696.303    -1356987.391 8  -1053758.76046  22791695.147    22791703.4804
  24796636.444    -2215543.683 7  -1707980.61145  24796635.697    24796647.0674
  21672936.004    -2362497.900 9  -1824885.32047  21672935.249    21672942.1884
  24172677.169      461042.333 8    340077.88345  24172675.854    24172685.2674
  20509457.070    -1421233.535 9  -1039798.04148  20509456.199    20509463.4454
 01  7 19 16 15 30.0000000  0  9 15 26 23 06 22 21 18 10 17
  21003249.663    -1912719.891 9  -1346856.15247  21003248.674    21003256.3854
  22343904.405    -1843462.092 8  -1427654.08946  22343904.027    22343912.3134
  20853024.865    -1766096.913 9  -1244334.08148  20853023.972    20853031.3844
  20770969.858     -386934.386 9   -310316.10148  20770969.297    20770976.2864
  22789260.834    -1369786.111 8  -1063731.80246  22789259.644    22789267.9154
  24777741.238    -2314839.535 7  -1785353.92445  24777740.277    24777751.7624
  21657361.438    -2444342.743 9  -1888660.47947  21657360.681    21657367.5944
  24192779.816      566682.778 8    422395.05045  24192778.677    24192788.0064
  20505730.658    -1440815.707 9  -1055056.87348  20505729.819    20505737.0904
 01  7 19 16 16  0.0000000  0  9 15 26 23 06 22 21 18 10 17
  20993920.164    -1961746.610 9  -1385058.77847  20993919.162    20993926.8764
  22335851.021    -1885782.769 8  -1460631.22446  22335850.642    22335858.9124
  20845805.460    -1804035.083 9  -1273896.28148  20845804.580    20845811.9734
  20780094.107     -338986.405 9   -272954.07248  20780093.541    20780100.5474
  22786935.097    -1382008.285 8  -1073255.60846  22786933.874    22786942.0634
  24758866.990    -2414023.478 7  -1862640.07745  24758865.994    24758877.6044
  21641858.991    -2525808.723 9  -1952140.42747  21641858.213    21641865.1234
  24212905.994      672445.794 8    504807.72145  24212904.864    24212914.1294
  20502056.411    -1460124.073 9  -1070102.35448  20502055.572    20502062.8534
 01  7 19 16 16 30.0000000  0  9 15 26 23 06 22 21 18 10 17
  20984641.958    -2010504.013 9  -1423051.54447  20984640.975    20984648.7084
  22327902.215    -1927554.236 8  -1493180.38746  22327901.835    22327909.9594
  20838676.844    -1841496.356 9  -1303086.87048  20838675.945    20838683.3544
  20789302.395     -290596.718 9   -235247.85648  20789301.816    20789308.8064
  22784718.339    -1393657.204 8  -1082332.70246  22784717.129    22784725.3784
  24740013.878    -2513097.166 7  -1939840.29045  24740012.766    24740024.5414
  21626428.358    -2606897.314 9  -2015326.29647  21626427.536    21626434.4204
  24233054.463      778326.061 8    587311.79145  24233053.305    24233062.4504
  20498433.709    -1479161.737 9  -1084936.89448  20498432.860    20498440.1254
 01  7 19 16 17  0.0000000  0  9 15 26 23 06 22 21 18 10 17
  20975414.926    -2058992.457 9  -1460834.73447  20975413.933    20975421.6604
  22320058.284    -1968774.564 8  -1525300.10446  22320057.865    22320065.8984
  20831638.921    -1878480.927 9  -1331906.00448  20831638.027    20831645.4004
  20798594.527     -241766.429 9   -197198.31448  20798593.943    20798600.9364
  22782610.425    -1404734.042 8  -1090964.02546  22782609.268    22782617.5144
  24721181.870    -2612059.899 7  -2016954.07045  24721180.713    24721192.5474
  21611069.651    -2687607.509 9  -2078217.31847  21611068.888    21611075.7864
  24253224.516      884320.203 8    669904.54645  24253223.323    24253232.6484
  20494862.336    -1497929.352 9  -1099561.01048  20494861.493    20494868.7454
 01  7 19 16 17 30.0000000  0  9 15 26 23 06 22 21 18 10 17
  20966239.264    -2107210.937 9  -1498407.55647  20966238.256    20966245.9464
  22312319.620    -2009441.509 8  -1556988.60646  22312319.203    22312327.1604
  20824691.852    -1914987.977 9  -1360353.03848  20824690.957    20824698.3234
  20807970.454     -192495.598 9   -158805.48948  20807969.902    20807976.9244
  22780611.711    -1415237.837 8  -1099148.80946  22780610.462    22780618.8134
  24702371.456    -2710909.293 7  -2093979.52545  24702370.455    24702381.9884
  21595783.445    -2767937.026 9  -2140811.70247  21595782.651    21595789.5354
  24273415.871      990426.477 8    752584.63545  24273414.485    24273424.1124
  20491342.441    -1516426.528 9  -1113974.39048  20491341.609    20491348.8354
 01  7 19 16 18  0.0000000  0  9 15 26 23 06 22 21 18 10 17
  20957115.009    -2155158.987 9  -1535769.65747  20957114.022    20957121.6974
  22304686.728    -2049552.405 8  -1588243.83746  22304686.337    22304694.2964
  20817835.662    -1951017.231 9  -1388427.76848  20817834.783    20817842.1544
  20817430.194     -142784.645 9   -120069.71848  20817429.633    20817436.6614
  22778722.137    -1425168.170 8  -1106886.75946  22778720.890    22778729.1884
  24683582.999    -2809643.985 7  -2170915.57645  24683581.852    24683593.3484
  21580569.983    -2847884.232 9  -2203108.17947  21580569.183    21580576.0314
  24293628.068     1096642.792 8    835350.61445  24293626.922    24293636.3134
  20487874.064    -1534653.256 9  -1128177.02948  20487873.191    20487880.4514
 01  7 19 16 18 30.0000000  0  9 15 26 23 06 22 21 18 10 17
  20948042.141    -2202837.211 9  -1572921.49847  20948041.143    20948048.7914
  22297159.837    -2089105.958 8  -1619064.76546  22297159.458    22297167.4804
  20811070.368    -1986569.043 9  -1416130.46548  20811069.486    20811076.8854
  20826973.387      -92634.794 9    -80991.94348  20826972.827    20826979.8794
  22776941.447    -1434525.843 8  -1114178.46446  22776940.222    22776948.5694
  24664816.270    -2908263.340 7  -2247761.77445  24664815.164    24664826.7474
  21565429.447    -2927448.162 9  -2265106.00147  21565428.645    21565435.4474
  24313860.877     1202966.084 8    918199.88545  24313859.595    24313868.9864
  20484456.966    -1552609.999 9  -1142169.29348  20484456.086    20484463.4484
 01  7 19 16 19  0.0000000  0  9 15 26 23 06 22 21 18 10 17
  20939021.131    -2250243.017 9  -1609861.06847  20939020.138    20939027.7874
  22289739.906    -2128097.592 8  -1649447.82646  22289739.614    22289747.5754
  20804396.488    -2021640.569 9  -1443458.91148  20804395.587    20804402.9894
  20836600.513      -42044.063 9    -41570.62648  20836599.962    20836607.0364
  22775270.161    -1443308.965 8  -1121022.46846  22775268.939    22775277.2354
  24646072.215    -3006762.945 7  -2324514.65245  24646071.240    24646082.8484
  21550362.708    -3006624.498 9  -2326801.79747  21550361.875    21550368.6434
  24334113.769     1309396.160 8   1001132.34745  24334112.654    24334122.1604
  20481091.689    -1570294.421 9  -1155949.36048  20481090.866    20481098.2054
 01  7 19 16 19 30.0000000  0  9 15 26 23 06 22 21 18 10 17
  20930050.901    -2297381.809 9  -1646592.57447  20930049.898    20930057.5764
  22282426.284    -2166531.018 8  -1679395.91846  22282425.977    22282434.0124
  20797812.916    -2056237.400 9  -1470417.46048  20797812.004    20797819.4064
  20846310.287        8981.356 9     -1810.58948  20846309.760    20846316.8774
  22773706.959    -1451523.663 8  -1127423.54246  22773705.772    22773714.0684
  24627350.217    -3105147.085 7  -2401177.54645  24627349.301    24627360.9564
  21535368.769    -3085417.732 9  -2388199.07047  21535367.975    21535374.7404
  24354385.470     1415924.893 7   1084141.70145  24354384.331    24354393.6524
  20477777.193    -1587712.444 9  -1169521.84048  20477776.350    20477783.6394
 01  7 19 16 20  0.0000000  0  9 15 26 23 06 22 21 18 10 17
  20921133.362    -2344243.467 9  -1683108.14047  20921132.401    20921140.0894
  22275221.124    -2204394.460 8  -1708899.88246  22275220.796    22275228.8564
  20791321.564    -2090349.639 9  -1496998.41548  20791320.678    20791328.0564
  20856104.585       60450.643 9     38295.31948  20856104.069    20856111.1874
  22772253.876    -1459159.690 8  -1133373.72446  22772252.687    22772261.0214
  24608652.235    -3203404.466 8  -2477741.67445  24608651.565    24608663.1194
  21520449.930    -3163816.618 9  -2449289.07247  21520449.143    21520455.8654
  24374677.178     1522559.409 8   1167233.39345  24374676.213    24374685.5604
  20474515.263    -1604854.346 9  -1182879.16748  20474514.399    20474521.6564
 01  7 19 16 20 30.0000000  0  9 15 26 23 06 22 21 18 10 17
  20912267.103    -2390836.033 9  -1719414.01347  20912266.129    20912273.8084
  22268123.075    -2241694.257 8  -1737964.62746  22268122.819    22268130.9024
  20784920.857    -2123985.376 9  -1523208.06248  20784919.969    20784927.3814
  20865981.710      112354.777 9     78740.07648  20865981.162    20865988.2694
  22770909.320    -1466225.479 8  -1138879.55846  22770908.118    22770916.4184
  24589977.108    -3301542.565 8  -2554212.85445  24589976.414    24589987.9774
  21505604.930    -3241827.632 9  -2510076.82947  21505604.140    21505610.8594
  24394987.481     1629289.182 8   1250399.41045  24394986.462    24394995.6264
  20471304.215    -1621728.409 9  -1196027.78548  20471303.342    20471310.6274
 01  7 19 16 21  0.0000000  0  9 15 26 23 06 22 21 18 10 17
  20903452.163    -2437158.959 9  -1755509.77947  20903451.162    20903458.8354
  22261132.997    -2278427.713 8  -1766588.06246  22261132.678    22261140.7454
  20778611.015    -2157143.785 9  -1549045.76948  20778610.147    20778617.5434
  20875941.510      164693.853 9    119523.75048  20875940.997    20875948.0784
  22769673.300    -1472720.847 8  -1143940.89346  22769672.084    22769680.4444
  24571325.222    -3399558.908 8  -2630589.15945  24571324.496    24571336.0234
  21490834.099    -3319448.826 9  -2570560.83147  21490833.306    21490840.0014
  24415315.535     1736112.790 8   1333638.50845  24415314.410    24415323.7354
  20468144.232    -1638334.059 9  -1208967.24948  20468143.419    20468150.6874
 01  7 19 16 21 30.0000000  0  9 15 26 23 06 22 21 18 10 17
  20894689.063    -2483209.196 9  -1791393.06047  20894688.069    20894695.7364
  22254251.575    -2314590.035 8  -1794766.45746  22254251.183    22254259.1714
  20772392.553    -2189821.964 9  -1574509.26948  20772391.672    20772399.0664
  20885984.607      217470.151 9    160648.11148  20885984.034    20885991.1124
  22768546.321    -1478643.678 8  -1148556.11646  22768545.094    22768553.3184
  24552697.094    -3497449.186 8  -2706867.22945  24552696.512    24552708.0654
  21476138.261    -3396675.701 9  -2630737.57247  21476137.489    21476144.1784
  24435661.295     1843030.492 8   1416950.92645  24435660.174    24435669.7074
  20465035.939    -1654668.502 9  -1221695.38748  20465035.101    20465042.3184
 01  7 19 16 22  0.0000000  0  9 15 26 23 06 22 21 18 10 17
  20885977.901    -2528986.437 9  -1827063.62147  20885976.919    20885984.5724
  22247479.017    -2350179.564 8  -1822498.52546  22247478.691    22247486.7424
  20766265.536    -2222019.723 9  -1599598.41648  20766264.644    20766272.0384
  20896110.678      270682.883 9    202112.54448  20896110.124    20896117.2194
  22767528.120    -1483994.116 8  -1152725.29946  22767526.909    22767535.2004
  24534093.486    -3595212.255 8  -2783046.17445  24534092.751    24534104.2834
  21461517.755    -3473507.050 9  -2690606.11847  21461516.961    21461523.6364
  24456024.556     1950039.539 8   1500334.54245  24456023.407    24456032.9634
  20461979.177    -1670732.120 9  -1234212.49548  20461978.277    20461985.5314
 01  7 19 16 22 30.0000000  0  9 15 26 23 06 22 21 18 10 17
  20877318.662    -2574490.894 9  -1862521.62347  20877317.694    20877325.3214
  22240815.800    -2385194.538 8  -1849782.88846  22240815.534    22240823.6364
  20760229.826    -2253737.290 9  -1624313.39148  20760228.953    20760236.3604
  20906319.604      324331.129 9    243916.33748  20906319.037    20906326.1684
  22766618.904    -1488772.380 8  -1156448.64746  22766617.679    22766625.9154
  24515514.257    -3692846.887 7  -2859125.03645  24515513.483    24515525.0114
  21446972.696    -3549941.529 9  -2750165.40847  21446971.900    21446978.5854
  24476404.663     2057137.553 8   1583787.44145  24476403.589    24476413.0924
  20458973.780    -1686525.103 9  -1246518.72248  20458972.918    20458980.2014
 01  7 19 16 23  0.0000000  0  9 15 26 23 06 22 21 18 10 17
  20868711.071    -2619724.146 9  -1897768.28947  20868710.083    20868717.7054
  22234261.973    -2419634.828 8  -1876619.43646  22234261.741    22234269.8234
  20754285.189    -2284976.266 9  -1648655.43348  20754284.328    20754291.7844
  20916610.906      378412.532 9    286057.66048  20916610.402    20916617.5544
  22765818.111    -1492980.437 8  -1159727.66246  22765816.863    22765825.2074
  24496959.590    -3790352.959 7  -2935103.72445  24496958.669    24496970.1494
  21432503.154    -3625979.144 9  -2809415.46147  21432502.377    21432509.0364
  24496800.935     2164320.578 8   1667306.61745  24496799.898    24496809.3294
  20456019.640    -1702049.268 9  -1258615.47248  20456018.783    20456026.0834
 01  7 19 16 23 30.0000000  0  9 15 26 23 06 22 21 18 10 17
  20860155.720    -2664682.720 9  -1932800.92347  20860154.755    20860162.3594
  22227818.558    -2453495.476 8  -1903004.32346  22227818.292    22227826.3374
  20748432.256    -2315733.627 9  -1672622.19748  20748431.400    20748438.8604
  20926985.155      432929.300 9    328538.22648  20926984.620    20926991.7744
  22765126.294    -1496616.184 8  -1162560.73046  22765125.012    22765133.3944
  24478430.004    -3887726.407 8  -3010979.09245  24478429.106    24478440.5024
  21418110.040    -3701615.410 9  -2868352.77347  21418109.271    21418115.9214
  24517213.764     2271589.157 8   1750892.42645  24517212.536    24517221.9744
  20453117.291    -1717301.398 9  -1270500.25148  20453116.432    20453123.7154
 01  7 19 16 24  0.0000000  0  9 15 26 23 06 22 21 18 10 17
  20851652.711    -2709366.370 9  -1967619.33747  20851651.732    20851659.3244
  22221485.844    -2486774.467 8  -1928935.96946  22221485.565    22221493.5604
  20742671.045    -2346009.169 9  -1696213.51348  20742670.178    20742677.6304
  20937442.140      487880.934 9    371357.65048  20937441.611    20937448.8034
  22764543.268    -1499679.746 8  -1164947.93846  22764542.006    22764550.3844
  24459925.953    -3984965.640 7  -3086749.83945  24459924.986    24459936.3404
  21403793.535    -3776849.028 9  -2926976.33747  21403792.743    21403799.4064
  24537642.135     2378941.070 7   1834543.21545  24537640.945    24537650.5434
  20450266.687    -1732281.586 9  -1282173.12948  20450265.796    20450273.0984
 01  7 19 16 24 30.0000000  0  9 15 26 23 06 22 21 18 10 17
  20843201.710    -2753776.525 9  -2002224.64047  20843200.733    20843208.3294
  22215263.838    -2519471.463 8  -1954414.10946  22215263.533    22215271.4924
  20737001.188    -2375804.285 9  -1719430.47248  20737000.323    20737007.7804
  20947981.485      543265.377 9    414514.32647  20947980.945    20947988.1724
  22764068.896    -1502172.569 8  -1166890.42146  22764067.654    22764076.0074
  24441447.516    -4082070.479 8  -3162415.87345  24441446.629    24441457.9154
  21389553.743    -3851679.541 9  -2985285.79647  21389552.971    21389559.6134
  24558085.682     2486372.814 7   1918256.20245  24558084.581    24558094.1254
  20447467.415    -1746991.265 9  -1293635.21948  20447466.583    20447473.9254
 01  7 19 16 25  0.0000000  0  9 15 26 23 06 22 21 18 10 17
  20834802.880    -2797912.496 9  -2036616.28747  20834801.917    20834809.5124
  22209152.926    -2551584.314 8  -1979437.05946  22209152.584    22209160.5394
  20731422.881    -2405118.412 9  -1742272.63748  20731422.005    20731429.4544
  20958603.096      599082.213 9    458007.93047  20958602.541    20958609.7914
  22763703.100    -1504094.471 8  -1168388.02446  22763701.897    22763710.2854
  24422994.985    -4179039.018 8  -3237975.72045  24422993.993    24423005.4464
  21375390.962    -3926105.583 9  -3043280.07247  21375390.135    21375396.7644
  24578544.131     2593882.396 7   2002029.83645  24578542.907    24578552.9404
  20444719.862    -1761430.171 9  -1304886.30948  20444719.025    20444726.3354
 01  7 19 16 25 30.0000000  0  9 15 26 23 06 22 21 18 10 17
  20826456.249    -2841774.379 9  -2070794.36447  20826455.295    20826462.8674
  22203153.361    -2583111.564 8  -2004003.71946  22203153.037    22203161.0264
  20725936.072    -2433951.953 9  -1764740.32248  20725935.184    20725942.6424
  20969306.786      655330.404 9    501837.64847  20969306.221    20969313.4984
  22763445.803    -1505446.602 8  -1169441.66446  22763444.625    22763453.0624
  24404568.446    -4275870.282 8  -3313428.58145  24404567.660    24404578.9634
  21361305.343    -4000125.854 9  -3100958.16947  21361304.517    21361311.1244
  24599016.550     2701467.392 7                  24599014.853    24599021.2844
  20442023.764    -1775598.597 9  -1315926.64348  20442022.882    20442030.1774
 01  7 19 16 26  0.0000000  0  9 15 26 23 06 22 21 18 10 17
  20818161.819    -2885361.982 9  -2104758.70947  20818160.827    20818168.4134
  22197265.679    -2614051.471 8  -2028112.70546  22197265.383    22197273.3324
  20720540.609    -2462305.162 9  -1786833.72148  20720539.739    20720547.2064
  20980092.402      712009.128 9    546002.85547  20980091.855    20980099.1424
  22763296.777    -1506229.979 8  -1170052.10346  22763295.608    22763304.0024
  24386168.391    -4372563.006 8  -3388773.48445  24386167.568    24386178.8564
  21347297.199    -4073739.021 9  -3158319.03547  21347296.384    21347303.0054
  24619503.050     2809123.973 7   2169750.15054  24619500.863    24619511.8914
  20439378.994    -1789496.799 9  -1326756.40648  20439378.113    20439385.4184
 01  7 19 16 26 30.0000000  0  9 15 26 23 06 22 21 18 10 17
  20809919.735    -2928674.550 9  -2138508.74447  20809918.753    20809926.3664
  22191490.226    -2644402.093 8  -2051762.50646  22191489.891    22191497.8164
  20715236.703    -2490177.417 9  -1808552.34948  20715235.821    20715243.2734
  20990959.916      769118.003 9    590503.22947  20990959.351    20990966.6524
  22763256.036    -1506444.232 8  -1170219.06946  22763254.886    22763263.2874
  24367794.985    -4469115.165 8  -3464008.86845  24367794.298    24367805.4784
  21333366.887    -4146943.259 9  -3215361.25947  21333366.038    21333372.6594
  24640003.322     2916852.327 7   2253694.27044  24640002.278    24640013.2774
  20436785.703    -1803124.326 9  -1337375.25848  20436784.848    20436792.2134
 01  7 19 16 27  0.0000000  0  9 15 26 23 06 22 21 18 10 17
  20801729.921    -2971712.181 9  -2172044.54147  20801728.913    20801736.5544
  22185827.026    -2674161.869 8  -2074951.90746  22185826.782    22185834.6624
  20710024.263    -2517569.014 9  -1829896.43848  20710023.379    20710030.8374
  21001909.067      826656.145 9    635338.11047  21001908.521    21001915.8434
  22763323.497    -1506089.704 8  -1169942.83346  22763322.320    22763330.8364
  24349448.663    -4565525.732 8  -3539133.91945  24349447.898    24349459.0604
  21319514.547    -4219737.407 9  -3272083.94047  21319513.748    21319520.3734
  24660516.312     3024648.990 6                  24660515.552    24660525.7364
  20434243.972    -1816481.357 9  -1347783.32948  20434243.128    20434250.4534
 01  7 19 16 27 30.0000000  0  9 15 26 23 06 22 21 18 10 17
  20793592.680    -3014473.514 9  -2205365.04447  20793591.706    20793599.3724
  22180276.827    -2703328.078 8  -2097678.79146  22180276.584    22180284.5044
  20704903.461    -2544478.964 9  -1850865.21848  20704902.574    20704910.0184
  21012939.991      884623.781 9    680507.65047  21012939.445    21012946.7644
  22763499.360    -1505166.033 8  -1169223.11346  22763498.169    22763506.7104
  24331129.742    -4661792.231 8  -3614146.70845  24331128.930    24331140.0424
  21305740.744    -4292119.068 9  -3328485.20147  21305739.923    21305746.5534
  24681041.715     3132512.644 6                  24681039.984    24681055.0254
  20431753.912    -1829566.998 9  -1357979.93248  20431753.042    20431760.2934
 01  7 19 16 28  0.0000000  0  8 15 26 23 06 22 21 18 17
  20785507.919    -3056959.090 9  -2238470.66647  20785506.953    20785514.6234
  22174839.907    -2731899.495 8  -2119942.20046  22174839.648    22174847.5354
  20699874.217    -2570907.740 9  -1871459.05348  20699873.336    20699880.7614
  21024052.323      943019.551 9    726010.81247  21024051.802    21024059.1834
  22763783.119    -1503674.615 8  -1168060.97946  22763781.952    22763790.5254
  24312838.233    -4757914.091 8  -3689046.78545  24312837.314    24312848.6314
  21292045.573    -4364087.322 9  -3384564.32547  21292044.794    21292051.4294
  20429315.364    -1842381.653 9  -1367965.36948  20429314.490    20429321.7584
 01  7 19 16 28 30.0000000  0  8 15 26 23 06 22 21 18 17
  20777475.398    -3099169.876 9  -2271362.16547  20777474.424    20777482.1304
  22169516.141    -2759876.061 8  -2141742.09546  22169515.874    22169523.7334
  20694936.236    -2596857.115 9  -1891679.32648  20694935.344    20694942.7754
  21035245.737     1001841.140 9    771845.77047  21035245.203    21035252.6174
  22764174.577    -1501617.749 8  -1166458.24946  22764173.381    22764181.9484
  24294574.296    -4853891.178 8  -3763834.04045  24294573.407    24294584.7294
  21278429.117    -4435642.159 9  -3440321.30247  21278428.321    21278434.9694
  20426928.031    -1854926.931 9  -1377740.90848  20426927.183    20426934.4924
 01  7 19 16 29  0.0000000  0  8 15 26 23 06 22 21 18 17
  20769495.898    -3141102.376 9  -2304036.82747  20769494.918    20769502.6464
  22164306.480    -2787253.104 8  -2163074.82746  22164306.180    22164313.9934
  20690090.048    -2622323.936 9  -1911523.59248  20690089.159    20690096.5774
  21046520.557     1061090.848 9    818014.32447  21046520.037    21046527.4864
  22764674.232    -1498992.302 8  -1164412.46546  22764673.065    22764681.6484
  24276338.772    -4949718.607 8  -3838504.69245  24276337.991    24276349.3494
  21264892.169    -4506779.162 9  -3495752.70047  21264891.362    21264898.0264
  20424592.619    -1867199.642 9  -1387304.05548  20424591.749    20424599.0884
 01  7 19 16 29 30.0000000  0  8 15 26 23 06 22 21 18 17
  20761568.885    -3182759.078 9  -2336496.57247  20761567.896    20761575.6184
  22159210.768    -2814031.461 8  -2183941.05646  22159210.438    22159218.2134
  20685335.182    -2647310.813 9  -1930993.87148  20685334.311    20685341.7314
  21057876.331     1120765.404 9    864513.92347  21057875.776    21057883.2334
  22765281.500    -1495801.273 8  -1161925.98446  22765280.295    22765288.8334
  24258131.535    -5045397.698 8  -3913059.73245  24258130.816    24258142.2254
  21251434.518    -4577499.465 9  -3550859.39747  21251433.729    21251440.3564
  20422308.582    -1879202.366 9  -1396656.82048  20422307.721    20422315.0274
 01  7 19 16 30  0.0000000  0  8 15 26 23 06 22 21 18 17
  20753694.743    -3224138.124 9  -2368739.95747  20753693.727    20753701.4444
  22154229.517    -2840207.856 8  -2204338.22546  22154229.167    22154236.9654
  20680671.947    -2671816.184 9  -1950088.95448  20680671.059    20680678.4884
  21069313.017     1180865.618 9    911345.21547  21069312.449    21069319.9644
  22765996.567    -1492043.835 8  -1158998.13846  22765995.389    22766003.9204
  24239953.269    -5140925.075 8  -3987496.56245  24239952.521    24239963.9864
  21238056.698    -4647800.219 9  -3605639.17147  21238055.900    21238062.5444
  20420076.245    -1890933.366 9  -1405797.85648  20420075.366    20420082.6704
 01  7 19 16 30 30.0000000  0  8 15 26 23 06 22 21 18 17
  20745873.174    -3265240.649 9  -2400767.87847  20745872.162    20745879.8714
  22149362.818    -2865782.177 8  -2224266.26546  22149362.426    22149370.3284
  20676100.077    -2695841.532 9  -1968809.99448  20676099.194    20676106.6154
  21080830.302     1241389.303 9    958506.47647  21080829.755    21080837.2824
  22766818.933    -1487722.456 8  -1155630.85946  22766817.750    22766826.2224
  24221803.787    -5236300.845 8  -4061815.25645  24221803.065    24221814.3724
  21224758.705    -4717681.372 9  -3660091.98547  21224757.916    21224764.5704
  20417895.338    -1902394.102 9  -1414728.29648  20417894.456    20417901.7754
 01  7 19 16 31  0.0000000  0  8 15 26 23 06 22 21 18 17
  20738104.589    -3306064.612 9  -2432578.73747  20738103.590    20738111.3294
  22144611.199    -2890751.464 8  -2243722.84646  22144610.895    22144618.8544
  20671619.778    -2719385.522 9  -1987155.94848  20671618.896    20671626.3234
  21092428.318     1302337.093 9   1005998.20847  21092427.756    21092435.2734
  22767748.871    -1482836.208 8  -1151823.41846  22767747.657    22767756.1094
  24203683.486    -5331522.797 8  -4136014.10045  24203682.829    24203694.1424
  21211541.068    -4787140.156 9  -3714215.68347  21211540.286    21211546.9744
  20415766.168    -1913583.015 9  -1423446.92748  20415765.280    20415772.6044
 01  7 19 16 31 30.0000000  0  8 15 26 23 06 22 21 18 17
  20730388.667    -3346612.030 9  -2464174.10647  20730387.661    20730395.3844
  22139974.787    -2915116.195 8  -2262708.34246  22139974.484    22139982.2984
  20667230.676    -2742450.355 9  -2005128.53548  20667229.814    20667237.2364
  21104106.486     1363706.002 9   1053818.08547  21104105.941    21104113.4194
  22768785.796    -1477387.283 8  -1147577.53046  22768784.608    22768792.9904
  24185592.580    -5426591.137 8  -4210093.25145  24185591.833    24185603.1534
  21198403.747    -4856177.208 9  -3768010.75547  21198402.931    21198409.6934
  20413688.313    -1924502.191 9  -1431955.37148  20413687.438    20413694.7924
 01  7 19 16 32  0.0000000  0  8 15 26 23 06 22 21 18 17
  20722725.926    -3386880.194 9  -2495551.87747  20722724.906    20722732.5834
  22135454.131    -2938872.513 8  -2281219.74646  22135453.794    22135461.5134
  20662933.179    -2765033.874 9  -2022726.07348  20662932.290    20662939.7194
  21115865.043     1425497.590 9   1101967.32447  21115864.511    21115872.0034
  22769930.151    -1471373.847 8  -1142891.74946  22769928.926    22769937.3154
  24167531.522    -5521501.747 8  -4284049.50945  24167530.876    24167542.2754
  21185347.353    -4924788.776 9  -3821474.28047  21185346.540    21185353.3064
  20411662.257    -1935149.075 9  -1440251.64448  20411661.401    20411668.7374
 01  7 19 16 32 30.0000000  0  8 15 26 23 06 22 21 18 17
  20715115.964    -3426870.672 9  -2526713.26847  20715114.954    20715122.5714
  22131049.164    -2962020.759 8  -2299257.33846  22131048.794    22131056.5794
  20658726.881    -2787138.061 9  -2039950.10348  20658726.021    20658733.4314
  21127703.568     1487709.147 9   1150443.81047  21127703.055    21127710.5244
  22771181.320    -1464799.083 8  -1137768.58646  22771180.080    22771188.4644
  24149500.446    -5616255.686 8  -4357883.66845  24149499.619    24149511.0584
  21172371.800    -4992975.431 9  -3874606.70447  21172371.003    21172377.7414
  20409687.646    -1945525.596 9  -1448337.24548  20409686.768    20409694.1174
 01  7 19 16 33  0.0000000  0  8 15 26 23 06 22 21 18 17
  20707559.231    -3466581.448 9  -2557656.71547  20707558.226    20707565.8354
  22126760.367    -2984557.854 8  -2316818.72646  22126760.083    22126767.9784
  20654612.115    -2808761.353 9  -2056799.41448  20654611.230    20654618.6344
  21139622.230     1550341.660 9   1199248.31647  21139621.694    21139629.1514
  22772539.387    -1457662.110 8  -1132207.32346  22772538.201    22772546.6144
  24131499.803    -5710849.200 8  -4431592.84245  24131499.111    24131510.4584
  21159477.685    -5060734.113 9  -3927405.64947  21159476.919    21159483.6704
  20407764.825    -1955629.846 9  -1456210.68048  20407763.969    20407771.3064
 01  7 19 16 33 30.0000000  0  9 03 15 26 23 06 22 21 18 17
  24623359.349    -3594748.479 7  -2269280.27245  24623358.584    24623368.8554
  20700055.216    -3506015.089 9  -2588384.22047  20700054.221    20700061.8234
  22122587.702    -3006485.108 8  -2333904.91546  22122587.382    22122595.3764
  20650588.294    -2829906.754 9  -2073276.34248  20650587.416    20650594.8114
  21151620.249     1613391.413 9   1248377.93847  21151619.678    21151627.1644
  22774003.900    -1449966.069 8  -1126210.43046  22774002.716    22774011.1424
  24113529.336    -5805284.169 8  -4505178.45245  24113528.622    24113540.0574
  21146664.763    -5128066.464 9  -3979872.38447  21146663.959    21146670.7264
  20405893.371    -1965464.634 9  -1463874.15048  20405892.514    20405899.8324
 01  7 19 16 34  0.0000000  0  9 03 15 26 23 06 22 21 18 17
  24603684.158    -3698142.092 7  -2349846.63545  24603683.304    24603693.6144
  20692604.180    -3545170.351 9  -2618894.80247  20692603.199    20692610.8244
  22118531.518    -3027800.307 8  -2350514.17346  22118531.229    22118539.3184
  20646655.500    -2850573.639 9  -2089380.39548  20646654.618    20646661.9944
  21163697.643     1676858.339 9   1297832.63547  21163697.077    21163704.5804
  22775574.876    -1441710.722 8  -1119777.72246  22775573.679    22775582.0824
  24095589.593    -5899558.209 8  -4578638.67845  24095588.791    24095600.1224
  21133933.313    -5194970.303 9  -4032005.20447  21133932.563    21133939.3104
  20404073.293    -1975029.197 9  -1471327.04848  20404072.415    20404079.7834
 01  7 19 16 34 30.0000000  0  9 03 15 26 23 06 22 21 18 17
  24584023.340    -3801459.443 7  -2430353.56545  24584022.665    24584032.8504
  20685206.783    -3584044.084 9  -2649186.01847  20685205.810    20685213.3964
  22114592.723    -3048499.425 8  -2366643.36846  22114592.396    22114600.4554
  20642814.292    -2870759.371 9  -2105109.52948  20642813.418    20642820.7814
  21175854.759     1740744.289 9   1347613.84047  21175854.221    21175861.7344
  22777252.531    -1432894.180 8  -1112907.71846  22777251.367    22777259.8174
  24077681.201    -5993667.159 8  -4651970.24045  24077680.439    24077691.7464
  21121284.262    -5261441.663 9  -4083801.03947  21121283.500    21121290.2154
  20402305.233    -1984320.570 9  -1478567.07848  20402304.359    20402311.6964
 01  7 19 16 35  0.0000000  0  9 03 15 26 23 06 22 21 18 17
  24564377.071    -3904700.990 7  -2510801.43045  24564376.366    24564386.5504
  20677862.571    -3622638.450 9  -2679259.54047  20677861.574    20677869.0924
  22110770.976    -3068583.345 8  -2382293.19746  22110770.642    22110778.5754
  20639064.139    -2890466.584 9  -2120465.78848  20639063.254    20639070.6104
  21188091.011     1805045.941 9   1397718.97147  21188090.450    21188097.9844
  22779036.379    -1423520.201 8  -1105603.33646  22779035.163    22779043.6524
  24059804.125    -6087611.948 8  -4725173.89545  24059803.374    24059814.5504
  21108717.265    -5327481.503 9  -4135260.61847  21108716.520    21108723.1974
  20400588.638    -1993341.152 9  -1485596.10348  20400587.757    20400595.1024
 01  7 19 16 35 30.0000000  0  9 03 15 26 23 06 22 21 18 17
  24544745.853    -4007863.231 7  -2591187.52645  24544745.186    24544755.4214
  20670571.737    -3660951.961 9  -2709114.21547  20670570.742    20670578.2294
  22107066.655    -3088049.472 8  -2397461.60746  22107066.347    22107074.2404
  20635405.229    -2909694.223 9  -2135448.35448  20635404.337    20635411.6974
  21200406.480     1869763.600 9   1448148.25247  21200405.894    21200413.4144
  22780926.371    -1413588.112 8  -1097864.08846  22780925.204    22780933.5764
  24041958.653    -6181389.536 8  -4798247.27545  24041958.059    24041969.2154
  21096232.929    -5393087.302 9  -4186381.98347  21096232.152    21096238.8354
  20398923.886    -2002089.462 9  -1492412.96648  20398923.029    20398930.3094
 01  7 19 16 36  0.0000000  0  9 03 15 26 23 06 22 21 18 17
  24525130.212    -4110944.350 7  -2671510.41245  24525129.566    24525139.6474
  20663334.433    -3698984.286 9  -2738749.78547  20663333.432    20663340.9214
  22103480.031    -3106896.734 8  -2412147.79146  22103479.819    22103487.7344
  20631837.468    -2928442.897 9  -2150057.70148  20631836.587    20631843.8974
  21212800.807     1934896.018 9   1498900.72847  21212800.224    21212807.7554
  22782922.442    -1403098.551 8  -1089690.43546  22782921.262    22782929.7424
  24024145.451    -6274998.925 8  -4871189.57345  24024144.700    24024155.8634
  21083831.298    -5458258.116 9  -4237164.40047  21083830.528    21083837.1844
  20397310.959    -2010565.680 9  -1499017.80748  20397310.096    20397317.3194
 01  7 19 16 36 30.0000000  0  9 03 15 26 23 06 22 21 18 17
  24505530.265    -4213942.357 7  -2751768.55445  24505529.764    24505539.6444
  20656150.643    -3736735.147 9  -2768166.03547  20656149.665    20656157.1594
  22100011.536    -3125123.911 8  -2426350.80646  22100011.300    22100019.2514
  20628360.831    -2946712.757 9  -2164293.94748  20628359.944    20628367.2524
  21225273.897     2000442.310 9   1549975.70147  21225273.299    21225280.8464
  22785024.498    -1392052.341 8  -1081083.04546  22785023.337    22785031.8014
  24006364.322    -6368439.056 8  -4943999.97045  24006363.601    24006374.7924
  21071512.714    -5522992.703 9  -4287606.90447  21071511.936    21071518.5684
  20395749.838    -2018769.673 9  -1505410.52948  20395748.947    20395756.2054
 01  7 19 16 37  0.0000000  0  9 03 15 26 23 06 22 21 18 17
  24485945.871    -4316858.703 7  -2831963.05545  24485945.393    24485955.0644
  20649019.840    -3774207.695 9  -2797365.41847  20649018.852    20649026.3504
  22096660.672    -3142733.015 8  -2440072.20146  22096660.410    22096668.4774
  20624974.622    -2964507.337 9  -2178159.84048  20624973.728    20624981.0364
  21237824.832     2066398.165 9   1601369.81747  21237824.290    21237831.8954
  22787231.645    -1380454.004 8  -1072045.41446  22787230.509    22787238.9684
  23988615.169    -6461711.707 8  -5016679.86645  23988614.298    23988625.5774
  21059276.686    -5587293.146 9  -4337711.10947  21059275.927    21059282.5494
  20394239.769    -2026704.797 9  -1511593.74048  20394238.902    20394246.2254
 01  7 19 16 37 30.0000000  0  9 03 15 26 23 06 22 21 18 17
  24466378.410    -4419686.924 7  -2912088.90345  24466377.859    24466387.3864
  20641942.918    -3811397.342 9  -2826344.35848  20641941.901    20641949.4354
  22093428.346    -3159718.737 8  -2453307.84546  22093428.108    22093436.2664
  20621679.552    -2981822.862 9  -2191652.44748  20621678.689    20621686.0014
  21250454.443     2132766.902 9   1653085.65447  21250453.897    21250461.5054
  22789544.369    -1368300.609 8  -1062575.27946  22789543.237    22789551.6954
  23970898.818    -6554810.908 8  -5089224.61845  23970898.072    23970909.3574
  21047124.359    -5651154.093 9  -4387472.85047  21047123.580    21047130.1904
  20392781.737    -2034366.630 9  -1517563.99848  20392780.891    20392788.2044
 01  7 19 16 38  0.0000000  0  9 03 15 26 23 06 22 21 18 17
  24446827.664    -4522426.390 7  -2992145.57245  24446827.144    24446836.6934
  20634919.540    -3848305.206 9  -2855103.72948  20634918.543    20634926.1404
  22090314.765    -3176081.286 8  -2466057.89546  22090314.474    22090322.5584
  20618475.357    -2998661.049 9  -2204773.10148  20618474.507    20618481.8174
  21263162.103     2199546.019 9   1705121.27747  21263161.569    21263169.2214
  22791962.360    -1355594.259 8  -1052674.26246  22791961.213    22791969.6764
  23953215.520    -6647736.761 8  -5161634.27545  23953214.785    23953226.1294
  21035055.645    -5714575.679 9  -4436892.22647  21035054.855    21035061.4794
  20391375.531    -2041756.667 9  -1523322.46748  20391374.655    20391381.8874
 01  7 19 16 38 30.0000000  0  9 03 15 26 23 06 22 21 18 17
  24427294.364    -4625074.828 7  -3072131.30045  24427293.816    24427303.1494
  20627949.868    -3884930.833 9  -2883643.17348  20627948.878    20627956.5474
  22087319.832    -3191819.346 8  -2478321.32546  22087319.577    22087327.6404
  20615361.990    -3015022.087 9  -2217521.95048  20615361.093    20615368.3924
  21275947.755     2266734.776 9   1757476.09347  21275947.208    21275954.8524
  22794485.521    -1342335.288 8  -1042342.63746  22794484.337    22794492.8464
  23935565.487    -6740488.473 8  -5233908.23845  23935564.654    23935575.9534
  21023070.678    -5777556.764 9  -4485968.35747  21023069.902    21023076.5084
  20390021.010    -2048874.616 9  -1528868.91848  20390020.133    20390027.3604
 01  7 19 16 39  0.0000000  0  9 03 15 26 23 06 22 21 18 17
  24407778.494    -4727630.508 7  -3152044.76745  24407778.028    24407787.3524
  20621033.891    -3921274.148 9  -2911962.63748  20621032.926    20621040.6204
  22084444.061    -3206931.929 8  -2490097.36046  22084443.817    22084451.8554
  20612339.327    -3030906.363 9  -2229899.29548  20612338.445    20612345.7304
  21288811.082     2334331.999 9   1810149.21047  21288810.573    21288818.2384
  22797113.537    -1328525.116 8  -1031581.50046  22797112.358    22797120.9304
  23917948.881    -6833064.561 8  -5306045.33745  23917947.950    23917959.2924
  21011169.792    -5840096.303 9  -4534700.42547  21011169.020    21011175.5904
  20388718.257    -2055720.575 9  -1534203.43148  20388717.395    20388724.6574
 01  7 19 16 39 30.0000000  0  9 03 15 26 23 06 22 21 18 17
  24388280.607    -4830092.050 7  -3231884.88045  24388280.005    24388289.4904
  20614171.598    -3957335.726 9  -2940062.55748  20614170.637    20614178.3074
  22081687.271    -3221418.909 8  -2501385.91246  22081687.086    22081695.1084
  20609407.090    -3046315.214 9  -2241906.18048  20609406.215    20609413.4994
  21301751.814     2402335.595 9   1863138.97447  21301751.294    21301758.9594
  22799845.937    -1314166.042 8  -1020392.66346  22799844.766    22799853.3244
  23900365.618    -6925464.522 8  -5378045.19645  23900364.732    23900376.0574
  20999352.975    -5902194.036 9  -4583088.22547  20999352.181    20999358.7354
  20387467.110    -2062295.369 9  -1539326.65448  20387466.261    20387473.5614
 01  7 19 16 40  0.0000000  0  9 03 15 26 23 06 22 21 18 17
  24368800.939    -4932457.386 7  -3311650.02845  24368800.361    24368809.9264
  20607363.011    -3993114.968 9  -2967942.47748  20607362.060    20607369.7004
  22079049.854    -3235278.865 8  -2512185.88546  22079049.672    22079057.7124
  20606565.294    -3061248.786 9  -2253542.72248  20606564.422    20606571.7184
  21314769.659     2470744.929 9   1916444.89747  21314769.172    21314776.8594
  22802682.756    -1299258.833 8  -1008776.69446  22802681.562    22802690.1684
  23882816.250    -7017686.516 8  -5449906.40345  23882815.421    23882826.7234
  20987620.455    -5963848.453 9  -4631130.58947  20987619.673    20987626.2364
  20386267.640    -2068598.505 9  -1544238.19448  20386266.781    20386274.1004
 01  7 19 16 40 30.0000000  0  9 03 15 26 23 06 22 21 18 17
  24349340.425    -5034722.639 7  -3391337.21045  24349339.863    24349349.4614
  20600608.599    -4028610.061 9  -2995600.98348  20600607.636    20600615.2164
  22076532.243    -3248509.123 8  -2522495.16346  22076532.015    22076540.1224
  20603814.177    -3075705.887 9  -2264807.99048  20603813.307    20603820.6114
  21327864.893     2539560.416 9   1970067.29947  21327864.367    21327872.0814
  22805623.981    -1283802.475 8   -996732.81746  22805622.835    22805631.4544
  23865301.323    -7109727.797 8  -5521626.77045  23865300.446    23865311.6914
  20975972.836    -6025056.895 9  -4678825.44347  20975972.087    20975978.6554
  20385120.226    -2074628.361 9  -1548936.78548  20385119.356    20385126.6454
 01  7 19 16 41  0.0000000  0  9 03 15 26 23 06 22 21 18 17
  24329899.104    -5136887.387 7  -3470946.03345  24329898.442    24329908.1254
  20593908.016    -4063822.009 9  -3023038.85448  20593907.045    20593914.6504
  22074134.276    -3261110.339 8  -2532314.28846  22074134.055    22074142.1374
  20601153.378    -3089688.564 9  -2275703.57248  20601152.509    20601159.7914
  21341036.848     2608779.352 9   2024004.07547  21341036.318    21341044.0694
  22808669.250    -1267799.579 8   -984263.06446  22808668.088    22808676.7544
  23847820.656    -7201588.567 8  -5593206.48446  23847819.888    23847831.0694
  20964409.954    -6085820.126 9  -4726173.37847  20964409.182    20964415.7474
  20384024.441    -2080386.532 9  -1553423.67048  20384023.594    20384030.8574
 01  7 19 16 41 30.0000000  0  9 03 15 26 23 06 22 21 18 17
  24310477.569    -5238948.528 7  -3550474.16545  24310476.857    24310486.4904
  20587261.528    -4098749.464 9  -3050255.04648  20587260.546    20587268.2024
  22071856.405    -3273080.658 8  -2541641.80446  22071856.192    22071864.2514
  20598582.945    -3103196.414 9  -2286229.16448  20598582.048    20598589.3064
  21354285.577     2678401.449 9   2078254.99647  21354285.026    21354292.7834
  22811818.438    -1251250.665 8   -971367.85646  22811817.257    22811825.9124
  23830374.834    -7293266.521 8  -5664643.74846  23830374.035    23830385.2194
  20952932.208    -6146136.035 9  -4773172.75047  20952931.417    20952937.9544
  20382980.612    -2085871.952 9  -1557698.03248  20382979.747    20382987.0364
 01  7 19 16 42  0.0000000  0  9 03 15 26 23 06 22 21 18 17
  24291075.834    -5340905.141 7  -3629920.80345  24291075.088    24291084.8124
  20580668.950    -4133393.438 9  -3077250.34548  20580667.980    20580675.6674
  22069698.639    -3284420.260 8  -2550477.84646  22069698.376    22069706.3254
  20596102.519    -3116230.932 9  -2296385.92948  20596101.636    20596108.8914
  21367610.562     2748424.709 9   2132818.51147  21367610.021    21367617.8054
  22815070.984    -1234158.377 8   -958049.22646  22815069.806    22815078.4884
  23812963.740    -7384761.774 8  -5735938.63446  23812962.969    23812974.1764
  20941539.534    -6206004.589 9  -4819823.53447  20941538.754    20941545.2964
  20381988.410    -2091085.607 9  -1561760.62948  20381987.554    20381994.9334
 01  7 19 16 42 30.0000000  0  9 03 15 26 23 06 22 21 18 17
  24271694.361    -5442754.965 7  -3709284.25145  24271693.905    24271703.4054
  20574130.437    -4167753.458 9  -3104024.38048  20574129.467    20574137.1894
  22067661.032    -3295128.025 8  -2558821.55346  22067660.737    22067668.6734
  20593712.149    -3128792.496 9  -2306174.15148  20593711.250    20593718.5034
  21381011.696     2818848.101 9   2187693.82247  21381011.194    21381018.9934
  22818426.874    -1216523.266 8   -944307.62846  22818425.682    22818434.3604
  23795587.886    -7476072.381 8  -5807089.65546  23795587.028    23795598.2504
  20930232.269    -6265424.524 9  -4866124.74247  20930231.482    20930238.0144
  20381048.055    -2096027.350 9  -1565611.34248  20381047.195    20381054.5984
 01  7 19 16 43  0.0000000  0  9 03 15 26 23 06 22 21 18 17
  24252333.970    -5544493.736 7  -3788561.15945  24252333.529    24252343.1584
  20567646.381    -4201827.411 9  -3130575.50248  20567645.415    20567653.0814
  22065744.099    -3305201.092 8  -2566670.68146  22065743.814    22065751.7844
  20591412.035    -3140879.626 9  -2315592.69248  20591411.133    20591418.3914
  21394489.182     2889672.326 9   2242881.47447  21394488.644    21394496.4244
  22821886.256    -1198344.218 8   -930142.18246  22821885.088    22821893.7974
  23778247.673    -7567195.418 8  -5878094.51846  23778246.823    23778258.0464
  20919010.884    -6324393.021 9  -4912074.19348  20919010.121    20919016.6254
  20380159.894    -2100694.975 9  -1569248.45948  20380159.010    20380166.3774
 01  7 19 16 43 30.0000000  0  9 03 15 26 23 06 22 21 18 17
  24232994.546    -5646123.254 7  -3867752.93845  24232994.018    24233003.6664
  20561216.151    -4235618.743 9  -3156906.40248  20561215.167    20561222.7664
  22063947.478    -3314642.521 8  -2574027.61546  22063947.177    22063955.1094
  20589201.391    -3152496.527 9  -2324644.81748  20589200.513    20589207.7514
  21408041.969     2960892.630 9   2298377.75347  21408041.441    21408049.2594
  22825448.212    -1179626.390 8   -915556.91946  22825447.062    22825455.6834
  23760942.679    -7658133.543 8  -5948955.29846  23760941.823    23760952.9904
  20907874.950    -6382912.731 9  -4957673.93948  20907874.180    20907880.6494
  20379323.121    -2105092.321 9  -1572674.97048  20379322.229    20379329.5834
 01  7 19 16 44  0.0000000  0  9 03 15 26 23 06 22 21 18 17
  24213677.162    -5747637.405 8  -3946854.83945  24213676.521    24213686.0144
  20554840.473    -4269123.279 9  -3183013.82448  20554839.481    20554847.0204
  22062271.870    -3323447.567 8  -2580888.68046  22062271.597    22062279.6244
  20587080.886    -3163640.050 9  -2333328.07748  20587080.001    20587087.2294
  21421670.662     3032511.592 9   2354184.67547  21421670.136    21421677.9574
  22829113.126    -1160367.725 8   -900550.20646  22829111.954    22829120.6114
  23743673.702    -7748881.874 8  -6019668.20246  23743672.897    23743684.0084
  20896825.288    -6440978.893 9  -5002920.27048  20896824.539    20896831.0034
  20378538.453    -2109215.471 9  -1575887.81948  20378537.592    20378544.9264
 01  7 19 16 44 30.0000000  0  9 03 15 26 23 06 22 21 18 17
  24194381.554    -5849036.134 8  -4025866.76445  24194380.919    24194390.5454
  20548519.054    -4302342.452 9  -3208898.88248  20548518.047    20548525.5714
  22060717.203    -3331617.334 8  -2587254.71246  22060716.924    22060725.0124
  20585049.942    -3174312.556 9  -2341644.31148  20585049.057    20585056.3164
  21435374.665     3104526.263 9   2410299.93847  21435374.129    21435381.9544
  22832880.341    -1140571.248 8   -885124.41746  22832879.147    22832887.7114
  23726440.883    -7839440.492 8  -6090233.27646  23726440.057    23726451.1794
  20885861.808    -6498592.529 9  -5047813.98248  20885861.019    20885867.4914
  20377805.757    -2113066.120 9  -1578888.33048  20377804.889    20377812.1804
 01  7 19 16 45  0.0000000  0  9 03 15 26 23 06 22 21 18 17
  24175108.317    -5950317.062 8  -4104786.91645  24175107.742    24175117.3434
  20542251.981    -4335275.999 9  -3234561.38048  20542250.976    20542258.5284
  22059283.596    -3339151.128 8  -2593125.19246  22059283.266    22059291.3434
  20583108.534    -3184514.678 9  -2349594.01248  20583107.631    20583114.9014
  21449153.683     3176935.333 9   2466722.52747  21449153.150    21449161.0384
  22836749.723    -1120237.928 8   -869280.32346  22836748.538    22836757.1524
  23709244.387    -7929808.434 8  -6160649.74546  23709243.583    23709254.6184
  20874984.570    -6555752.626 9  -5092354.29148  20874983.809    20874990.2404
  20377124.893    -2116644.232 9  -1581676.47448  20377124.021    20377131.2794
 01  7 19 16 45 30.0000000  0  9 03 15 26 23 06 22 21 18 17
  24155858.147    -6051477.584 8  -4183613.25745  24155857.558    24155867.0994
  20536039.504    -4367922.905 9  -3260000.52448  20536038.496    20536046.0824
  22057971.343    -3346047.399 8  -2598498.88546  22057970.935    22057978.9634
  20581256.687    -3194246.197 9  -2357177.01048  20581255.783    20581263.0574
  21463007.762     3249738.456 9   2523452.17247  21463007.199    21463015.0524
  22840721.073    -1099368.046 8   -853018.12846  22840719.918    22840728.5854
  23692084.679    -8019983.235 8  -6230915.73346  23692083.832    23692094.8404
  20864193.994    -6612457.307 9  -5136539.72448  20864193.230    20864199.6484
  20376496.010    -2119948.979 9  -1584251.61048  20376495.156    20376502.3754
 01  7 19 16 46  0.0000000  0  9 03 15 26 23 06 22 21 18 17
  24136630.998    -6152517.305 8  -4262345.44645  24136630.238    24136639.8704
  20529881.214    -4400284.647 9  -3285217.45548  20529880.230    20529887.8344
  22056780.080    -3352307.352 8  -2603376.75246  22056779.709    22056787.6584
  20579493.929    -3203509.518 9  -2364395.18048  20579493.053    20579500.2954
  21476936.168     3322932.400 9   2580486.34447  21476935.597    21476943.4484
  22844794.011    -1077965.100 8   -836340.54446  22844792.819    22844801.5424
  23674961.614    -8109965.379 8  -6301031.58646  23674960.726    23674971.6774
  20853489.915    -6668707.521 9  -5180371.03148  20853489.160    20853495.5334
  20375918.829    -2122982.090 9  -1586615.08248  20375917.985    20375925.2284
 01  7 19 16 46 30.0000000  0  9 03 15 26 23 06 22 21 18 17
  24117427.472    -6253431.995 8  -4340980.21745  24117426.773    24117436.4564
  20523777.646    -4432359.141 9  -3310210.55848  20523776.645    20523784.2824
  22055710.401    -3357928.173 8  -2607756.59246  22055710.090    22055717.9554
  20577820.544    -3212303.270 9  -2371247.45048  20577819.652    20577826.8864
  21490939.056     3396518.013 9   2637825.71447  21490938.513    21490946.3964
  22848968.346    -1056028.746 8   -819247.33646  22848967.189    22848975.9444
  23657875.586    -8199752.327 8  -6370995.36046  23657874.794    23657885.6354
  20842872.881    -6724500.405 9  -5223845.97448  20842872.110    20842878.4924
  20375393.720    -2125741.461 9  -1588765.25448  20375392.879    20375400.1254
 01  7 19 16 47  0.0000000  0  9 03 15 26 23 06 22 21 18 17
  24098248.329    -6354220.036 8  -4419516.29045  24098247.420    24098257.0604
  20517728.734    -4464146.453 9  -3334979.88248  20517727.733    20517735.3614
  22054762.417    -3362909.845 8  -2611638.39646  22054762.106    22054769.9044
  20576236.285    -3220628.421 9  -2377734.58048  20576235.399    20576242.6404
  21505016.199     3470493.490 9   2695468.87647  21505015.657    21505023.5644
  22853243.850    -1033560.738 8   -801739.84646  22853242.689    22853251.4974
  23640827.123    -8289342.668 8  -6440805.92646  23640826.217    23640837.0194
  20832342.883    -6779835.814 9  -5266964.44248  20832342.120    20832348.5024
  20374920.650    -2128227.503 9  -1590702.44348  20374919.807    20374927.0694
 01  7 19 16 47 30.0000000  0  9 03 15 26 23 06 22 21 18 17
  24079093.586    -6454879.439 8  -4497952.14745  24079092.581    24079102.1024
  20511734.443    -4495646.628 9  -3359525.46448  20511733.432    20511741.0434
  22053936.189    -3367251.978 8  -2615021.85746  22053935.858    22053943.7474
  20574740.999    -3228486.057 9  -2383857.41348  20574740.114    20574747.3724
  21519167.162     3544857.220 9   2753414.57047  21519166.621    21519174.5634
  22857620.368    -1010562.231 8   -783818.97946  22857619.180    22857628.0834
  23623815.894    -8378736.164 8  -6510463.10446  23623815.143    23623825.8944
  20821900.052    -6834712.973 9  -5309725.83648  20821899.299    20821905.6694
  20374499.567    -2130440.442 9  -1592426.82548  20374498.708    20374505.9654
 01  7 19 16 48  0.0000000  0  9 03 15 26 23 06 22 21 18 17
  24059963.658    -6555408.274 8  -4576286.24045  24059962.624    24059971.9964
  20505794.868    -4526859.406 9  -3383847.09948  20505793.864    20505801.4214
  22053231.606    -3370954.331 8  -2617906.76846  22053231.266    22053239.3004
  20573334.552    -3235877.067 9  -2389616.63548  20573333.647    20573340.9164
  21533391.753     3619607.751 9   2811661.66947  21533391.233    21533399.1784
  22862097.534     -987034.879 8   -765486.03146  22862096.380    22862105.2324
  23606842.542    -8467931.685 8  -6579965.99646  23606841.754    23606852.5084
  20811544.620    -6889131.213 9  -5352129.62748  20811543.838    20811550.1964
  20374130.424    -2132380.245 9  -1593938.37048  20374129.584    20374136.8344
 01  7 19 16 48 30.0000000  0  9 03 15 26 23 06 22 21 18 17
  24040858.993    -6655803.797 8  -4654516.47445  24040858.150    24040867.3114
  20499910.199    -4557783.843 9  -3407944.05048  20499909.158    20499916.6884
  22052648.988    -3374015.642 8  -2620292.17546  22052648.689    22052656.7134
  20572016.829    -3242801.646 9  -2395012.40748  20572015.960    20572023.1824
  21547689.855     3694744.473 9   2870209.69047  21547689.325    21547697.2384
  22866675.030     -962980.105 8   -746742.10346  22866673.861    22866682.8024
  23589907.306    -8556927.009 8  -6649312.90646  23589906.458    23589917.1294
  20801276.674    -6943089.401 9  -5394174.94648  20801275.936    20801282.2624
  20373813.377    -2134046.424 9  -1595236.70548  20373812.553    20373819.7714
 01  7 19 16 49  0.0000000  0  9 03 15 26 23 06 22 21 18 17
  24021780.128    -6756063.923 8  -4732641.22445  24021779.258    24021788.1994
  20494080.313    -4588419.889 9  -3431816.28148  20494079.274    20494086.7934
  22052188.378    -3376435.673 8  -2622177.89046  22052188.088    22052196.0844
  20570787.755    -3249260.581 9  -2400045.34348  20570786.891    20570794.1184
  21562061.174     3770265.879 9   2929057.46847  21562060.616    21562068.5454
  22871352.537     -938399.570 8   -727588.50046  22871351.383    22871360.3574
  23573010.197    -8645721.066 8  -6718502.99246  23573009.475    23573020.0824
  20791096.488    -6996586.489 9  -5435860.96148  20791095.714    20791102.0644
  20373548.436    -2135438.928 9  -1596321.78548  20373547.577    20373554.8634
 01  7 19 16 49 30.0000000  0  9 03 15 26 23 06 22 21 18 17
  24002727.193    -6856187.779 8  -4810659.77845  24002726.238    24002735.1734
  20488305.076    -4618768.709 9  -3455464.71048  20488304.052    20488311.5854
  22051849.771    -3378215.127 8  -2623564.45846  22051849.432    22051857.3724
  20569646.886    -3255255.907 9  -2404717.02248  20569646.000    20569653.2384
  21576505.124     3846169.369 8   2988202.97047  21576504.617    21576512.5674
  22876129.689     -913295.685 8   -708027.09046  22876128.536    22876137.5134
  23556151.292    -8734314.516 8  -6787536.75446  23556150.666    23556161.2414
  20781003.953    -7049622.833 9  -5477187.96248  20781003.221    20781009.5744
  20373335.283    -2136559.091 9  -1597194.65648  20373334.424    20373341.7414
 01  7 19 16 50  0.0000000  0  9 03 15 26 23 06 22 21 18 17
  23983701.239    -6956170.439 8  -4888568.31745  23983700.220    23983709.0464
  20482585.148    -4648826.965 9  -3478886.70648  20482584.132    20482591.7364
  22051633.645    -3379350.822 8  -2624449.39946  22051633.272    22051641.2164
  20568594.658    -3260785.358 9  -2409025.68348  20568593.789    20568601.0214
  21591022.193     3922456.569 8   3047647.46247  21591021.636    21591029.6064
  22881006.672     -887666.728 8   -688056.52846  22881005.589    22881014.5314
  23539331.553    -8822702.894 8  -6856410.71446  23539330.881    23539341.4124
  20770999.827    -7102194.946 9  -5518153.21948  20770999.077    20771005.4064
  20373174.517    -2137403.796 9  -1597852.88348  20373173.665    20373181.0134
 01  7 19 16 50 30.0000000  0  9 03 15 26 23 06 22 21 18 17
  23964702.140    -7056011.037 8  -4966366.12945  23964701.233    23964710.0334
  20476920.280    -4678595.707 9  -3502083.12248  20476919.294    20476926.9094
  22051539.845    -3379843.587 8  -2624833.35346  22051539.507    22051547.5294
  20567630.661    -3265851.073 9  -2412972.98548  20567629.786    20567637.0374
  21605611.613     3999124.490 9   3107388.63047  21605611.086    21605619.0924
  22885983.073     -861515.887 8   -667679.30646  22885981.974    22885990.9714
  23522550.849    -8910886.784 8  -6925125.34246  23522550.008    23522560.4714
  20761083.864    -7154303.503 9  -5558757.25848  20761083.111    20761089.4444
  20373065.948    -2137974.416 9  -1598297.52948  20373065.100    20373072.4124
 01  7 19 16 51  0.0000000  0  9 03 15 26 23 06 22 21 18 17
  23945729.814    -7155711.456 8  -5044054.72645  23945728.907    23945737.6444
  20471309.824    -4708078.897 9  -3525057.03948  20471308.858    20471316.4524
  22051567.729    -3379697.264 8  -2624719.32746  22051567.338    22051575.4324
  20566753.967    -3270458.042 9  -2416562.83448  20566753.113    20566760.3384
  21620272.535     4076167.755 9   3167422.26347  21620271.997    21620280.0244
  22891057.575     -834849.465 8   -646900.34946  22891056.472    22891065.4354
  23505808.320    -8998868.795 8  -6993682.67346  23505807.508    23505817.9014
  20751255.480    -7205952.099 9  -5599002.89948  20751254.695    20751261.0214
  20373008.842    -2138274.938 9  -1598531.71948  20373007.980    20373015.2334
 01  7 19 16 51 30.0000000  0  9 03 15 26 23 06 22 21 18 17
  23926786.175    -7255260.551 8  -5121625.40445  23926785.261    23926794.0194
  20465755.516    -4737267.411 9  -3547801.34348  20465754.533    20465762.1054
  22051718.975    -3378902.624 8  -2624100.11546  22051718.583    22051726.6504
  20565966.175    -3274598.133 9  -2419788.89148  20565965.318    20565972.5314
  21635006.221     4153593.742 9   3227754.11247  21635005.757    21635013.8144
  22896231.615     -807659.836 8   -625713.70946  22896230.519    22896239.5294
  23489105.987    -9086638.993 8  -7062074.96146  23489105.341    23489115.7684
  20741516.432    -7257131.022 9  -5638882.57048  20741515.677    20741521.9674
  20373004.830    -2138296.414 9  -1598548.48048  20373003.933    20373011.1804
 01  7 19 16 52  0.0000000  0  9 03 15 26 23 06 22 21 18 17
  23907870.741    -7354661.650 8  -5199080.74345  23907869.827    23907878.6774
  20460256.230    -4766166.478 9  -3570320.10048  20460255.240    20460262.7524
  22051992.490    -3377464.897 8  -2622979.80646  22051992.154    22052000.1934
  20565266.084    -3278277.463 9  -2422655.90448  20565265.203    20565272.3834
  21649811.470     4231395.496 8   3288378.77247  21649811.008    21649819.0484
  22901503.999     -779953.608 8   -604124.50746  22901502.859    22901511.9094
  23472443.499    -9174201.629 8  -7130305.50946  23472442.706    23472453.0834
  20731865.881    -7307845.056 9  -5678399.99148  20731865.128    20731871.4204
  20373052.821    -2138044.304 9  -1598352.05148  20373051.930    20373059.2214
 01  7 19 16 52 30.0000000  0  9 03 15 26 23 06 22 21 18 17
  23888983.877    -7453912.128 8  -5276418.72145  23888983.091    23888992.0204
  20454812.204    -4794775.148 9  -3592612.57548  20454811.199    20454818.6984
  22052388.651    -3375383.143 8  -2621357.65046  22052388.359    22052396.3224
  20564653.554    -3281496.458 9  -2425164.21848  20564652.667    20564659.8284
  21664688.061     4309572.144 8   3349295.56747  21664687.618    21664695.6764
  22906874.464     -751731.949 8   -582133.69146  22906873.322    22906882.4144
  23455820.697    -9261555.099 8  -7198373.06146  23455819.844    23455830.1814
  20722304.069    -7358092.775 9  -5717554.05148  20722303.328    20722309.5784
  20373152.985    -2137517.919 9  -1597941.90548  20373152.110    20373159.3964
 01  7 19 16 53  0.0000000  0  9 03 15 26 23 06 22 21 18 17
  23870126.088    -7553010.319 8  -5353638.05045  23870125.326    23870134.2114
  20449423.317    -4823093.771 9  -3614679.03148  20449422.339    20449429.8334
  22052907.302    -3372657.894 8  -2619234.07046  22052907.000    22052914.8494
  20564128.338    -3284256.642 9  -2427315.01048  20564127.421    20564134.6144
  21679635.749     4388121.747 8   3410502.96747  21679635.211    21679643.2334
  22912342.534     -722997.622 8   -559743.38246  22912341.387    22912350.3944
  23439237.603    -9348698.854 8  -7266277.20646  23439236.844    23439247.1774
  20712830.962    -7407874.355 9  -5756344.88048  20712830.216    20712836.4584
  20373305.250    -2136717.900 9  -1597318.53448  20373304.345    20373311.6084
 01  7 19 16 53 30.0000000  0  9 03 15 26 23 06 22 21 18 17
  23851298.419    -7651949.783 8  -5430733.66145  23851297.750    23851306.5814
  20444090.525    -4851117.767 9  -3636515.89348  20444089.541    20444097.0224
  22053549.196    -3369284.627 8  -2616605.52046  22053548.926    22053556.7144
  20563691.003    -3286554.723 9  -2429105.70748  20563690.124    20563697.2984
  21694654.688     4467046.829 9   3472002.97147  21694654.193    21694662.2054
  22917908.515     -693748.288 8   -536951.76046  22917907.412    22917916.3574
  23422695.456    -9435627.759 8  -7334013.91646  23422694.706    23422705.0014
  20703447.429    -7457184.971 9  -5794768.70548  20703446.682    20703452.9294
  20373510.386    -2135639.961 9  -1596478.58348  20373509.503    20373516.7554
 01  7 19 16 54  0.0000000  0  9 03 15 26 23 06 22 21 18 17
  23832499.764    -7750736.779 8  -5507710.45945  23832499.154    23832508.0384
  20438812.210    -4878855.310 9  -3658129.54648  20438811.245    20438818.6914
  22054312.818    -3365271.822 8  -2613478.63346  22054312.557    22054320.3154
  20563339.823    -3288400.021 9  -2430543.58648  20563338.927    20563346.1104
  21709743.319     4546337.592 8   3533787.92547  21709742.758    21709750.8214
  22923570.707     -663993.625 8   -513766.35646  22923569.563    22923578.5644
  23406192.731    -9522349.793 8  -7401589.41646  23406191.970    23406202.2464
  20694152.114    -7506032.154 9  -5832831.41448  20694151.377    20694157.5964
  20373766.833    -2134292.379 9  -1595428.51648  20373765.955    20373773.1994
 01  7 19 16 54 30.0000000  0  9 03 15 26 23 06 22 21 18 17
  23813731.679    -7849362.912 8  -5584561.91445  23813731.117    23813740.0984
  20433589.625    -4906300.242 9  -3679515.18648  20433588.641    20433596.1094
  22055199.364    -3360613.056 8  -2609848.41046  22055199.133    22055206.9414
  20563075.814    -3289787.231 9  -2431624.51348  20563074.929    20563082.1494
  21724902.333     4625998.805 8   3595861.52947  21724901.833    21724909.9234
  22929329.908     -633729.047 8   -490183.63446  22929328.786    22929337.7514
  23389730.850    -9608857.149 8  -7468997.64746  23389730.057    23389740.3684
  20684946.165    -7554409.711 9  -5870528.18148  20684945.430    20684951.6384
  20374075.705    -2132669.109 9  -1594163.62948  20374074.851    20374082.0924
 01  7 19 16 55  0.0000000  0  9 03 15 26 23 06 22 21 18 17
  23794994.661    -7947826.995 8  -5661287.10045  23794993.919    23795002.9654
  20428422.525    -4933453.372 9  -3700673.45748  20428421.568    20428429.0494
  22056208.655    -3355309.217 8  -2605715.53646  22056208.405    22056216.2634
  20562898.651    -3290718.243 9  -2432349.96748  20562897.762    20562904.9644
  21740131.403     4706027.789 8   3658221.70847  21740130.910    21740139.0274
  22935185.654     -602957.517 8   -466205.88746  22935184.442    22935193.4824
  23373309.878    -9695149.417 8  -7536238.28746  23373309.125    23373319.4324
  20675829.571    -7602317.666 9  -5907859.02548  20675828.822    20675835.0574
  20374436.894    -2130770.969 9  -1592684.57048  20374436.041    20374443.3004
 01  7 19 16 55 30.0000000  0  9 03 15 26 23 06 22 21 18 17
  23776288.852    -8046126.026 8  -5737883.67845  23776288.188    23776297.1494
  20423311.237    -4960313.482 9  -3721603.39948  20423310.267    20423317.7514
  22057340.847    -3349359.562 8  -2601079.41446  22057340.631    22057348.4104
  20562808.247    -3291193.288 9  -2432720.12148  20562807.355    20562814.5454
  21755430.316     4786423.923 8   3720867.97347  21755429.829    21755437.9794
  22941137.512     -571680.495 8   -441834.24846  22941136.272    22941145.3184
  23356930.142    -9781225.311 8  -7603310.30646  23356929.364    23356939.6684
  20666802.566    -7649754.711 9  -5944822.92048  20666801.801    20666808.0554
  20374850.590    -2128597.188 9  -1590990.71748  20374849.705    20374856.9834
 01  7 19 16 56  0.0000000  0  9 03 15 26 23 06 22 21 18 17
  23757615.141    -8144256.506 8  -5814348.95645  23757614.546    23757623.5894
  20418256.029    -4986878.913 9  -3742303.73448  20418255.046    20418262.5324
  22058596.281    -3342762.396 8  -2595938.73746  22058596.012    22058603.7414
  20562804.711    -3291211.841 9  -2432734.57348  20562803.837    20562811.0044
  21770799.066     4867187.094 8   3783800.23847  21770798.600    21770806.7854
  22947185.594     -539898.177 8   -417068.87246  22947184.345    22947193.3964
  23340592.038    -9867082.467 8  -7670211.89946  23340591.225    23340601.5514
  20657865.528    -7696719.024 9  -5981418.46748  20657864.788    20657871.0194
  20375317.001    -2126146.334 9  -1589080.97548  20375316.132    20375323.3834
 01  7 19 16 56 30.0000000  0  9 03 15 26 23 06 22 21 18 17
  23738973.122    -8242220.737 8  -5890684.67145  23738972.522    23738981.5384
  20413256.085    -5013153.838 9  -3762777.68348  20413255.088    20413262.5634
  22059973.968    -3335522.397 8  -2590297.15446  22059973.668    22059981.4074
  20562887.030    -3290779.297 9  -2432397.51348  20562886.150    20562893.3184
  21786236.650     4948311.474 8   3847013.97347  21786236.132    21786244.3194
  22953328.719     -507616.343 8   -391914.24746  22953327.522    22953336.5044
  23324294.922    -9952723.750 8  -7736945.25946  23324294.128    23324304.4674
  20649017.733    -7743214.406 9  -6017648.60348  20649016.993    20649023.2054
  20375835.317    -2123422.521 9  -1586958.52948  20375834.503    20375841.7424
 01  7 19 16 57  0.0000000  0  9 03 15 26 23 06 22 21 18 17
  23720363.886    -8340013.296 8  -5966886.60845  23720363.184    23720372.2304
  20408312.030    -5039134.892 9  -3783022.64948  20408311.050    20408318.5324
  22061474.547    -3327636.324 8  -2584152.14646  22061474.279    22061482.0504
  20563055.590    -3289893.461 9  -2431707.24048  20563054.694    20563061.9024
  21801743.158     5029798.594 8   3910510.36347  21801742.648    21801750.8454
  22959567.110     -474833.597 8   -366369.31446  22959565.913    22959574.8484
  23308039.727   -10038145.111 8  -7803507.26846  23308038.901    23308049.2094
  20640259.907    -7789237.127 9  -6053510.44548  20640259.176    20640265.3844
  20376406.174    -2120422.802 9  -1584621.09248  20376405.328    20376412.6234
 01  7 19 16 57 30.0000000  0  9 03 15 26 23 06 22 21 18 17
  23701787.583    -8437632.331 8  -6042953.33445  23701786.895    23701795.8674
  20403423.854    -5064822.280 9  -3803038.78648  20403422.894    20403430.3384
  22063098.002    -3319104.671 8  -2577504.08446  22063097.735    22063105.5354
  20563310.103    -3288555.945 9  -2430665.01248  20563309.217    20563316.4054
  21817318.320     5111646.331 8   3974287.73947  21817317.795    21817325.9624
  22965900.300     -441552.764 8   -340436.27046  22965899.119    22965908.1294
  23291826.450   -10123346.154 8  -7869897.60446  23291825.635    23291835.8704
  20631592.036    -7834787.150 9  -6089003.94048  20631591.267    20631597.4924
  20377029.355    -2117147.485 9  -1582068.90348  20377028.547    20377035.8884
 01  7 19 16 58  0.0000000  0  9 03 15 26 23 06 22 21 18 17
  23683244.618    -8535075.538 8  -6118883.05545  23683243.942    23683253.0514
  20398591.629    -5090215.814 9  -3822825.94548  20398590.650    20398598.0784
  22064844.352    -3309927.717 8  -2570353.18646  22064844.047    22064851.7784
  20563650.388    -3286767.757 9  -2429271.61148  20563649.502    20563656.6904
  21832961.825     5193853.131 8   4038344.91347  21832961.295    21832969.4994
  22972327.895     -407775.986 8   -314116.76446  22972326.709    22972335.6644
  23275655.336   -10208325.719 8  -7936115.35046  23275654.540    23275664.7384
  20623014.156    -7879863.981 9  -6124128.71848  20623013.405    20623019.6294
  20377705.119    -2113596.456 9  -1579301.87748  20377704.309    20377711.6264
 01  7 19 16 58 30.0000000  0  9 03 15 26 23 06 22 21 18 17
  23664735.692    -8632340.176 8  -6194673.62845  23664735.005    23664744.1994
  20393815.435    -5115314.725 9  -3842383.53048  20393814.456    20393821.9034
  22066713.563    -3300104.954 8  -2562699.08146  22066713.252    22066720.9804
  20564076.362    -3284529.289 9  -2427527.34548  20564075.487    20564082.6614
  21848673.421     5276417.765 8   4102680.91147  21848672.868    21848681.0864
  22978849.604     -373504.289 8   -287411.63546  22978848.444    22978857.3814
  23259526.640   -10293082.385 8  -8002159.40146  23259525.815    23259535.9514
  20614526.507    -7924467.030 9  -6158884.31548  20614525.741    20614531.9234
  20378433.438    -2109769.232 9  -1576319.63348  20378432.615    20378439.8984
 01  7 19 16 59  0.0000000  0  9 03 15 26 23 06 22 21 18 17
  23646261.131    -8729424.534 8  -6270323.73845  23646260.374    23646269.6164
  20389095.251    -5140119.321 9  -3861711.77748  20389094.284    20389101.7204
  22068705.474    -3289637.085 8  -2554542.30046  22068705.144    22068712.9544
  20564587.778    -3281842.137 9  -2425433.45348  20564586.873    20564594.0124
  21864452.671     5359338.206 8   4167294.16947  21864452.184    21864460.4264
  22985465.116     -338739.753 8   -260322.44346  22985463.994    22985472.9694
  23243440.452   -10377615.702 8  -8068029.41246  23243439.621    23243449.6994
  20606128.997    -7968596.115 9  -6193270.58448  20606128.254    20606134.3954
  20379214.240    -2105666.263 9  -1573122.52348  20379213.384    20379220.6404
 01  7 19 16 59 30.0000000  0  9 03 15 26 23 06 22 21 18 17
  23627821.332    -8826325.803 8  -6345831.17045  23627820.601    23627829.9294
  20384431.252    -5164628.620 9  -3880809.92648  20384430.292    20384437.7274
  22070820.253    -3278523.573 8  -2545882.41046  22070819.979    22070827.7844
  20565184.415    -3278706.728 9  -2422990.27148  20565183.500    20565190.6394
  21880299.571     5442613.498 8   4232183.92947  21880299.014    21880307.2574
  22992174.162     -303483.802 8   -232850.32846  22992173.000    22992181.9844
  23227397.015   -10461924.394 8  -8133724.39346  23227396.188    23227406.1344
  20597821.893    -8012250.194 9  -6227286.72748  20597821.155    20597827.2794
  20380047.625    -2101286.916 9  -1569710.05348  20380046.777    20380054.0044
 01  7 19 17  0  0.0000000  0  9 03 15 26 23 06 22 21 18 17
  23609416.551    -8923042.202 8  -6421194.54945  23609415.982    23609425.3554
  20379823.504    -5188842.649 9  -3899677.99448  20379822.542    20379829.9404
  22073057.916    -3266765.239 8  -2536720.06446  22073057.640    22073065.2854
  20565866.014    -3275124.578 9  -2420198.97548  20565865.118    20565872.2964
  21896213.429     5526241.324 8   4297348.39447  21896212.917    21896221.2064
  22998976.199     -267739.343 8   -204997.56846  22998975.030    22998984.0534
  23211396.451   -10546007.609 8  -8199243.67846  23211395.665    23211405.5074
  20589605.160    -8055429.320 9  -6260932.76948  20589604.403    20589610.5414
  20380933.551    -2096631.353 9  -1566082.35248  20380932.724    20380939.9404
 01  7 19 17  0 30.0000000  0  9 03 15 26 23 06 22 21 18 17
  23591047.620    -9019571.235 8  -6496411.92545  23591047.158    23591056.4664
  20375272.040    -5212760.934 9  -3918315.61748  20375271.073    20375278.4554
  22075418.243    -3254361.970 8  -2527055.17446  22075417.956    22075425.5354
  20566632.546    -3271096.484 9  -2417060.19648  20566631.647    20566638.8324
  21912194.173     5610220.416 8   4362786.57147  21912193.664    21912201.9444
  23005870.835     -231508.182 8   -176765.55546  23005869.688    23005878.6864
  23195439.095   -10629863.959 8  -8264586.20246  23195438.253    23195448.1054
  20581478.925    -8098132.872 9  -6294208.24048  20581478.149    20581484.2944
  20381872.049    -2091699.575 9  -1562239.42148  20381871.214    20381878.4214
 01  7 19 17  1  0.0000000  0  9 03 15 26 23 06 22 21 18 17
  23572714.877    -9115910.638 8  -6571481.55245  23572714.309    23572723.6144
  20370776.798    -5236383.468 9  -3936722.78548  20370775.825    20370783.2394
  22077901.188    -3241314.103 8  -2516888.00446  22077900.877    22077908.4674
  20567483.660    -3266623.733 9  -2413574.93048  20567482.768    20567489.9494
  21928241.495     5694549.055 8   4428497.11347  21928240.935    21928249.2384
  23012857.770     -194791.910 8   -148155.54746  23012856.621    23012865.6164
  23179524.832   -10713493.191 8  -8329751.75046  23179524.030    23179533.9184
  20573443.222    -8140360.542 9  -6327112.89748  20573442.462    20573448.6014
  20382863.154    -2086491.384 9  -1558181.10248  20382862.318    20382869.5254
 01  7 19 17  1 30.0000000  0  9 03 15 26 23 06 22 21 18 17
  23554418.660    -9212057.611 8  -6646401.21345  23554418.155    23554427.4204
  20366338.009    -5259709.570 9  -3954898.96448  20366337.038    20366344.4464
  22080506.725    -3227621.489 8  -2506218.44246  22080506.444    22080514.1084
  20568419.309    -3261706.797 9  -2409743.54148  20568418.420    20568425.5894
  21944355.020     5779226.045 8   4494479.09647  21944354.469    21944362.8164
  23019936.821     -157591.744 8   -119168.47246  23019935.630    23019944.6114
  23163654.151   -10796893.459 8  -8394738.87646  23163653.397    23163663.2984
  20565498.297    -8182111.333 9  -6359645.96148  20565497.542    20565503.6664
  20383906.955    -2081006.262 9  -1553906.99048  20383906.105    20383913.3294
 01  7 19 17  2  0.0000000  0  9 03 15 26 23 06 22 21 18 17
  23536159.485    -9308010.016 8  -6721169.26945  23536158.966    23536168.2414
  20361955.700    -5282738.939 9  -3972843.92248  20361954.722    20361962.1604
  22083234.866    -3213284.596 8  -2495046.84546  22083234.645    22083242.3114
  20569439.276    -3256346.777 9  -2405566.89748  20569438.414    20569445.5464
  21960534.597     5864249.817 8   4560731.30647  21960534.029    21960542.4034
  23027107.424     -119910.230 8    -89806.31246  23027106.236    23027115.2774
  23147827.317   -10880063.944 8  -8459546.94646  23147826.483    23147836.4384
  20557644.162    -8223385.199 9  -6391807.39348  20557643.390    20557649.5014
  20385003.398    -2075244.211 9  -1549417.09048  20385002.606    20385009.8054
 01  7 19 17  2 30.0000000  0  9 03 15 26 23 06 22 21 18 17
  23517937.798    -9403765.773 8  -6795784.11146  23517937.231    23517946.4964
  20357629.834    -5305471.560 9  -3990557.64748  20357628.837    20357636.3024
  22086085.698    -3198303.768 8  -2483373.47646  22086085.431    22086093.0524
  20570543.313    -3250545.117 9  -2401046.11848  20570542.420    20570549.5604
  21976779.793     5949618.551 8   4627252.31347  21976779.222    21976787.6064
  23034369.168      -81749.945 8    -60071.11146  23034367.959    23034376.9544
  23132044.297   -10963003.424 8  -8524175.02546  23132043.530    23132053.4654
  20549880.798    -8264181.845 9  -6423596.96448  20549880.024    20549886.1514
  20386152.593    -2069205.219 9  -1544711.39048  20386151.801    20386158.9864
 01  7 19 17  3  0.0000000  0  9 03 15 26 23 06 22 21 18 17
  23499753.992    -9499322.662 8  -6870243.97846  23499753.320    23499762.5474
  20353360.443    -5327907.096 9  -4008039.87948  20353359.482    20353366.9144
  22089058.897    -3182679.413 8  -2471198.66346  22089058.653    22089066.3004
  20571731.163    -3244302.987 9  -2396182.11148  20571730.287    20571737.3734
  21993090.317     6035330.347 8   4694040.64047  21993089.721    21993098.1064
  23041721.584      -43112.666 8    -29964.21346  23041720.379    23041729.4794
  23116305.287   -11045711.692 8  -8588622.94346  23116304.576    23116314.5484
  20542208.308    -8304501.018 9  -6455014.48048  20542207.536    20542213.6534
  20387354.544    -2062889.183 9  -1539789.81648  20387353.709    20387360.8794
 01  7 19 17  3 30.0000000  0  9 03 15 26 23 06 22 21 18 17
  23481608.531    -9594677.787 8  -6944546.61146  23481607.852    23481617.0244
  20349147.742    -5350044.842 9  -4025290.06848  20349146.779    20349154.2124
  22092154.511    -3166411.519 8  -2458522.38546  22092154.310    22092161.9784
  20573002.706    -3237620.947 9  -2390975.32648  20573001.827    20573008.9254
  22009465.814     6121383.946 8   4761095.31347  22009465.254    22009473.6304
  23049164.608       -3999.524 8       513.49346  23049163.426    23049172.5654
  23100610.715   -11128186.756 8  -8652889.12446  23100609.971    23100619.9484
  20534626.828    -8344341.801 9  -6486059.22248  20534626.044    20534632.1834
  20388609.274    -2056295.677 9  -1534652.01948  20388608.420    20388615.6174
 01  7 19 17  4  0.0000000  0  9 03 15 26 23 06 22 21 18 17
  23463501.793    -9689829.150 8  -7018690.48346  23463501.116    23463510.2154
  20344991.778    -5371884.525 9  -4042307.99548  20344990.816    20344998.2394
  22095372.480    -3149500.872 8  -2445345.27446  22095372.262    22095379.9374
  20574357.710    -3230500.462 9  -2385426.89148  20574356.819    20574363.9114
  22025906.030     6207777.485 8   4828414.86447  22025905.463    22025913.8264
  23056697.734       35586.940 8     31360.01146  23056696.521    23056705.6954
  23084960.674   -11210427.843 8  -8716972.99946  23084959.925    23084969.8764
  20527136.360    -8383704.283 9  -6516731.26448  20527135.570    20527141.7334
  20389916.774    -2049424.796 9  -1529298.08948  20389915.945    20389923.1494
 01  7 19 17  4 30.0000000  0  9 03 15 26 23 06 22 21 18 17
  23445434.363    -9784774.529 8  -7092673.85146  23445433.614    23445442.6584
  20340892.572    -5393425.971 9  -4059093.53248  20340891.614    20340899.0094
  22098712.589    -3131947.908 8  -2431667.65446  22098712.400    22098720.0804
  20575795.860    -3222942.752 9  -2379537.76848  20575794.994    20575802.0724
  22042410.586     6294509.190 8   4895997.92447  22042410.017    22042418.3884
  23064320.395       75644.156 8     62573.33846  23064319.184    23064328.4674
  23069355.319   -11292434.478 8  -8780874.17146  23069354.529    23069364.4204
  20519736.940    -8422588.466 9  -6547030.60448  20519736.152    20519742.3284
  20391277.007    -2042276.653 9  -1523728.11048  20391276.183    20391283.4124
 01  7 19 17  5  0.0000000  0  9 03 15 26 23 06 22 21 18 17
  23427406.552    -9879510.670 8  -7166494.16945  23427405.884    23427414.8574
  20336850.292    -5414668.316 9  -4075645.99548  20336849.332    20336856.6994
  22102175.151    -3113752.484 8  -2417489.40046  22102174.953    22102182.5254
  20577317.203    -3214948.104 9  -2373308.17248  20577316.330    20577323.3914
  22058979.338     6381578.159 8   4963843.79647  22058978.757    22058987.1814
  23072032.313      116170.568 8     94152.28446  23072031.105    23072040.4374
  23053794.804   -11374205.115 8  -8844591.45446  23053794.021    23053803.8844
  20512428.739    -8460993.036 9  -6576956.21948  20512427.992    20512434.1754
  20392690.233    -2034850.286 9  -1517941.33448  20392689.415    20392696.6394
 01  7 19 17  5 30.0000000  0  9 03 15 26 23 06 22 21 18 17
  23409418.833    -9974035.909 8  -7240150.14246  23409418.207    23409427.2614
  20332864.819    -5435612.164 9  -4091965.86448  20332863.851    20332871.1964
  22105759.764    -3094915.720 8  -2402811.41046  22105759.511    22105767.0874
  20578921.337    -3206518.538 9  -2366739.67748  20578920.460    20578927.4894
  22075611.681     6468981.803 8   5031950.44247  22075611.152    22075619.6244
  23079833.142      157163.997 8    126095.14446  23079831.985    23079841.3404
  23038279.301   -11455739.420 8  -8908124.58246  23038278.512    23038288.3194
  20505211.751    -8498918.473 9  -6606508.48748  20505210.988    20505217.1404
  20394156.312    -2027146.259 9  -1511938.19748  20394155.460    20394162.6484
 01  7 19 17  6  0.0000000  0  9 03 15 26 23 06 22 21 18 17
  23391471.906   -10068347.750 8  -7313639.82646  23391471.242    23391480.3034
  20328936.223    -5456256.781 9  -4108052.56448  20328935.281    20328942.6304
  22109466.318    -3075437.643 8  -2387633.68946  22109466.075    22109473.6594
  20580608.093    -3197654.689 9  -2359832.78248  20580607.202    20580614.2264
  22092307.521     6556719.033 8   5100317.03647  22092307.044    22092315.5584
  23087722.487      198622.882 8    158400.70346  23087721.403    23087730.7644
  23022809.000   -11537036.262 8  -8971472.67746  23022808.211    23022817.9824
  20498086.054    -8536364.212 9  -6635686.96348  20498085.311    20498091.4424
  20395675.261    -2019164.082 9  -1505718.31748  20395674.428    20395681.6214
 01  7 19 17  6 30.0000000  0  9 03 15 26 23 06 22 21 18 17
  23373565.853   -10162444.010 8  -7386961.53646  23373565.307    23373574.3674
  20325064.816    -5476601.655 9  -4123905.70648  20325063.841    20325071.1374
  22113294.735    -3055318.978 8  -2371956.83446  22113294.504    22113302.1184
  20582377.182    -3188358.006 9  -2352588.61448  20582376.297    20582383.3114
  22109066.557     6644787.978 8   5168942.08947  22109066.042    22109074.6104
  23095700.027      240544.504 8    191066.81446  23095698.920    23095708.2234
  23007384.156   -11618094.218 8  -9034634.63046  23007383.310    23007393.1454
  20491051.628    -8573330.126 9  -6664491.55548  20491050.891    20491057.0284
  20397247.135    -2010903.790 9  -1499281.73148  20397246.310    20397253.5154
 01  7 19 17  7  0.0000000  0  9 03 15 26 23 06 22 21 18 17
  23355701.364   -10256322.193 8  -7460113.30846  23355700.825    23355709.9524
  20321250.403    -5496646.599 9  -4139525.13748  20321249.442    20321256.6884
  22117245.086    -3034560.303 8  -2355781.24646  22117244.819    22117252.3904
  20584228.415    -3178629.649 9  -2345008.07348  20584227.536    20584234.5604
  22125888.218     6733186.644 8   5237824.08147  22125887.806    22125896.4174
  23103765.124      282926.417 8    224091.60046  23103764.057    23103773.3204
  22992004.828   -11698912.722 8  -9097610.00246  22992003.987    22992013.8094
  20484108.639    -8609815.785 9  -6692921.91948  20484107.887    20484114.0224
  20398871.967    -2002365.218 9  -1492628.30248  20398871.175    20398878.3644
 01  7 19 17  7 30.0000000  0  9 03 15 26 23 06 22 21 18 17
  23337878.805   -10349979.986 8  -7533093.35646  23337878.343    23337887.3894
  20317493.152    -5516391.201 9  -4154910.53348  20317492.163    20317499.4474
  22121317.122    -3013162.225 8  -2339107.42846  22121316.811    22121324.3254
  20586161.550    -3168470.675 9  -2337091.98848  20586160.678    20586167.7284
  22142772.491     6821913.576 8   5306961.86147  22142772.028    22142780.6574
  23111917.522      325766.898 8    257473.72846  23111916.383    23111925.7224
  22976671.198   -11779490.949 8  -9160398.14846  22976670.392    22976680.2294
  20477257.051    -8645821.011 9  -6720977.91848  20477256.310    20477262.4364
  20400549.841    -1993547.995 9  -1485757.74248  20400549.014    20400556.2404
 01  7 19 17  8  0.0000000  0  9 03 15 26 23 06 22 21 18 17
  23320098.667   -10443415.306 8  -7605900.03746  23320098.142    23320107.2554
  20313793.014    -5535835.532 9  -4170061.95148  20313792.025    20313799.3714
  22125510.673    -2991125.475 8  -2321935.93346  22125510.328    22125517.8684
  20588176.409    -3157882.629 9  -2328841.55948  20588175.533    20588182.5924
  22159718.821     6910966.720 8   5376353.82347  22159718.366    22159726.9844
  23120156.674      369063.768 8    291211.48046  23120155.569    23120164.8764
  22961383.374   -11859828.511 8  -9222998.76846  22961382.546    22961392.3694
  20470496.856    -8681346.064 9  -6748659.75348  20470496.110    20470502.2524
  20402280.629    -1984452.404 9  -1478670.26448  20402279.836    20402287.0864
 01  7 19 17  8 30.0000000  0  9 03 15 26 23 06 22 21 18 17
  23302361.332   -10536625.125 8  -7678531.01446  23302360.811    23302369.9224
  20310150.188    -5554978.550 9  -4184978.58148  20310149.206    20310156.6064
  22129825.555    -2968450.247 8  -2304266.94846  22129825.191    22129832.8284
  20590272.789    -3146866.072 9  -2320257.23248  20590271.931    20590278.9884
  22176726.966     7000344.848 8   5445999.01447  22176726.532    22176735.1474
  23128482.405      412815.456 8    325303.64346  23128481.325    23128490.5974
  22946141.737   -11939923.447 8  -9285410.32646  22946140.917    22946150.7004
  20463828.184    -8716390.012 9  -6775966.70148  20463827.437    20463833.5684
  20404064.548    -1975077.765 9  -1471365.35248  20404063.741    20404071.0254
 01  7 19 17  9  0.0000000  0  9 03 15 26 23 06 22 21 18 17
  23284667.490   -10629606.854 8  -7750984.25646  23284666.951    23284676.0364
  20306564.764    -5573819.914 9  -4199660.15148  20306563.779    20306571.2164
  22134261.773    -2945137.138 8  -2286100.89346  22134261.500    22134269.2244
  20592450.494    -3135422.188 9  -2311339.91448  20592449.614    20592456.6814
  22193796.734     7090046.307 8   5515896.17846  22193796.224    22193804.8634
  23136894.189      457019.193 8    359748.07246  23136893.072    23136902.3674
  22930946.423   -12019774.755 8  -9347632.05346  22930945.667    22930955.4254
  20457251.056    -8750952.816 9  -6802898.73248  20457250.310    20457256.4574
  20405901.673    -1965423.792 9  -1463842.77548  20405900.839    20405908.1304
 01  7 19 17  9 30.0000000  0  9 03 15 26 23 06 22 21 18 17
  23267017.408   -10722358.605 8  -7823258.29146  23267016.840    23267025.9134
  20303036.771    -5592359.672 9  -4214106.70748  20303035.761    20303043.2254
  22138819.277    -2921187.473 8  -2267438.80746  22138818.995    22138826.7174
  20594709.164    -3123552.686 9  -2302090.95248  20594708.280    20594715.3734
  22210927.507     7180068.796 8   5586043.48546  22210927.015    22210935.6464
  23145391.507      501672.233 8    394542.59646  23145390.330    23145399.6664
  22915797.506   -12099382.520 8  -9409664.00046  22915796.744    22915806.4654
  20450765.465    -8785034.770 9  -6829456.07748  20450764.730    20450770.8864
  20407791.858    -1955490.796 9  -1456102.78348  20407791.040    20407798.2864
 01  7 19 17 10  0.0000000  0  9 03 15 26 23 06 22 21 18 17
  23249411.644   -10814877.629 8  -7895350.96446  23249411.058    23249420.1884
  20299566.302    -5610597.140 9  -4228317.71448  20299565.293    20299572.7494
  22143497.873    -2896601.362 8  -2248280.79246  22143497.576    22143505.2874
  20597048.721    -3111258.250 9  -2292510.87048  20597047.840    20597054.9214
  22228119.120     7270411.030 8   5656439.94046  22228118.633    22228127.2664
  23153973.975      546773.160 8    429686.10546  23153972.888    23153982.1904
  22900695.330   -12178744.924 8  -9471504.75446  22900694.479    22900704.1944
  20444371.570    -8818634.876 9  -6855637.95548  20444370.827    20444376.9734
  20409735.220    -1945278.320 9  -1448145.01148  20409734.405    20409741.6694
 01  7 19 17 10 30.0000000  0  9 03 15 26 23 06 22 21 18 17
  23231850.501   -10907161.831 8  -7967260.69046  23231849.905    23231858.9934
  20296153.258    -5628532.463 9  -4242293.28548  20296152.266    20296159.7294
  22148297.258    -2871380.126 8  -2228627.88246  22148296.983    22148304.7514
  20599468.791    -3098540.689 9  -2282601.08448  20599467.925    20599475.0294
  22245371.308     7361070.783 8   5727083.79246  22245370.740    22245379.3574
  23162641.253      592319.736 8    465176.90046  23162640.128    23162649.5244
  22885639.687   -12257862.057 8  -9533154.39646  22885638.962    22885648.5704
  20438069.208    -8851753.797 9  -6881444.88648  20438068.490    20438074.6174
  20411731.789    -1934786.408 9  -1439969.49648  20411730.943    20411738.2044
 01  7 19 17 11  0.0000000  0  9 03 15 26 23 06 22 21 18 17
  23214334.581   -10999208.634 8  -8038985.42146  23214333.961    23214342.9614
  20292797.934    -5646164.858 9  -4256032.81048  20292796.929    20292804.3694
  22153217.418    -2845524.092 8  -2208480.30646  22153217.196    22153224.9724
  20601969.261    -3085400.749 9  -2272362.16448  20601968.384    20601975.4854
  22262683.387     7452046.583 8   5797973.93946  22262682.905    22262691.5684
  23171392.834      638309.642 8    501013.12946  23171391.719    23171401.1834
  22870631.141   -12336732.409 8  -9594611.73746  22870630.412    22870639.9444
  20431858.565    -8884391.056 9  -6906876.49148  20431857.819    20431863.9334
  20413781.585    -1924014.673 9  -1431575.93448  20413780.734    20413787.9954
 01  7 19 17 11 30.0000000  0  9 03 15 26 23 06 22 21 18 17
  23196864.350   -11091015.216 8  -8110522.95846  23196863.725    23196872.7304
  20289500.345    -5663493.653 9  -4269535.76448  20289499.362    20289506.7464
  22158258.447    -2819033.683 8  -2187838.40746  22158258.147    22158265.8764
  20604549.913    -3071839.363 9  -2261794.85048  20604549.057    20604556.1414
  22280055.530     7543337.309 8   5869109.47046  22280055.019    22280063.7074
  23180228.345      684740.573 8    537193.03246  23180227.243    23180236.6804
  22855669.838   -12415354.474 8  -9655875.60546  22855669.080    22855678.5974
  20425739.641    -8916546.068 9  -6931932.32548  20425738.905    20425744.9804
  20415884.686    -1912962.563 9  -1422963.90748  20415883.848    20415891.1274
 01  7 19 17 12  0.0000000  0  9 03 15 26 23 06 22 21 18 17
  23179440.171   -11182579.815 8  -8181871.95846  23179439.488    23179448.4714
  20286260.413    -5680519.419 9  -4282802.59548  20286259.455    20286266.8164
  22163419.649    -2791910.722 8  -2166703.61846  22163419.395    22163427.1334
  20607210.341    -3057858.771 9  -2250900.87948  20607209.476    20607216.5524
  22297487.021     7634939.884 8   5940488.00546  22297486.521    22297495.1904
  23189147.243      731609.478 8    573714.20546  23189146.128    23189155.6514
  22840755.730   -12493728.382 8  -9716946.11346  22840754.965    22840764.4414
  20419712.358    -8948219.785 9  -6956613.12148  20419711.618    20419717.6554
  20418041.019    -1901630.822 9  -1414133.98748  20418040.195    20418047.4604
 01  7 19 17 12 30.0000000  0  9 03 15 26 23 06 22 21 18 17
  23162062.541   -11273899.564 8  -8253030.16646  23162061.928    23162070.8024
  20283078.472    -5697240.904 9  -4295832.32148  20283077.508    20283084.8104
  22168701.324    -2764155.086 8  -2145075.83046  22168701.048    22168708.8504
  20609950.426    -3043459.391 9  -2239680.58348  20609949.579    20609956.6264
  22314977.682     7726853.578 8   6012108.96546  22314977.173    22314985.8754
  23198149.296      778915.537 8    610576.01546  23198148.186    23198157.6344
  22825889.138   -12571852.647 8  -9777822.08646  22825888.346    22825897.8134
  20413776.861    -8979411.025 9  -6980917.96448  20413776.107    20413782.1134
  20420250.840    -1890018.380 9  -1405085.34148  20420250.005    20420257.2234
 01  7 19 17 13  0.0000000  0  9 03 15 26 23 06 22 21 18 17
  23144731.851   -11364972.336 8  -8323995.91246  23144731.246    23144740.1524
  20279954.384    -5713658.323 9  -4308625.10948  20279953.380    20279960.6844
  22174103.149    -2735768.271 8  -2122956.20646  22174102.868    22174110.6994
  20612769.884    -3028643.029 9  -2228135.36048  20612768.997    20612776.0804
  22332527.049     7819075.968 8   6083970.47146  22332526.593    22332535.3294
  23207233.975      826655.792 8    647776.14546  23207232.867    23207242.4204
  22811070.158   -12649726.965 8  -9838503.28946  22811069.355    22811078.7854
  20407933.048    -9010120.429 9  -7004847.34548  20407932.302    20407938.2964
  20422514.035    -1878125.561 9  -1395818.20848  20422513.158    20422520.3844
 01  7 19 17 13 30.0000000  0  9 03 15 26 23 06 22 21 18 17
  23127448.751   -11455795.465 8  -8394767.14846  23127448.171    23127457.0574
  20276888.159    -5729771.425 9  -4321180.76948  20276887.163    20276894.4874
  22179624.919    -2706750.982 8  -2100345.31346  22179624.676    22179632.5034
  20615668.473    -3013410.823 9  -2216266.10648  20615667.610    20615674.6844
  22350134.962     7911605.416 8   6156071.23246  22350134.424    22350143.1704
  23216400.819      874827.676 8    685312.61846  23216399.721    23216409.2684
  22796298.879   -12727350.122 8  -9898988.79046  22796298.111    22796307.5064
  20402180.969    -9040347.834 9  -7028401.15148  20402180.235    20402186.2054
  20424830.561    -1865952.092 9  -1386332.39748  20424829.725    20424836.9474
 01  7 19 17 14  0.0000000  0  9 03 15 26 23 06 22 21 18 17
  23110213.454   -11546367.113 8  -8465342.40946  23110212.853    23110221.7614
  20273879.862    -5745580.063 9  -4333499.18348  20273878.896    20273886.1864
  22185266.494    -2677104.777 8  -2077244.35846  22185266.240    22185273.9514
  20618645.894    -2997764.365 9  -2204074.05848  20618645.049    20618652.1294
  22367800.737     8004439.633 8   6228409.49846  22367800.264    22367809.0804
  23225649.178      923428.069 8    723183.00146  23225648.049    23225657.6254
  22781575.418   -12804721.839 8  -9959278.35246  22781574.694    22781584.1284
  20396520.508    -9070093.587 9  -7051579.64048  20396519.783    20396525.7514
  20427200.460    -1853498.268 9  -1376628.12748  20427199.614    20427206.8764
 01  7 19 17 14 30.0000000  0  9 03 15 26 23 06 22 21 18 17
  23093026.551   -11636684.482 8  -8535719.52246  23093025.971    23093034.8964
  20270929.654    -5761083.497 9  -4345579.77448  20270928.688    20270935.9734
  22191027.649    -2646830.064 8  -2053653.65346  22191027.352    22191035.0504
  20621701.966    -2981704.639 9  -2191559.98448  20621701.103    20621708.1804
  22385524.399     8097577.240 8   6300984.14546  22385523.884    22385532.6654
  23234978.870      972455.606 8    761386.20146  23234977.710    23234987.3744
  22766900.063   -12881840.993 8 -10019371.11346  22766899.334    22766908.7874
  20390951.794    -9099357.248 9  -7074382.47348  20390951.068    20390957.0404
  20429623.799    -1840763.464 9  -1366704.91248  20429622.936    20429630.2414
 01  7 19 17 15  0.0000000  0  9 03 15 26 23 06 22 21 18 17
  23075888.579   -11726745.034 8  -8605896.52646  23075888.015    23075896.9014
  20268037.661    -5776281.053 9  -4357422.01748  20268036.680    20268043.9844
  22196908.152    -2615927.719 8  -2029573.87446  22196907.890    22196915.5104
  20624836.487    -2965232.632 9  -2178724.65348  20624835.603    20624842.7014
  22403305.326     8191016.519 8   6373793.88746  22403304.845    22403313.6794
  23244389.460     1021908.329 8    799920.73146  23244388.305    23244397.9644
  22752273.005   -12958706.769 8 -10079266.43246  22752272.200    22752281.6594
  20385474.884    -9128138.529 9  -7096809.42748  20385474.180    20385480.1464
  20432100.720    -1827747.175 9  -1356562.35648  20432099.862    20432107.1654
 01  7 19 17 15 30.0000000  0  9 03 15 26 23 06 22 21 18 17
  23058799.824   -11816546.394 8  -8675871.55146  23058799.286    23058808.1914
  20265203.838    -5791172.643 9  -4369025.84748  20265202.872    20265210.1924
  22202907.850    -2584398.835 8  -2005005.90446  22202907.627    22202915.2774
  20628049.113    -2948350.021 9  -2165569.37048  20628048.269    20628055.3514
  22421143.358     8284755.548 8   6446837.19246  22421142.886    22421151.7424
  23253880.405     1071783.545 8    838784.47546  23253879.274    23253888.9044
  22737694.079   -13035318.559 8 -10138963.83946  22737693.373    22737702.7904
  20380089.716    -9156437.691 9  -7118860.70648  20380089.018    20380094.9844
  20434631.168    -1814449.592 9  -1346200.60648  20434630.310    20434637.5844
 01  7 19 17 16  0.0000000  0  9 03 15 26 23 06 22 21 18 17
  23041761.039   -11906085.776 8  -8745642.44346  23041760.491    23041769.4204
  20262428.355    -5805757.849 9  -4380390.93548  20262427.393    20262434.7344
  22209026.630    -2552244.474 8  -1979950.54546  22209026.391    22209034.0504
  20631339.672    -2931057.950 9  -2152095.02448  20631338.821    20631345.9014
  22439038.058     8378792.646 8   6520112.75846  22439037.617    22439046.5474
  23263451.278     1122078.554 8    877975.32646  23263450.138    23263459.8454
  22723163.872   -13111675.002 8 -10198462.27646  22723163.132    22723172.5464
  20374796.303    -9184254.815 9  -7140536.36848  20374795.583    20374801.5424
  20437215.260    -1800870.275 9  -1335619.32548  20437214.411    20437221.6134
 01  7 19 17 16 30.0000000  0  9 03 15 26 23 06 22 21 18 17
  23024772.507   -11995361.071 8  -8815207.56246  23024771.852    23024780.7994
  20259711.171    -5820036.535 9  -4391517.17748  20259710.224    20259717.6024
  22215264.265    -2519465.721 8  -1954408.63746  22215264.013    22215271.6354
  20634707.817    -2913358.189 9  -2138303.00248  20634706.950    20634714.0654
  22456989.264     8473125.603 8   6593618.85746  22456988.640    22456997.5984
  23273101.531     1172790.702 8    917491.22846  23273100.427    23273110.0124
  22708682.359   -13187775.699 8 -10257761.42146  22708681.587    22708691.0004
  20369594.593    -9211589.990 9  -7161836.49148  20369593.864    20369599.7984
  20439852.968    -1787009.307 9  -1324818.57748  20439852.115    20439859.2634
 01  7 19 17 17  0.0000000  0  9 03 15 26 23 06 22 21 18 17
  23007834.535   -12084370.403 8  -8884565.42646  23007833.929    23007842.7804
  20257052.389    -5834008.613 9  -4402404.49948  20257051.425    20257058.8474
  22221620.434    -2486064.319 8  -1928381.55746  22221620.112    22221627.6774
  20638153.266    -2895252.461 9  -2124194.63848  20638152.404    20638159.5074
  22474995.962     8567751.987 8   6667353.61246  22474995.464    22475004.5304
  23282830.782     1223917.688 8    957330.39946  23282829.602    23282839.2224
  22694249.569   -13263619.985 8 -10316860.76846  22694248.839    22694258.2104
  20364484.535    -9238443.582 9  -7182761.34648  20364483.811    20364489.7344
  20442544.186    -1772866.907 9  -1313798.52348  20442543.312    20442550.4554
 01  7 19 17 17 30.0000000  0  9 03 15 26 23 06 22 21 18 17
  22990947.846   -12173110.053 8  -8953713.14946  22990947.269    22990956.1464
  20254452.202    -5847672.713 9  -4413051.83848  20254451.235    20254458.6834
  22228094.925    -2452040.190 8  -1901869.22646  22228094.631    22228102.1954
  20641675.911    -2876740.924 9  -2109770.06248  20641675.036    20641682.1644
  22493058.579     8662670.977 8   6741316.35546  22493058.010    22493067.0854
  23292638.712     1275458.293 8    997491.85046  23292637.533    23292647.1304
  22679865.839   -13339206.411 8 -10375759.18546  22679865.156    22679874.5094
  20359466.249    -9264814.731 9  -7203310.27948  20359465.515    20359471.4534
  20445289.127    -1758441.815 9  -1302558.19948  20445288.292    20445295.4574
 01  7 19 17 18  0.0000000  0  9 03 15 26 23 06 22 21 18 17
  22974112.599   -12261579.649 8  -9022650.45246  22974112.033    22974120.8654
  20251910.279    -5861030.385 9  -4423460.40748  20251909.335    20251916.7864
  22234687.213    -2417396.505 8  -1874874.14446  22234687.006    22234694.6524
  20645275.125    -2857826.884 9  -2095031.85448  20645274.254    20645281.3844
  22511176.061     8757878.836 8   6815504.19046  22511175.527    22511184.6734
  23302524.310     1327407.663 8   1037971.82646  23302523.170    23302532.7844
  22665531.127   -13414535.908 8 -10434457.40846  22665530.370    22665539.7084
  20354539.342    -9290705.672 9  -7223485.02848  20354538.616    20354544.5584
  20448087.535    -1743735.772 9  -1291098.95348  20448086.734    20448093.9484
 01  7 19 17 18 30.0000000  0  9 03 15 26 23 06 22 21 18 17
  22957330.096   -12349772.374 8  -9091371.99346  22957329.532    22957338.2934
  20249427.637    -5874077.037 9  -4433626.61848  20249426.634    20249434.0964
  22241398.225    -2382130.021 8  -1847393.76546  22241397.951    22241405.7034
  20648951.491    -2838507.442 9  -2079977.73948  20648950.619    20648957.7544
  22529348.993     8853377.979 8   6889919.00446  22529348.486    22529357.6784
  23312488.031     1379767.333 8   1078771.50546  23312486.911    23312496.5994
  22651246.187   -13489603.471 8 -10492951.51246  22651245.439    22651254.7394
  20349704.655    -9316112.136 9  -7243282.25848  20349703.913    20349709.8684
  20450940.347    -1728744.282 9  -1279417.27948  20450939.519    20450946.7654
 01  7 19 17 19  0.0000000  0  9 03 15 26 23 06 22 21 18 17
  22940599.762   -12437690.478 8  -9159879.55246  22940599.224    22940608.0464
  20247003.302    -5886816.967 9  -4443553.82748  20247002.322    20247009.7414
  22248226.587    -2346246.818 8  -1819432.81946  22248226.274    22248234.0324
  20652703.839    -2818788.633 9  -2064612.42748  20652702.991    20652710.1034
  22547576.041     8949161.698 8   6964555.56446  22547575.578    22547584.7944
  23322528.501     1432530.608 8   1119885.68446  23322527.420    23322537.2154
  22637010.350   -13564412.927 8 -10551244.49346  22637009.614    22637018.8694
  20344961.242    -9341038.759 9  -7262705.58248  20344960.507    20344966.4674
  20453846.563    -1713471.863 9  -1267516.69548  20453845.757    20453853.0374
 01  7 19 17 19 30.0000000  0  9 03 15 26 23 06 22 21 18 17
  22923922.425   -12525329.997 8  -9228170.02646  22923921.909    22923930.6974
  20244637.693    -5899248.336 9  -4453240.59748  20244636.720    20244644.0834
  22255172.416    -2309746.317 8  -1790990.87046  22255172.145    22255179.8794
  20656532.226    -2798670.240 9  -2048935.75248  20656531.391    20656538.4964
  22565857.290     9045229.885 8   7039413.79246  22565856.822    22565866.0904
  23332645.848     1485697.048 8   1161314.02046  23332644.726    23332654.5374
  22622824.079   -13638962.092 8 -10609334.65246  22622823.306    22622832.5464
  20340309.421    -9365484.131 9  -7281753.90548  20340308.687    20340314.6434
  20456806.646    -1697916.577 9  -1255395.69748  20456805.838    20456813.1264
 01  7 19 17 20  0.0000000  0  9 03 15 26 23 06 22 21 18 17
  22907298.647   -12612688.330 8  -9296241.40446  22907298.127    22907306.9044
  20242330.968    -5911370.582 9  -4462686.49248  20242329.977    20242337.2774
  22262235.462    -2272629.874 8  -1762068.98146  22262235.155    22262242.8354
  20660436.365    -2778153.826 9  -2032948.93248  20660435.508    20660442.6064
  22584192.310     9141580.610 8   7114492.16846  22584191.849    22584201.1194
  23342839.338     1539263.742 8   1203054.22846  23342838.239    23342848.0454
  22608687.421   -13713250.179 8 -10667221.37946  22608686.672    22608695.9144
  20335749.167    -9389448.351 9  -7300427.30148  20335748.454    20335754.4124
  20459820.537    -1682078.462 9  -1243054.31248  20459819.731    20459827.0304
 01  7 19 17 20 30.0000000  0  9 03 15 26 23 06 22 21 18 17
  22890728.909   -12699762.982 8  -9364091.73246  22890728.339    22890737.1064
  20240083.088    -5923183.434 9  -4471891.30648  20240082.093    20240089.3244
  22269415.518    -2234898.796 8  -1732668.15346  22269415.234    22269422.8504
  20664416.017    -2757240.706 9  -2016652.98948  20664415.153    20664422.2394
  22602580.731     9238211.766 8   7189789.05846  22602580.219    22602589.4994
  23353108.436     1593227.850 8   1245104.11346  23353107.370    23353117.1304
  22594600.543   -13787276.888 8 -10724904.43446  22594599.774    22594609.0024
  20331280.415    -9412931.704 9  -7318725.99948  20331279.698    20331285.6524
  20462888.304    -1665957.147 9  -1230492.25048  20462887.518    20462894.8064
 01  7 19 17 21  0.0000000  0  9 03 15 26 23 06 22 21 18 17
  22874213.581   -12786551.657 8  -9431719.22346  22874212.972    22874221.6674
  20237894.090    -5934686.873 9  -4480855.01948  20237893.088    20237900.2764
  22276712.238    -2196554.570 8  -1702789.53346  22276711.983    22276719.5164
  20668470.827    -2735932.293 9  -2000049.02748  20668469.996    20668477.0624
  22621022.087     9335121.269 8   7265302.85046  22621021.593    22621030.8634
  23363452.680     1647586.796 8   1287461.68946  23363451.539    23363461.3594
  22580563.576   -13861041.328 8 -10782383.12047  22580562.802    22580572.0094
  20326903.092    -9435934.423 9  -7336650.17748  20326902.378    20326908.3374
  20466010.003    -1649552.655 9  -1217709.53248  20466009.197    20466016.4544
 01  7 19 17 21 30.0000000  0  9 03 15 26 23 06 22 21 18 17
  22857753.205   -12873051.216 8  -9499121.44046  22857752.637    22857761.2564
  20235764.106    -5945879.761 9  -4489576.74048  20235763.103    20235770.3204
  22284125.578    -2157597.845 8  -1672433.66346  22284125.291    22284132.7564
  20672600.726    -2714229.452 9  -1983137.71848  20672599.887    20672606.9604
  22639516.213     9432307.885 8   7341032.56546  22639515.669    22639524.9404
  23373871.724     1702339.103 8   1330125.77546  23373870.626    23373880.5154
  22566576.663   -13934542.498 8 -10839656.66747  22566575.935    22566585.0914
  20322617.304    -9458456.310 9  -7354199.67948  20322616.605    20322622.5564
  20469185.690    -1632864.189 9  -1204705.53848  20469184.898    20469192.1604
 01  7 19 17 22  0.0000000  0  9 03 15 26 23 06 22 21 18 17
  22841348.269   -12959259.978 8  -9566297.04346  22841347.664    22841356.2134
  20233693.200    -5956762.291 9  -4498056.62248  20233692.216    20233699.4264
  22291654.976    -2118030.659 8  -1641602.09346  22291654.708    22291662.1024
  20676805.326    -2692134.230 9  -1965920.65448  20676804.456    20676811.5574
  22658062.485     9529768.889 8   7416976.10946  22658061.990    22658071.2834
  23384364.984     1757481.571 8   1373093.88646  23384363.902    23384373.8224
  22552639.999   -14007779.712 8 -10896724.52947  22552639.273    22552648.4234
  20318422.902    -9480497.999 9  -7371374.99748  20318422.199    20318428.1434
  20472415.378    -1615892.200 9  -1191480.61248  20472414.562    20472421.8364
 01  7 19 17 22 30.0000000  0  9 03 15 26 23 06 22 21 18 17
  22824999.117   -13045175.335 8  -9633244.02946  22824998.532    22825007.0004
  20231681.500    -5967333.656 9  -4506294.04348  20231680.529    20231687.7234
  22299300.353    -2077853.988 8  -1610295.61446  22299300.066    22299307.4554
  20681084.329    -2669647.874 9  -1948398.81348  20681083.464    20681090.5884
  22676660.802     9627502.838 8   7493132.31146  22676660.225    22676669.5214
  23394932.076     1813011.789 8   1416364.11346  23394930.997    23394940.9644
  22538753.713   -14080752.277 8 -10953586.17747  22538752.966    22538762.1174
  20314319.926    -9502059.522 9  -7388176.16148  20314319.199    20314325.1224
  20475699.100    -1598636.225 9  -1178034.39948  20475698.289    20475705.5464
 01  7 19 17 23  0.0000000  0  9 03 15 26 23 06 22 21 18 17
  22808706.710   -13130792.650 8  -9699958.76546  22808706.111    22808714.5134
  20229729.449    -5977591.915 9  -4514287.48048  20229728.460    20229735.6274
  22307061.694    -2037067.407 8  -1578513.87046  22307061.483    22307068.9074
  20685437.881    -2646769.760 9  -1930571.70748  20685437.030    20685444.1344
  22695310.893     9725509.661 8   7569501.16146  22695310.433    22695319.6984
  23405572.676     1868928.714 8   1459935.68346  23405571.670    23405581.6374
  22524918.310   -14153457.594 8 -11010239.58147  22524917.534    22524926.6604
  20310308.579    -9523139.121 9  -7404601.80248  20310307.867    20310313.7784
  20479037.289    -1581093.917 9  -1164365.07048  20479036.488    20479043.7654
 01  7 19 17 23 30.0000000  0  9 03 15 26 23 06 22 21 18 17
  22792470.928   -13216112.082 8  -9766441.37546  22792470.361    22792478.7614
  20227836.616    -5987539.085 9  -4522038.51548  20227835.611    20227842.7374
  22314938.513    -1995674.974 8  -1546260.02246  22314938.190    22314945.5624
  20689865.202    -2623504.047 9  -1912442.57548  20689864.345    20689871.4694
  22714012.097     9823784.807 8   7646079.09046  22714011.667    22714020.8954
  23416286.005     1925227.558 8   1503804.86246  23416284.983    23416294.9654
  22511133.353   -14225897.603 8 -11066686.25747  22511132.597    22511141.7184
  20306388.402    -9543739.673 9  -7420654.15748  20306387.710    20306393.5904
  20482429.530    -1563267.805 9  -1150474.59948  20482428.700    20482436.0104
 01  7 19 17 24  0.0000000  0  9 03 15 26 23 06 22 21 18 17
  22776292.402   -13301131.117 8  -9832689.92546  22776291.781    22776300.1134
  20226002.989    -5997174.771 9  -4529546.83848  20226001.970    20226009.1144
  22322930.231    -1953678.042 8  -1513535.14046  22322929.947    22322937.3334
  20694366.030    -2599852.187 9  -1894012.55048  20694365.159    20694372.2434
  22732764.026     9922326.274 8   7722864.54146  22732763.565    22732772.7744
  23427071.616     1981906.174 8   1547969.95146  23427070.577    23427080.5844
  22497399.043   -14298071.614 8 -11122925.66947  22497398.275    22497407.3974
  20302559.388    -9563861.375 9  -7436333.38448  20302558.681    20302564.5584
  20485875.757    -1545157.695 9  -1136362.83248  20485874.924    20485882.2964
 01  7 19 17 24 30.0000000  0  9 03 15 26 23 06 22 21 18 17
  22760171.458   -13385847.029 8  -9898702.25946  22760170.861    22760179.1684
  20224228.704    -6006498.184 9  -4536811.82648  20224227.719    20224234.8974
  22331036.760    -1911077.698 8  -1480340.07246  22331036.456    22331043.9674
  20698940.120    -2575815.086 9  -1875282.34048  20698939.272    20698946.3694
  22751566.251    10021132.380 8   7799856.20946  22751565.809    22751575.0754
  23437929.089     2038962.195 8   1592429.11346  23437928.020    23437938.0264
  22483715.633   -14369978.159 8 -11178956.66247  22483714.858    22483723.9364
  20298821.471    -9583504.194 9  -7451639.45648  20298820.759    20298826.6394
  20489376.102    -1526762.952 9  -1122029.26348  20489375.281    20489382.7044
 01  7 19 17 25  0.0000000  0  9 03 15 26 23 06 22 21 18 17
  22744108.634   -13470257.443 8  -9964476.55146  22744108.072    22744116.3084
  20222513.996    -6015508.931 9  -4543833.18348  20222513.026    20222520.2444
  22339257.674    -1867875.392 8  -1446675.96246  22339257.484    22339265.1224
  20703587.263    -2551394.175 9  -1856253.05548  20703586.395    20703593.4704
  22770418.455    10120201.198 8   7877052.56846  22770418.008    22770427.3584
  23448857.844     2096392.566 8   1637179.96246  23448856.744    23448866.7644
  22470083.159   -14441616.893 8 -11234778.97147  22470082.396    22470091.4654
  20295174.608    -9602668.476 9  -7466572.64048  20295173.894    20295179.7484
  20492930.705    -1508083.396 9  -1107473.77648  20492929.890    20492937.3174
 01  7 19 17 25 30.0000000  0  9 03 15 26 23 06 22 21 18 17
  22728104.568   -13554359.109 8 -10030010.27346  22728104.051    22728112.1854
  20220858.952    -6024206.102 9  -4550610.18648  20220857.991    20220865.2304
  22347593.225    -1824071.917 8  -1412543.38546  22347592.973    22347600.6594
  20708307.278    -2526590.274 9  -1836925.33748  20708306.418    20708313.5254
  22789320.291    10219531.374 8   7954452.59446  22789319.942    22789329.3794
  23459857.366     2154195.354 8   1682221.02646  23459856.299    23459866.3244
  22456501.877   -14512986.390 8 -11290391.49147  22456501.158    22456510.1914
  20291618.920    -9621353.594 9  -7481132.45448  20291618.235    20291624.0804
  20496539.743    -1489118.021 9  -1092695.56748  20496538.921    20496546.2974
 01  7 19 17 26  0.0000000  0  9 03 15 26 23 06 22 21 18 17
  22712159.578   -13638150.707 8 -10095302.37546  22712159.030    22712167.1094
  20219263.378    -6032590.736 9  -4557143.65648  20219262.416    20219269.7004
  22356042.558    -1779670.180 8  -1377944.63446  22356042.324    22356050.0074
  20713099.631    -2501406.226 9  -1817301.39748  20713098.790    20713105.8794
  22808271.441    10319119.696 8   8032053.76646  22808271.072    22808280.5364
  23470927.115     2212367.146 8   1727549.62046  23470926.036    23470936.0774
  22442971.752   -14584087.352 8 -11345794.76247  22442971.034    22442980.0394
  20288154.128    -9639561.169 9  -7495320.15448  20288153.414    20288159.2534
  20500202.914    -1469867.996 9  -1077695.54848  20500202.105    20500209.4564
 01  7 19 17 26 30.0000000  0  9 03 15 26 23 06 22 21 18 17
  22696274.232   -13721628.411 8 -10160349.87546  22696273.677    22696281.8164
  20217727.668    -6040660.765 9  -4563431.98448  20217726.719    20217734.0384
  22364605.787    -1734670.218 8  -1342879.73546  22364605.555    22364613.2464
  20717964.350    -2475842.084 9  -1797381.28548  20717963.492    20717970.5974
  22827271.666    10418965.738 8   8109855.75646  22827271.219    22827280.6804
  23482066.799     2270906.942 8   1773164.96146  23482065.794    23482075.9054
  22429493.102   -14654917.907 8 -11400987.33047  22429492.386    22429501.3304
  20284780.361    -9657290.385 9  -7509135.10748  20284779.629    20284785.4694
  20503920.600    -1450331.476 9  -1062472.29348  20503919.782    20503927.1034
 01  7 19 17 27  0.0000000  0  9 03 15 26 23 06 22 21 18 17
  22680448.940   -13804790.893 8 -10225151.76146  22680448.382    22680456.4824
  20216251.742    -6048416.799 9  -4569475.63448  20216250.781    20216258.1594
  22373282.264    -1689074.886 8  -1307350.93146  22373282.039    22373289.7834
  20722900.865    -2449900.479 9  -1777167.04648  20722900.015    20722907.0804
  22846320.237    10519066.110 8   8187855.93546  22846319.812    22846329.2494
  23493275.858     2329810.749 8   1819063.95845  23493274.784    23493284.9384
  22416065.849   -14725478.496 8 -11455969.53447  22416065.101    22416073.9934
  20281497.335    -9674542.542 9  -7522578.32848  20281496.622    20281502.4504
  20507692.604    -1430509.531 9  -1047026.62748  20507691.770    20507699.0724
 01  7 19 17 27 30.0000000  0  9 03 15 26 23 06 22 21 18 17
  22664684.135   -13887635.404 8 -10289705.86946  22664683.546    22664691.6954
  20214835.566    -6055858.642 9  -4575274.46248  20214834.611    20214842.0234
  22382071.805    -1642885.646 8  -1271359.31346  22382071.605    22382079.3754
  20727908.936    -2423582.836 9  -1756659.78848  20727908.088    20727915.1914
  22865416.971    10619418.948 8   8266052.83146  22865416.501    22865425.9044
  23504553.643     2389075.439 8   1865244.15746  23504552.557    23504562.7344
  22402690.129   -14795768.136 8 -11510740.61347  22402689.391    22402698.2304
  20278305.036    -9691318.057 9  -7535650.14348  20278304.342    20278310.1464
  20511518.934    -1410401.879 9  -1031358.32847  20511518.131    20511525.4194
 01  7 19 17 28  0.0000000  0  9 03 15 26 23 06 22 21 18 17
  22648980.257   -13970159.511 8 -10354010.31646  22648979.688    22648987.8524
  20213479.340    -6062985.549 9  -4580827.88848  20213478.380    20213485.8244
  22390974.091    -1596103.993 8  -1234906.08746  22390973.941    22390981.6854
  20732988.342    -2396890.475 9  -1735860.54048  20732987.501    20732994.5704
  22884561.362    10720022.546 8   8344445.13246  22884560.858    22884570.2164
  23515899.708     2448698.907 8   1911703.91046  23515898.622    23515908.7654
  22389366.084   -14865786.150 8 -11565300.02647  22389365.315    22389374.1754
  20275203.464    -9707617.033 9  -7548350.62748  20275202.759    20275208.5354
  20515399.731    -1390008.135 9  -1015467.10647  20515398.925    20515406.2014
 01  7 19 17 28 30.0000000  0  9 03 15 26 23 06 22 21 18 17
  22633337.876   -14052360.836 8 -10418063.25946  22633337.287    22633345.4524
  20212183.066    -6069797.433 9  -4586135.83948  20212182.117    20212189.5574
  22399988.812    -1548731.808 8  -1197992.71846  22399988.630    22399996.3054
  20738138.696    -2369825.131 9  -1714770.66348  20738137.836    20738144.9394
  22903753.019    10820874.463 8   8423030.91146  22903752.422    22903761.8174
  23527313.584     2508678.648 8   1958441.29146  23527312.500    23527322.6474
  22376093.803   -14935532.136 8 -11619647.48147  22376093.033    22376101.9044
  20272192.360    -9723440.258 9  -7560680.39548  20272191.644    20272197.4454
  20519335.018    -1369328.318 9   -999352.96447  20519334.181    20519341.4634
 01  7 19 17 29  0.0000000  0  9 03 15 26 23 06 22 21 18 17
  22617757.373   -14134236.498 8 -10481862.43646  22617756.813    22617764.9674
  20210946.942    -6076293.338 9  -4591197.57648  20210945.993    20210953.4024
  22409115.662    -1500770.192 8  -1160620.05646  22409115.422    22409123.0894
  20743359.902    -2342387.546 9  -1693390.72248  20743359.051    20743366.1374
  22922991.479    10921973.371 8   8501809.16746  22922990.944    22923000.4024
  23538794.801     2569012.536 8   2005454.61746  23538793.752    23538803.7784
  22362873.493   -15005005.075 8 -11673782.16447  22362872.695    22362881.5764
  20269271.871    -9738787.421 9  -7572639.21248  20269271.166    20269276.9734
  20523324.817    -1348361.613 9   -983015.27947  20523324.008    20523331.2994
 01  7 19 17 29 30.0000000  0  9 03 15 26 23 06 22 21 18 17
  22602239.271   -14215784.154 8 -10545406.02046  22602238.776    22602246.9054
  20209770.976    -6082473.221 9  -4596013.05848  20209770.017    20209777.3974
  22418354.288    -1452221.006 8  -1122789.53446  22418354.037    22418361.6774
  20748651.589    -2314579.442 9  -1671722.06948  20748650.758    20748657.8594
  22942276.538    11023317.042 8   8580778.13346  22942276.072    22942285.6114
  23550342.812     2629697.176 8   2052741.26646  23550341.748    23550351.8204
  22349705.181   -15074204.584 8 -11727703.78847  22349704.432    22349713.3074
  20266441.861    -9753659.062 9  -7584227.48648  20266441.165    20266446.9714
  20527369.235    -1327108.045 9   -966454.06247  20527368.429    20527375.7324
 01  7 19 17 30  0.0000000  0  9 03 15 26 23 06 22 21 18 17
  22586784.212   -14297001.127 8 -10608691.94146  22586783.705    22586791.7674
  20208655.241    -6088336.323 9  -4600581.70348  20208654.310    20208661.6734
  22427704.413    -1403085.753 8  -1084502.35046  22427704.203    22427711.8704
  20754013.544    -2286402.190 9  -1649765.76948  20754012.706    20754019.8014
  22961608.001    11124903.659 8   8659936.39046  22961607.470    22961617.0234
  23561957.057     2690730.033 8   2100299.24946  23561955.967    23561966.0114
  22336589.098   -15143129.806 8 -11781411.67947  22336588.362    22336597.1664
  20263702.327    -9768055.498 9  -7595445.47148  20263701.631    20263707.4244
  20531468.374    -1305566.978 9   -949668.81947  20531467.541    20531474.8684
 01  7 19 17 30 30.0000000  0  9 03 15 26 23 06 22 21 18 17
  22571392.438   -14377885.348 8 -10671718.55946  22571391.871    22571399.9984
  20207599.829    -6093882.731 9  -4604903.57248  20207598.900    20207606.2244
  22437165.668    -1353366.704 8  -1045760.24346  22437165.483    22437173.0744
  20759445.403    -2257857.893 9  -1627523.45548  20759444.536    20759451.6294
  22980985.060    11226730.491 8   8739281.85346  22980984.565    22980994.1244
  23573637.055     2752108.496 8   2148126.53045  23573635.931    23573646.0314
  22323525.267   -15211780.431 8 -11834905.61347  22323524.556    22323533.2894
  20261052.994    -9781977.792 9  -7606293.99548  20261052.285    20261058.0714
  20535622.143    -1283738.908 9   -932659.93647  20535621.325    20535628.6124
 01  7 19 17 31  0.0000000  0  9 03 15 26 23 06 22 21 18 17
  22556064.392   -14458434.458 8 -10734484.05746  22556063.852    22556071.9734
  20206604.694    -6099112.316 9  -4608978.56048  20206603.739    20206611.0464
  22446737.548    -1303065.798 8  -1006564.73846  22446737.357    22446745.0304
  20764946.717    -2228948.058 9  -1604996.30948  20764945.877    20764952.9624
  23000407.647    11328795.405 8   8818812.82546  23000407.039    23000416.5914
  23585382.257     2813829.766 8   2196220.94745  23585381.180    23585391.2894
  22310513.715   -15280156.254 8 -11888185.40747  22310512.983    22310521.7184
  20258493.794    -9795426.399 9  -7616773.41148  20258493.097    20258498.8894
  20539830.528    -1261623.728 9   -915427.32647  20539829.702    20539836.9674
 01  7 19 17 31 30.0000000  0  9 03 15 26 23 06 22 21 18 17
  22540800.637   -14538645.798 8 -10796986.35246  22540800.059    22540808.2164
  20205669.971    -6104024.403 9  -4612806.15348  20205668.987    20205676.2864
  22456419.866    -1252184.539 8   -966917.04446  22456419.744    22456427.4624
  20770517.327    -2199674.130 9  -1582185.45648  20770516.481    20770523.5794
  23019874.958    11431096.535 8   8898527.84746  23019874.402    23019883.9804
  23597192.243     2875891.161 8   2244580.38645  23597191.174    23597201.3774
  22297554.660   -15348256.344 8 -11941250.33947  22297553.915    22297562.6624
  20256024.688    -9808401.450 9  -7626883.82748  20256023.996    20256029.8114
  20544093.641    -1239220.965 9   -897970.63447  20544092.810    20544100.0784
 01  7 19 17 32  0.0000000  0  9 03 15 26 23 06 22 21 18 17
  22525601.753   -14618516.890 8 -10859223.52646  22525601.131    22525609.2384
  20204795.745    -6108618.331 9  -4616385.83548  20204794.782    20204802.1034
  22466212.447    -1200724.478 8   -926818.31946  22466212.255    22466219.9044
  20776157.022    -2170037.333 9  -1559091.84648  20776156.186    20776163.2764
  23039386.932    11533632.286 8   8978425.69646  23039386.374    23039396.0274
  23609066.401     2938289.815 8   2293202.61245  23609065.333    23609075.5724
  22284648.164   -15416079.813 8 -11994099.72647  22284647.460    22284656.1914
  20253645.637    -9820903.417 9  -7636625.61048  20253644.943    20253650.8034
  20548411.658    -1216529.879 9   -880289.27747  20548410.801    20548418.0544
 01  7 19 17 32 30.0000000  0  9 03 15 26 23 06 22 21 18 17
  22510467.868   -14698045.417 8 -10921193.76146  22510467.268    22510475.3594
  20203982.100    -6112894.178 9  -4619717.65148  20203981.135    20203988.4354
  22476114.767    -1148687.715 8   -886270.19846  22476114.579    22476122.2454
  20781865.407    -2140039.547 9  -1535716.94748  20781864.575    20781871.6794
  23058943.198    11636400.306 8   9058504.53446  23058942.586    23058952.2544
  23621004.263     3001022.911 8   2342085.46445  23621003.180    23621013.3614
  22271794.414   -15483626.545 8 -12046733.46847  22271793.678    22271802.3984
  20251356.476    -9832933.061 9  -7645999.34448  20251355.768    20251361.6094
  20552784.401    -1193551.033 9   -862383.68647  20552783.514    20552790.7984
 01  7 19 17 33  0.0000000  0  9 03 15 26 23 06 22 21 18 17
  22495399.629   -14777229.133 8 -10982895.31746  22495399.079    22495407.1324
  20203229.103    -6116851.468 9  -4622801.24348  20203228.086    20203235.3834
  22486126.381    -1096076.345 8   -845274.36046  22486126.148    22486133.8304
  20787642.204    -2109682.482 9  -1512062.08948  20787641.345    20787648.4114
  23078543.112    11739398.215 8   9138762.50046  23078542.487    23078552.2304
  23633005.169     3064087.974 8   2391226.98545  23633004.052    23633014.3404
  22258993.254   -15550896.278 8 -12099151.36347  22258992.600    22259001.2964
  20249157.034    -9844491.000 9  -7655005.51548  20249156.341    20249162.1754
  20557211.928    -1170284.066 9   -844253.58847  20557211.069    20557218.3664
 01  7 19 17 33 30.0000000  0  9 03 15 26 23 06 22 21 18 17
  22480397.598   -14856065.237 8 -11044325.99846  22480397.015    22480405.0984
  20202536.797    -6120489.555 9  -4625636.10648  20202535.786    20202543.0864
  22496247.078    -1042891.871 8   -803831.94446  22496246.862    22496254.5884
  20793487.080    -2078967.331 9  -1488128.20248  20793486.229    20793493.3004
  23098186.436    11842624.216 8   9219198.20046  23098185.828    23098195.5944
  23645068.851     3127482.651 8   2440625.34245  23645067.800    23645077.9994
  22246245.146   -15617888.103 8 -12151352.71447  22246244.416    22246253.0974
  20247047.344    -9855577.408 9  -7663644.26048  20247046.661    20247052.4824
  20561694.421    -1146728.506 9   -825898.61447  20561693.556    20561700.8434
 01  7 19 17 34  0.0000000  0  9 03 15 26 23 06 22 21 18 17
  22465462.136   -14934551.401 8 -11105484.00746  22465461.575    22465469.6504
  20201905.281    -6123808.142 9  -4628222.00948  20201904.303    20201911.5884
  22506476.381     -989136.328 8   -761944.54446  22506476.171    22506483.9164
  20799399.788    -2047895.846 9  -1463916.65548  20799398.946    20799406.0174
  23117872.653    11946076.132 8   9299809.93946  23117872.150    23117881.8764
  23657194.616     3191203.578 8   2490277.93445  23657193.565    23657203.7254
  22233549.938   -15684601.682 8 -12203337.25747  22233549.214    22233557.8774
  20245027.233    -9866193.062 9  -7671916.18048  20245026.540    20245032.3534
  20566231.802    -1122884.117 9   -807318.57347  20566230.975    20566238.2674
 01  7 19 17 34 30.0000000  0  9 03 15 26 23 06 22 21 18 17
  22450593.677   -15012685.134 8 -11166367.37946  22450593.108    22450601.2994
  20201334.601    -6126807.081 9  -4630558.83448  20201333.638    20201340.8984
  22516814.060     -934811.541 8   -719613.57646  22516813.834    22516821.5524
  20805379.996    -2016469.576 9  -1439428.65148  20805379.166    20805386.2024
  23137601.660    12049751.947 8   9380596.14746  23137601.172    23137610.8264
  23669381.842     3255247.819 8   2540182.46245  23669380.829    23669391.1054
  22220907.791   -15751036.435 8 -12255104.53647  22220907.066    22220915.6854
  20243096.623    -9876338.476 9  -7679821.67948  20243095.926    20243101.7394
  20570824.210    -1098750.825 9   -788513.41247  20570823.375    20570830.6984
 01  7 19 17 35  0.0000000  0  9 03 15 26 23 06 22 21 18 17
  22435792.752   -15090464.348 8 -11226974.51546  22435792.214    22435800.3544
  20200824.756    -6129486.279 9  -4632646.51648  20200823.781    20200831.0094
  22527259.638     -879919.921 8   -676840.89446  22527259.413    22527267.1224
  20811427.384    -1984690.447 9  -1414665.68748  20811426.519    20811433.5634
  23157372.852    12153649.082 8   9461554.80946  23157372.304    23157381.9594
  23681629.999     3319612.697 8   2590336.83745  23681629.000    23681639.3364
  22208318.721   -15817192.011 9 -12306654.27647  22208317.991    22208326.6294
  20241255.298    -9886014.639 9  -7687361.53148  20241254.591    20241260.4154
  20575471.534    -1074328.851 9   -769483.30647  20575470.698    20575478.0574
 01  7 19 17 35 30.0000000  0  9 03 15 26 23 06 22 21 18 17
  22421059.845   -15167886.445 8 -11287303.38446  22421059.244    22421067.3884
  20200375.896    -6131845.065 9  -4634484.52548  20200374.922    20200382.1664
  22537812.749     -824463.237 8   -633627.91746  22537812.487    22537820.2404
  20817541.651    -1952559.749 9  -1389628.77848  20817540.786    20817547.8254
  23177185.458    12257765.582 8   9542684.39846  23177185.118    23177194.8414
  23693938.834     3384295.834 8   2640739.19845  23693937.808    23693948.2184
  22195782.956   -15883068.055 9 -12357986.19347  22195782.210    22195790.8054
  20239503.148    -9895222.125 9  -7694536.17948  20239502.454    20239508.3044
  20580173.883    -1049617.691 9   -750227.87047  20580173.073    20580180.4454
 01  7 19 17 36  0.0000000  0  9 03 15 26 23 06 22 21 18 17
  22406395.230   -15244948.901 8 -11347352.00046  22406394.666    22406402.8254
  20199988.030    -6133882.980 9  -4636072.49848  20199987.070    20199994.3394
  22548473.024     -768443.284 8   -589976.02046  22548472.757    22548480.5004
  20823722.557    -1920079.036 9  -1364319.12748  20823721.677    20823728.7504
  23197039.885    12362099.616 8   9623983.49046  23197039.364    23197049.1554
  23706307.729     3449294.385 8   2691387.31745  23706306.715    23706317.1754
  22183300.488   -15948663.650 9 -12409099.57347  22183299.741    22183308.3574
  20237840.159    -9903961.028 9  -7701345.69248  20237839.485    20237845.3134
  20584931.387    -1024616.965 9   -730746.79247  20584930.559    20584937.9394
 01  7 19 17 36 30.0000000  0  9 03 15 26 23 06 22 21 18 17
  22391799.492   -15321649.939 8 -11407119.00646  22391798.921    22391807.0904
  20199661.174    -6135600.366 9  -4637410.71548  20199660.236    20199667.5054
  22559239.964     -711862.813 8   -545887.37346  22559239.723    22559247.3744
  20829969.608    -1887250.435 9  -1338738.39748  20829968.743    20829975.8134
  23216935.036    12466648.466 8   9705449.96346  23216934.501    23216944.2994
  23718735.943     3514604.382 8   2742278.12545  23718734.932    23718745.3024
  22170871.317   -16013979.015 9 -12459994.59547  22170870.586    22170879.1994
  20236266.144    -9912232.750 9  -7707791.17548  20236265.445    20236271.2814
  20589743.844     -999327.160 9   -711040.46247  20589743.047    20589750.4544
 01  7 19 17 37  0.0000000  0  9 03 15 26 23 06 22 21 18 17
  22377273.112   -15397986.177 8 -11466601.73546  22377272.537    22377280.7614
  20199395.654    -6136995.560 9  -4638497.86848  20199394.730    20199402.0054
  22570113.426     -654722.559 8   -501362.52246  22570113.176    22570120.8224
  20836282.779    -1854074.363 9  -1312886.90848  20836281.942    20836289.0134
  23236870.756    12571411.179 8   9787083.09146  23236870.249    23236880.2204
  23731223.190     3580224.424 8   2793410.54145  23731222.077    23731232.4154
  22158495.761   -16079012.876 9 -12510670.26547  22158495.003    22158503.6144
  20234781.083    -9920036.749 9  -7713872.19048  20234780.383    20234786.1904
  20594611.602     -973746.983 9   -691107.86447  20594610.817    20594618.2604
 01  7 19 17 37 30.0000000  0  9 03 15 26 23 06 22 21 18 17
  22362816.606   -15473955.658 8 -11525798.69346  22362816.005    22362824.1954
  20199191.376    -6138069.085 9  -4639334.37148  20199190.461    20199197.7204
  22581092.822     -597025.498 8   -456403.81746  22581092.605    22581100.1744
  20842661.639    -1820553.252 9  -1286766.55848  20842660.786    20842667.8704
  23256846.755    12676384.711 8   9868880.47146  23256846.190    23256856.1634
  23743768.728     3646151.431 8   2844782.13745  23743767.591    23743777.9734
  22146173.776   -16143765.105 9 -12561126.48747  22146173.033    22146181.6184
  20233384.747    -9927374.607 9  -7719589.98648  20233384.040    20233389.8434
  20599534.540     -947876.811 9   -670949.29647  20599533.750    20599541.1724
 01  7 19 17 38  0.0000000  0  9 03 15 26 23 06 22 21 18 17
  22348430.329   -15549556.093 8 -11584708.08746  22348429.704    22348437.8534
  20199048.348    -6138820.661 9  -4639920.00948  20199047.460    20199054.6914
  22592177.830     -538773.527 8   -411012.68046  22592177.621    22592185.2834
  20849105.870    -1786688.795 9  -1260378.67148  20849105.015    20849112.0774
  23276862.303    12781566.708 8   9950840.31446  23276861.754    23276871.8114
  23756372.166     3712382.575 8   2896390.72745  23756370.996    23756381.4494
  22133905.390   -16208235.911 9 -12611363.42947  22133904.657    22133913.1914
  20232076.927    -9934247.174 9  -7724945.21448  20232076.225    20232082.0074
  20604512.670     -921716.633 9   -650564.75647  20604511.893    20604519.2774
 01  7 19 17 38 30.0000000  0  9 03 15 26 23 06 22 21 18 17
  22334114.766   -15624784.822 8 -11643327.84546  22334114.115    22334122.2564
  20198966.805    -6139249.446 9  -4640254.12248  20198965.907    20198973.0934
  22603368.086     -479968.455 8   -365190.58246  22603367.884    22603375.5294
  20855615.142    -1752482.164 9  -1233724.15348  20855614.279    20855621.3584
  23296917.267    12886955.607 8  10032961.35446  23296916.730    23296926.8484
  23769032.863     3778914.843 8   2948233.96145  23769031.662    23769042.2054
  22121690.748   -16272424.139 9 -12661380.17447  22121689.973    22121698.5124
  20230857.619    -9940654.465 9  -7729937.88848  20230856.939    20230862.7124
  20609546.096     -895265.900 9   -629953.81047  20609545.329    20609552.7174
 01  7 19 17 39  0.0000000  0  9 03 15 26 23 06 22 21 18 17
  22319870.411   -15699639.453 8 -11701656.09046  22319869.786    22319877.8394
  20198946.683    -6139355.136 9  -4640336.47348  20198945.761    20198952.9314
  22614663.147     -420612.428 8   -318939.14246  22614662.965    22614670.6064
  20862189.227    -1717934.992 9  -1206804.27948  20862188.378    20862195.4764
  23317011.253    12992549.106 8  10115241.83346  23317010.629    23317020.7544
  23781750.284     3845745.322 8   3000309.56745  23781749.127    23781759.7694
  22109529.961   -16336329.326 9 -12711176.36947  22109529.201    22109537.7394
  20229726.742    -9946597.167 9  -7734568.55048  20229726.062    20229731.8244
  20614634.882     -868524.333 9   -609116.23647  20614634.126    20614641.4944
 01  7 19 17 39 30.0000000  0  9 03 15 26 23 06 22 21 18 17
  22305697.534   -15774118.182 8 -11759691.41846  22305696.918    22305704.9454
  20198987.992    -6139137.917 9  -4640167.20748  20198987.072    20198994.2524
  22626062.529     -360708.226 8   -272260.56046  22626062.343    22626070.0334
  20868827.666    -1683049.463 9  -1179620.75248  20868826.842    20868833.9464
  23337143.633    13098344.600 8  10197679.69846  23337143.022    23337153.1654
  23794523.959     3912870.854 8   3052615.07745  23794522.755    23794533.4504
  22097422.983   -16399951.506 9 -12760752.04547  22097422.223    22097430.7654
  20228684.025    -9952076.748 9  -7738838.34048  20228683.354    20228689.1104
  20619778.924     -841492.387 9   -588052.39647  20619778.155    20619785.4964
 01  7 19 17 40  0.0000000  0  9 03 15 26 23 06 22 21 18 17
  22291596.966   -15848217.169 8 -11817430.85146  22291596.329    22291604.3174
  20199091.041    -6138596.326 9  -4639745.18448  20199090.121    20199097.3034
  22637566.049     -300256.747 8   -225155.54446  22637565.830    22637573.5724
  20875530.469    -1647826.155 9  -1152174.01548  20875529.622    20875536.7464
  23357314.197    13204341.089 8  10280274.18346  23357313.548    23357323.7534
  23807353.392     3980290.110 8   3105149.45045  23807352.353    23807362.9984
  22085370.231   -16463288.726 9 -12810105.67047  22085369.457    22085378.0054
  20227729.540    -9957092.656 9  -7742746.82348  20227728.855    20227734.6134
  20624978.484     -814168.644 9   -566761.18347  20624977.695    20624985.0104
 01  7 19 17 40 30.0000000  0  9 03 15 26 23 06 22 21 18 17
  22277568.788   -15921935.318 8 -11874873.52046  22277568.180    22277576.1774
  20199255.719    -6137731.132 9  -4639071.00248  20199254.797    20199261.9894
  22649173.125     -239261.428 8   -177626.73746  22649172.944    22649180.5524
  20882296.985    -1612267.826 9  -1124466.22748  20882296.147    20882303.2594
  23377522.259    13310535.069 8  10363022.55545  23377521.638    23377531.9524
  23820238.217     4047998.879 8   3157909.43245  23820236.993    23820247.6774
  22073371.414   -16526342.652 9 -12859238.54947  22073370.644    22073379.2254
  20226862.887    -9961646.940 9  -7746295.61148  20226862.185    20226867.9524
  20630233.383     -786554.196 9   -545243.45147  20630232.577    20630239.8444
 01  7 19 17 41  0.0000000  0  9 03 15 26 23 06 22 21 18 17
  22263613.665   -15995270.132 8 -11932017.50546  22263613.021    22263620.9714
  20199482.096    -6136541.537 9  -4638144.04248  20199481.150    20199488.3594
  22660883.422     -177724.102 8   -129675.59546  22660883.187    22660890.7864
  20889127.026    -1576375.672 9  -1096498.31448  20889126.189    20889133.3104
  23397767.614    13416924.752 8  10445923.41745  23397766.983    23397777.4234
  23833177.352     4115994.070 8   3210892.60145  23833176.165    23833186.8204
  22061426.710   -16589112.144 9 -12908149.79347  22061425.992    22061434.5524
  20226083.986    -9965739.909 9  -7749484.92648  20226083.304    20226089.0774
  20635543.672     -758648.407 9   -523498.69147  20635542.891    20635550.1584
 01  7 19 17 41 30.0000000  0  9 03 15 26 23 06 22 21 18 17
  22249731.907   -16068219.004 8 -11988860.74146  22249731.272    22249739.2304
  20199770.362    -6135026.856 9  -4636963.76848  20199769.371    20199776.5904
  22672696.422     -115646.677 8    -81303.62446  22672696.099    22672703.8214
  20896020.369    -1540151.056 9  -1068271.34148  20896019.507    20896026.6234
  23418049.926    13523508.350 8  10528975.38045  23418049.321    23418059.7984
  23846170.638     4184273.201 8   3264097.01545  23846169.381    23846180.0514
  22049536.275   -16651596.804 9 -12956839.08847  22049535.524    22049544.0714
  20225392.758    -9969372.267 9  -7752315.32448  20225392.072    20225397.8364
  20640909.486     -730450.929 9   -501526.63847  20640908.686    20640915.9534
 01  7 19 17 42  0.0000000  0  9 03 15 26 23 06 22 21 18 17
  22235924.010   -16140779.857 8 -12045401.62846  22235923.391    22235931.3374
  20200120.408    -6133187.382 9  -4635530.40748  20200119.438    20200126.6454
  22684611.822      -53031.623 8    -32512.69046  22684611.401    22684619.0934
  20902976.617    -1503595.885 9  -1039786.80248  20902975.741    20902982.8474
  23438368.741    13630283.331 8  10612176.46445  23438368.165    23438378.6624
  23859217.257     4252833.760 8   3317520.73445  23859216.068    23859226.7784
  22037700.029   -16713796.678 9 -13005306.47147  22037699.249    22037707.7624
  20224789.027    -9972544.918 9  -7754787.50748  20224788.330    20224794.0914
  20646330.769     -701961.622 9   -479327.19047  20646329.973    20646337.2864
 01  7 19 17 42 30.0000000  0  9 03 15 26 23 06 22 21 18 17
  22222190.512   -16212949.902 8 -12101638.00046  22222189.888    22222197.8354
  20200532.378    -6131022.394 9  -4633843.39548  20200531.383    20200538.5774
  22696628.920       10119.053 8     16695.62146  22696628.541    22696636.2554
  20909995.438    -1466711.663 9  -1011045.86248  20909994.592    20910001.6914
  23458723.558    13737247.626 8  10695525.07545  23458723.003    23458733.5034
  23872317.082     4321673.066 8   3371161.66045  23872315.839    23872326.6504
  22025918.070   -16775710.891 9 -13053551.26247  22025917.295    22025925.8004
  20224272.656    -9975258.444 9  -7756901.92948  20224271.948    20224277.6894
  20651807.652     -673180.448 9   -456900.30947  20651806.862    20651814.1614
 01  7 19 17 43  0.0000000  0  9 03 15 26 23 06 22 21 18 17
  22208531.816   -16284726.633 8 -12157567.88446  22208531.184    22208539.1674
  20201006.417    -6128531.287 9  -4631902.27048  20201005.435    20201012.6114
  22708747.607       73803.366 8     66319.72446  22708747.301    22708755.0994
  20917076.626    -1429499.721 9   -982049.55248  20917075.790    20917082.8744
  23479114.110    13844399.409 8  10779019.77845  23479113.458    23479123.9304
  23885469.305     4390788.162 8   3425017.49645  23885468.094    23885478.9414
  22014190.646   -16837338.584 9 -13101572.78847  22014189.883    22014198.3984
  20223843.539    -9977513.336 9  -7758658.98348  20223842.855    20223848.5704
  20657340.228     -644106.637 9   -434245.41047  20657339.412    20657346.7464
 01  7 19 17 43 30.0000000  0  9 03 15 26 23 06 22 21 18 17
  22194948.243   -16356108.440 8 -12213190.04346  22194947.668    22194955.5624
  20201542.421    -6125714.608 9  -4629707.45348  20201541.434    20201548.5884
  22720967.365      138018.169 8    116357.20746  22720967.051    22720974.8024
  20924219.751    -1391962.472 9   -952799.74848  20924218.925    20924226.0164
  23499539.543    13951735.664 8  10862658.23845  23499538.958    23499549.5054
  23898673.191     4460175.029 8   3479085.12045  23898672.023    23898682.9014
  22002517.634   -16898680.367 9 -13149371.53247  22002516.885    22002525.3904
  20223501.444    -9979311.162 9  -7760059.87248  20223500.732    20223506.4624
  20662928.356     -614740.860 9   -411363.00347  20662927.553    20662934.9204
 01  7 19 17 44  0.0000000  0  9 03 15 26 23 06 22 21 18 17
  22181440.449   -16427092.208 8 -12268502.03246  22181439.859    22181447.8154
  20202140.528    -6122571.235 9  -4627258.07048  20202139.560    20202146.7684
  22733287.719      202762.027 8    166806.95146  22733287.373    22733295.0954
  20931424.569    -1354100.826 9   -923297.17548  20931423.747    20931430.8354
  23519999.910    14059255.115 8  10946439.43045  23519999.293    23520009.9544
  23911928.443     4529831.931 8   3533363.14345  23911927.307    23911938.2764
  21990899.238   -16959735.452 9 -13196946.86647  21990898.478    21990906.9374
  20223246.248    -9980652.219 9  -7761104.84448  20223245.529    20223251.2584
  20668572.174     -585082.353 9   -388252.48747  20668571.386    20668578.7874
 01  7 19 17 44 30.0000000  0  9 03 15 26 23 06 22 21 18 17
  22168008.814   -16497675.893 8 -12323502.28247  22168008.217    22168016.0914
  20202800.927    -6119100.719 9  -4624553.77348  20202799.953    20202807.1604
  22745708.283      268032.242 8    217666.83146  22745707.944    22745715.6284
  20938690.800    -1315916.600 9   -893543.23848  20938689.967    20938697.0784
  23540494.736    14166955.293 8  11030361.43145  23540494.095    23540504.7744
  23925234.578     4599756.093 8   3587849.42045  23925233.446    23925244.3834
  21979335.402   -17020503.370 9 -13244298.44547  21979334.673    21979343.1014
  20223077.808    -9981537.391 9  -7761794.57948  20223077.085    20223082.8134
  20674271.716     -555131.000 9   -364913.79147  20674270.940    20674278.3734
 01  7 19 17 45  0.0000000  0  9 03 15 26 23 06 22 21 18 17
  22154653.736   -16567857.199 8 -12378188.97047  22154653.153    22154661.0184
  20203523.614    -6115302.899 9  -4621594.42948  20203522.642    20203529.8594
  22758228.598      333826.802 8    268935.29546  22758228.206    22758235.9444
  20946018.131    -1277411.381 9   -863539.17448  20946017.284    20946024.3744
  23561023.346    14274833.939 8  11114422.50445  23561022.843    23561033.6314
  23938591.033     4669944.410 8   3642541.51345  23938589.909    23938600.7834
  21967826.383   -17080983.549 9 -13291425.80747  21967825.641    21967834.0284
  20222995.884    -9981967.591 9  -7762129.79148  20222995.202    20223000.9044
  20680027.103     -524886.540 9   -341346.69247  20680026.296    20680033.7504
 01  7 19 17 45 30.0000000  0  9 03 15 26 23 06 22 21 18 17
  22141375.643   -16637634.125 8 -12432560.56247  22141375.035    22141382.8824
  20204308.581    -6111177.729 9  -4618380.01448  20204307.619    20204314.8244
  22770848.042      400142.985 8    320610.21346  22770847.780    22770855.5524
  20953406.166    -1238587.074 9   -833286.47648  20953405.319    20953412.4254
  23581585.682    14382888.602 7  11198620.73045  23581585.098    23581595.9564
  23951997.145     4740393.462 8   3697436.78845  23951995.978    23952006.8784
  21956372.018   -17141176.451 9 -13338329.31247  21956371.280    21956379.6504
  20223000.414    -9981943.852 9  -7762111.28848  20222999.719    20223005.4184
  20685838.182     -494348.972 9   -317551.19547  20685837.423    20685844.8384
 01  7 19 17 46  0.0000000  0  9 03 15 26 23 06 22 21 18 17
  22128175.032   -16707003.703 8 -12486614.74947  22128174.414    22128182.2694
  20205156.071    -6106724.219 9  -4614909.74848  20205155.102    20205162.3084
  22783566.555      466978.878 8    372690.10246  22783566.245    22783574.0144
  20960854.670    -1199444.886 9   -802786.07648  20960853.813    20960860.9264
  23602180.765    14491117.477 8  11282954.69145  23602180.540    23602191.5134
  23965452.385     4811100.723 8   3752533.24545  23965451.213    23965462.0524
  21944972.505   -17201081.163 9 -13385008.26247  21944971.752    21944980.1104
  20223091.245    -9981466.510 9  -7761739.32548  20223090.526    20223096.2084
  20691705.266     -463517.803 9   -293526.91747  20691704.461    20691711.8094
 01  7 19 17 46 30.0000000  0  9 03 15 26 23 06 22 21 18 17
  22115052.263   -16775964.250 8 -12540350.20347  22115051.628    22115059.5384
  20206065.976    -6101942.798 9  -4611183.96448  20206065.002    20206072.1944
  22796383.421      534331.514 8    425172.64846  22796383.102    22796390.7684
  20968363.251    -1159987.089 9   -772039.75348  20968362.405    20968369.4864
  23622808.991    14599517.727 8  11367422.17045  23622808.590    23622819.6604
  23978956.188     4882063.179 8   3807828.58545  23978955.065    23978965.8814
  21933627.759   -17260697.987 9 -13431462.88047  21933627.016    21933635.3814
  20223268.053    -9980537.197 9  -7761015.18448  20223267.383    20223273.0414
  20697627.993     -432393.464 9   -269274.19847  20697627.211    20697634.5574
 01  7 19 17 47  0.0000000  0  9 03 15 26 23 06 22 21 18 17
  22102007.802   -16844513.124 8 -12593764.88647  22102007.159    22102015.0074
  20207038.401    -6096832.741 9  -4607202.10248  20207037.409    20207044.6114
  22809298.264      602198.662 8    478056.13246  22809297.891    22809305.4034
  20975931.626    -1120215.100 9   -741048.60348  20975930.755    20975937.8564
  23643469.222    14708087.431 7  11452021.71045  23643468.867    23643480.0154
  23992507.900     4953278.102 8   3863320.65145  23992506.863    23992517.7274
  21922337.833   -17320026.445 9 -13477692.78947  21922337.092    21922345.4834
  20223530.799    -9979156.493 9  -7759939.30648  20223530.091    20223535.7704
  20703606.604     -400975.526 9   -244792.69847  20703605.862    20703613.2124
 01  7 19 17 47 30.0000000  0  9 03 15 26 23 06 22 21 18 17
  22089042.194   -16912647.799 8 -12646856.81647  22089041.545    22089049.4124
  20208073.443    -6091393.610 9  -4602963.81548  20208072.453    20208079.6464
  22822310.333      670578.137 8    531338.80546  22822310.043    22822317.6204
  20983559.476    -1080130.340 9   -709813.73848  20983558.645    20983565.7504
  23664161.371    14816824.548 7  11536751.67845  23664161.032    23664172.1834
  24006107.256     5024742.553 8   3919007.13445  24006106.128    24006117.1474
  21911102.919   -17379066.095 9 -13523697.66047  21911102.190    21911110.5524
  20223879.281    -9977325.325 9  -7758512.42248  20223878.570    20223884.2504
  20709641.272     -369263.627 9   -220082.13947  20709640.464    20709647.7964
 01  7 19 17 48  0.0000000  0  9 03 15 26 23 06 22 21 18 17
  22076155.786   -16980365.975 8 -12699624.19447  22076155.156    22076163.0234
  20209171.162    -6085624.969 9  -4598468.77348  20209170.183    20209177.3484
  22835419.484      739467.609 8    585018.88046  22835419.229    22835426.8884
  20991246.533    -1039734.407 9   -678336.40248  20991245.673    20991252.8064
  23684884.839    14925726.898 7  11621610.41545  23684884.615    23684895.8014
  24019753.422     5096453.330 8   3974885.57245  24019752.351    24019763.3624
  21899923.088   -17437816.444 9 -13569477.10247  21899922.339    21899930.6674
  20224313.334    -9975044.272 9  -7756734.97548  20224312.640    20224318.3284
  20715731.876     -337257.578 9   -195142.37747  20715731.038    20715738.3564
 01  7 19 17 48 30.0000000  0  9 03 15 26 23 06 22 21 18 17
  22063349.048   -17047665.565 8 -12752065.40247  22063348.432    22063356.3244
  20210331.677    -6079526.457 9  -4593716.68948  20210330.709    20210337.8624
  22848625.259      808864.714 8    639094.49346  22848624.946    22848632.7904
  20998992.542     -999029.015 9   -646617.92448  20998991.691    20998998.8134
  23705639.621    15034792.388 8  11706596.25845  23705639.267    23705650.3924
  24033446.086     5168407.798 8   4030953.87045  24033444.952    24033456.0024
  21888798.404   -17496276.992 9 -13615030.72647  21888797.661    21888805.9304
  20224832.790    -9972314.407 9  -7754607.80948  20224832.090    20224837.8004
  20721878.395     -304957.172 9   -169973.24347  20721877.573    20721884.9284
 01  7 19 17 49  0.0000000  0  9 03 15 26 23 06 22 21 18 17
  22050622.339   -17114544.602 8 -12804178.91747  22050621.752    22050629.5944
  20211554.947    -6073098.162 9  -4588707.63348  20211553.982    20211561.1474
  22861927.105      878766.637 8    693563.49046  22861926.877    22861934.7434
  21006797.001     -958016.185 9   -614659.88448  21006796.148    21006803.2854
  23726424.764    15144018.276 8  11791707.09645  23726424.448    23726435.5634
  24047184.506     5240602.987 8   4087209.68845  24047183.441    24047194.3914
  21877728.794   -17554448.218 9 -13660358.90847  21877728.044    21877736.2654
  20225437.395    -9969137.226 9  -7752132.08748  20225436.672    20225442.3944
  20728080.921     -272362.483 9   -144574.80147  20728080.129    20728087.5214
 01  7 19 17 49 30.0000000  0  9 03 15 26 23 06 22 21 18 17
  22037976.203   -17181000.659 8 -12855962.83647  22037975.607    22037983.4334
  20212841.012    -6066339.753 9  -4583441.33948  20212840.052    20212847.2064
  22875324.618      949170.927 8    748423.95746  22875324.413    22875332.1774
  21014659.743     -916697.462 9   -582463.48548  21014658.894    21014666.0004
  23747240.051    15253402.385 8  11876941.21745  23747239.777    23747250.8554
  24060968.128     5313036.037 8   4143650.87945  24060966.949    24060978.0044
  21866714.294   -17612329.544 9 -13705461.18647  21866713.539    21866721.7314
  20226126.924    -9965513.445 9  -7749308.36248  20226126.224    20226131.9564
  20734339.526     -239473.354 9   -118946.92347  20734338.736    20734346.1594
 01  7 19 17 50  0.0000000  0  9 03 15 26 23 06 22 21 18 17
  22025410.937   -17247031.793 8 -12907415.65047  22025410.316    22025418.0684
  20214190.005    -6059250.921 9  -4577917.58448  20214189.038    20214196.1664
  22888817.258     1020074.998 8    803673.84546  22888817.002    22888824.8754
  21022580.353     -875074.774 9   -550030.24048  21022579.471    21022586.5554
  23768085.102    15362942.329 8  11962296.77145  23768084.707    23768095.8004
  24074796.433     5385703.468 8   4200274.78645  24074795.226    24074806.1844
  21855754.932   -17669921.324 9 -13750337.85147  21855754.136    21855762.3134
  20226901.271    -9961444.123 9  -7746137.46348  20226900.588    20226906.3234
  20740654.135     -206289.796 9    -93089.62147  20740653.334    20740660.8114
 01  7 19 17 50 30.0000000  0  9 03 15 26 23 06 22 21 18 17
  22012926.913   -17312635.430 8 -12958535.32747  22012926.328    22012934.1114
  20215601.932    -6051831.059 9  -4572135.88048  20215600.961    20215608.1294
  22902404.658     1091476.708 8    859311.52746  22902404.355    22902412.2024
  21030558.496     -833149.371 9   -517361.10248  21030557.598    21030564.6824
  23788959.299    15472636.343 8  12047772.36345  23788958.926    23788970.1004
  24088668.800     5458602.635 8   4257079.30445  24088667.622    24088678.4754
  21844850.848   -17727222.556 9 -13794988.11047  21844850.075    21844858.1984
  20227760.281    -9956929.842 9  -7742619.84048  20227759.584    20227765.3454
  20747024.911     -172811.321 9    -67002.50847  20747024.114    20747031.5314
 01  7 19 17 51  0.0000000  0  9 03 15 26 23 06 22 21 18 17
  22000524.754   -17377809.174 8 -13009320.03547  22000524.134    22000531.9314
  20217076.935    -6044079.686 9  -4566095.85948  20217076.009    20217083.1804
  22916086.134     1163373.562 8    915335.01246  22916085.843    22916093.7744
  21038593.915     -790922.803 9   -484457.29648  21038593.065    21038600.1734
  23809862.747    15582482.182 8  12133366.25945  23809862.185    23809873.2224
  24102584.684     5531731.002 8   4314062.40545  24102583.578    24102594.3224
  21834002.148   -17784232.714 9 -13839411.56247  21834001.365    21834009.4734
  20228703.858    -9951971.537 9  -7738756.22448  20228703.140    20228708.9104
  20753451.891     -139037.557 9    -40685.30447  20753451.085    20753458.4684
 01  7 19 17 51 30.0000000  0  9 03 15 26 23 06 22 21 18 17
  21988204.837   -17442550.782 8 -13059768.01647  21988204.253    21988212.0204
  20218615.097    -6035996.539 9  -4559797.30948  20218614.205    20218621.3514
  22929861.424     1235763.049 8    971742.36346  22929861.167    22929869.1504
  21046686.341     -748396.865 9   -451320.21448  21046685.483    21046692.5694
  23830794.231    15692477.580 8  12219076.69545  23830793.834    23830805.0384
  24116543.711     5605085.853 8   4371221.93845  24116542.546    24116553.4094
  21823208.691   -17840952.383 9 -13883608.65947  21823207.928    21823216.0494
  20229731.630    -9946570.335 9  -7734547.49848  20229730.949    20229736.7254
  20759935.031     -104968.392 9    -14137.91747  20759934.237    20759941.6404
 01  7 19 17 52  0.0000000  0  9 03 15 26 23 06 22 21 18 17
  21975967.654   -17506857.431 8 -13109877.05747  21975967.034    21975974.8364
  20220216.589    -6027580.688 9  -4553239.51148  20220215.686    20220222.8254
  22943730.049     1308643.136 8   1028532.02646  22943729.846    22943737.7934
  21054835.551     -705572.598 9   -417950.67048  21054834.661    21054841.7864
  23851753.945    15802620.814 7  12304902.30545  23851753.664    23851764.8624
  24130545.260     5678664.391 8   4428555.76045  24130543.972    24130555.0744
  21812470.714   -17897380.599 9 -13927578.65447  21812469.912    21812478.0774
  20230843.630    -9940726.747 9  -7729994.05848  20230842.949    20230848.7354
  20766474.504      -70603.363 9     12640.01447  20766473.719    20766481.1184
 01  7 19 17 52 30.0000000  0  9 03 15 26 23 06 22 21 18 17
  21963813.430   -17570728.198 8 -13159646.46247  21963812.799    21963820.6084
  20221881.205    -6018833.043 9  -4546423.17448  20221880.334    20221887.4554
  22957691.276     1382010.126 8   1085701.08646  22957691.141    22957699.0134
  21063040.949     -662452.822 9   -384350.85748  21063040.081    21063047.2124
  23872741.424    15912908.463 7  12390840.43545  23872740.884    23872752.2594
  24144588.558     5752462.022 8   4486060.30545  24144587.350    24144598.3354
  21801788.010   -17953518.071 9 -13971322.08947  21801787.247    21801795.4564
  20232039.431    -9934442.846 9  -7725097.50748  20232038.731    20232044.5474
  20773070.146      -35943.296 9     39647.84347  20773069.343    20773076.7404
 01  7 19 17 53  0.0000000  0  9 03 15 26 23 06 22 21 18 17
  21951742.644   -17634160.190 8 -13209073.95647  21951742.035    21951749.8314
  20223609.128    -6009752.729 9  -4539347.61148  20223608.237    20223615.3634
  22971744.831     1455862.125 8   1143248.04946  22971744.702    22971752.6454
  21071302.414     -619038.559 9   -350521.57548  21071301.532    21071308.6934
  23893755.852    16023338.798 7  12476889.73545  23893755.227    23893766.7924
  24158673.151     5826476.815 8   4543734.06045  24158672.009    24158682.9184
  21791160.860   -18009363.797 9 -14014838.19447  21791160.134    21791168.3474
  20233318.872    -9927719.271 9  -7719858.35548  20233318.195    20233323.9834
  20779722.018        -987.466 9     66886.14147  20779721.198    20779728.6234
 01  7 19 17 53 30.0000000  0  9 03 15 26 23 06 22 21 18 17
  21939755.866   -17697151.037 8 -13258157.70247  21939755.253    21939763.0284
  20225400.436    -6000339.253 9  -4532012.44048  20225399.547    20225406.6724
  22985890.270     1530196.761 8   1201171.12446  22985890.119    22985897.9954
  21079619.625     -575331.341 9   -316464.01948  21079618.744    21079625.8964
  23914796.908    16133909.718 7  12563048.57745  23914796.311    23914807.9634
  24172798.630     5900706.336 8   4601575.13445  24172797.551    24172808.4134
  21780589.190   -18064918.043 9 -14058127.16947  21780588.423    21780596.6594
  20234681.854    -9920556.816 9  -7714277.21848  20234681.162    20234686.9694
  20786430.280       34264.471 9     94355.17447  20786429.434    20786436.8334
 01  7 19 17 54  0.0000000  0  9 03 15 26 23 06 22 21 18 17
  21927853.394   -17759698.891 8 -13306896.27047  21927852.774    21927860.4704
  20227255.231    -5990592.196 9  -4524417.33848  20227254.363    20227261.4944
  23000127.150     1605011.289 8   1259468.12046  23000126.933    23000134.7144
  21087992.256     -531332.968 9   -282179.58948  21087991.377    21087998.5294
  23935864.167    16244618.992 7  12649315.21945  23935863.726    23935875.4854
  24186964.575     5975147.621 8   4659581.22145  24186963.343    24186974.2344
  21770073.139   -18120180.054 9 -14101188.43247  21770072.393    21770080.6084
  20236128.170    -9912956.382 9  -7708354.79848  20236127.480    20236133.2604
  20793194.887       69812.640 9    122055.03147  20793194.071    20793201.4354
 01  7 19 17 54 30.0000000  0  9 03 15 26 23 06 22 21 18 17
  21916035.588   -17821801.612 8 -13355287.97747  21916034.955    21916042.6954
  20229173.644    -5980511.507 9  -4516562.26748  20229172.705    20229179.8054
  23014454.773     1680302.948 8   1318136.91046  23014454.525    23014462.2974
  21096419.959     -487045.151 9   -247669.62248  21096419.093    21096426.2464
  23956957.575    16355464.201 7  12735687.77445  23956957.043    23956968.9754
  24201169.836     6049797.064 8   4717749.51945  24201168.710    24201179.6654
  21759612.698   -18175149.839 9 -14144021.98447  21759611.964    21759620.1624
  20237657.585    -9904919.312 9  -7702092.14848  20237656.902    20237662.6754
  20800015.798      105656.908 9    149985.61147  20800014.999    20800022.3794
 01  7 19 17 55  0.0000000  0  9 03 15 26 23 06 22 21 18 17
  21904302.908   -17883456.988 8 -13403331.10247  21904302.297    21904310.0694
  20231155.441    -5970096.865 9  -4508446.96948  20231154.523    20231161.6404
  23028872.605     1756069.268 8   1377175.55646  23028872.363    23028880.1454
  21104902.374     -442469.564 9   -212935.41848  21104901.551    21104908.6924
  23978076.355    16466443.083 8  12822164.48545  23978075.863    23978087.7554
  24215414.320     6124651.576 8   4776077.60345  24215413.078    24215424.1394
  21749207.814   -18229827.710 9 -14186628.07347  21749207.067    21749215.2754
  20239269.879    -9896446.691 9  -7695490.10748  20239269.205    20239274.9424
  20806893.098      141797.624 9    178147.18847  20806892.308    20806899.7274
 01  7 19 17 55 30.0000000  0  9 03 15 26 23 06 22 21 18 17
  21892655.962   -17944662.146 8 -13451023.41047  21892655.330    21892663.1044
  20233201.011    -5959347.456 9  -4500070.81948  20233200.087    20233207.1784
  23043380.297     1832308.065 8   1436582.36146  23043380.090    23043387.9784
  21113439.429     -397607.289 9   -177977.82148  21113438.600    21113445.7104
  23999220.333    16577553.791 8  12908743.92345  23999219.865    23999231.7294
  24229697.365     6199709.173 8   4834563.92045  24229696.170    24229707.2894
  21738858.699   -18284212.841 9 -14229006.05347  21738857.912    21738866.0884
  20240964.972    -9887539.022 9  -7688549.06448  20240964.282    20240970.0144
  20813826.974      178235.258 9    206540.13147  20813826.168    20813833.6104
 01  7 19 17 56  0.0000000  0  9 03 15 26 23 06 22 21 18 17
  21881094.927   -18005415.466 8 -13498363.66047  21881094.383    21881102.1484
  20235310.249    -5948263.390 9  -4491433.89948  20235309.307    20235316.4364
  23057977.458     1909016.316 8   1496354.98646  23057977.214    23057985.1304
  21122030.606     -352460.479 9   -142798.51448  21122029.773    21122036.8504
  24020389.014    16688793.739 8  12995424.06345  24020388.480    24020400.1584
  24244018.513     6274966.685 8   4893206.03345  24244017.266    24244028.4584
  21728565.178   -18338305.363 9 -14271156.02647  21728564.418    21728572.5774
  20242742.545    -9878197.968 9  -7681270.31948  20242741.832    20242747.5704
  20820817.285      214969.714 9    235164.36647  20820816.519    20820823.9794
 01  7 19 17 56 30.0000000  0  9 03 15 26 23 06 22 21 18 17
  21869620.169   -18065715.560 8 -13545350.71547  21869619.607    21869627.4254
  20237483.077    -5936845.038 9  -4482536.48948  20237482.173    20237489.3064
  23072663.463     1986190.601 8   1556490.75246  23072663.098    23072670.9774
  21130675.448     -307031.487 9   -107399.31948  21130674.598    21130681.6984
  24041581.364    16800159.953 8  13082202.58445  24041581.009    24041592.7554
  24258376.799     6350420.194 8   4952000.86745  24258375.537    24258386.9104
  21718327.255   -18392105.698 9 -14313078.32847  21718326.516    21718334.7024
  20244602.208    -9868425.247 9  -7673655.21648  20244601.534    20244607.2444
  20827863.986      252000.286 9    264019.33547  20827863.180    20827870.6674
 01  7 19 17 57  0.0000000  0  9 03 15 26 23 06 22 21 18 17
  21858232.260   -18125559.740 8 -13591982.55547  21858231.681    21858239.4344
  20239719.792    -5925091.074 9  -4473377.56548  20239718.874    20239726.0214
  23087437.532     2063829.123 8   1616988.26946  23087437.160    23087445.1974
  21139373.817     -261321.168 9    -71780.90848  21139373.007    21139380.1264
  24062797.772    16911651.029 8  13169078.38945  24062797.331    24062809.1884
  24272772.051     6426067.079 8   5010946.37945  24272770.790    24272782.1834
  21708145.032   -18445613.521 9 -14354772.69847  21708144.304    21708152.4554
  20246543.962    -9858221.229 9  -7665704.03648  20246543.280    20246548.9794
  20834967.258      289328.039 9    293105.88447  20834966.453    20834973.9084
 01  7 19 17 57 30.0000000  0  9 03 15 26 23 06 22 21 18 17
  21846931.534   -18184945.148 8 -13638256.86647  21846930.994    21846938.7394
  20242020.387    -5913001.022 9  -4463956.76448  20242019.521    20242026.6694
  23102299.524     2141929.609 8   1677845.76546  23102299.251    23102307.2554
  21148125.516     -215330.748 9    -35944.24148  21148124.678    21148131.8344
  24084037.591    17023265.010 8  13256049.99245  24084037.078    24084048.8254
  24287203.624     6501904.941 7   5070040.69845  24287202.390    24287213.8144
  21698018.622   -18498828.045 9 -14396238.53147  21698017.895    21698026.0134
  20248567.720    -9847586.451 9  -7657417.19948  20248567.039    20248572.7334
  20842127.146      326953.387 9    322424.30947  20842126.346    20842133.7734
 01  7 19 17 58  0.0000000  0  9 03 15 26 23 06 22 21 18 17
  21835718.507   -18243870.077 8 -13684172.36347  21835717.917    21835725.6914
  20244384.971    -5900575.127 9  -4454274.26248  20244384.094    20244391.2574
  23117248.949     2220489.135 8   1739060.91346  23117248.662    23117256.8034
  21156930.109     -169062.339 9       109.04048  21156929.302    21156936.4134
  24105300.212    17134999.438 8  13343115.43245  24105299.728    24105311.5034
  24301670.861     6577931.088 8   5129281.72945  24301669.784    24301681.3164
  21687948.043   -18551749.295 9 -14437475.83247  21687947.307    21687955.4134
  20250673.110    -9836522.597 9  -7648796.01748  20250672.401    20250678.0884
  20849343.595      364876.136 9    351974.48247  20849342.810    20849350.2114
 01  7 19 17 58 30.0000000  0 10 03 15 26 23 06 22 21 18 31 17
  21824593.174   -18302333.937 8 -13729728.60747  21824592.589    21824600.3104
  20246813.337    -5887814.219 9  -4444330.71248  20246812.443    20246819.5954
  23132284.835     2299503.634 8   1800630.60746  23132284.632    23132292.8624
  21165787.079     -122518.898 9     36376.62848  21165786.221    21165793.3554
  24126585.034    17246850.507 7  13430271.76945  24126584.553    24126596.4704
  24316173.272     6654141.109 8   5188666.06145  24316172.074    24316183.7684
  21677933.047   -18604378.361 9 -14478485.46247  21677932.310    21677940.3934
  20252859.658    -9825031.960 9  -7639842.28348  20252858.978    20252864.6954
  24432700.047    -1459329.130 7  -1112006.53544  24432699.094    24432708.7084
  20856616.458      403095.172 9    381755.51947  20856615.685    20856623.0754
 01  7 19 17 59  0.0000000  0 10 03 15 26 23 06 22 21 18 31 17
  21813555.431   -18360337.435 8 -13774926.11647  21813554.880    21813562.6254
  20249304.950    -5874720.843 9  -4434128.09448  20249304.048    20249311.2074
  23147406.304     2378967.490 8   1862550.46346  23147406.054    23147414.3084
  21174695.495      -75704.996 9     72854.97048  21174694.664    21174701.7834
  24147891.025    17358813.191 7  13517515.05245  24147890.592    24147902.5134
  24330709.335     6730528.747 8   5248188.78745  24330708.201    24330719.8834
  21667973.192   -18656717.722 9 -14519269.34647  21667972.455    21667980.5304
  20255126.671    -9813118.676 9  -7630559.20748  20255125.988    20255131.7184
  24413441.534    -1560534.066 7  -1190867.48144  24413440.357    24413450.0274
  20863945.153      441607.780 9    411765.32447  20863944.412    20863951.7854
 01  7 19 17 59 30.0000000  0 10 03 15 26 23 06 22 21 18 31 17
  21802606.966   -18417872.053 8 -13819758.27447  21802606.380    21802614.0964
  20251861.122    -5861288.258 9  -4423661.16048  20251860.199    20251867.3644
  23162614.052     2458884.453 8   1924823.39846  23162613.846    23162621.9494
  21183656.296      -28615.882 9    109547.76048  21183655.411    21183662.5834
  24169219.069    17470891.569 7  13604848.47745  24169218.668    24169230.6184
  24345279.903     6807097.247 8   5307852.46345  24345278.744    24345290.4744
  21658069.534   -18708761.495 9 -14559822.90547  21658068.801    21658076.8524
  20257475.145    -9800777.446 9  -7620942.67448  20257474.472    20257480.1624
  24394223.688    -1661524.549 7  -1269561.30845  24394222.761    24394232.3184
  20871330.999      480420.394 9    442008.89747  20871330.209    20871337.5804
 01  7 19 18  0  0.0000000  0 11 03 15 14 26 23 06 22 21 18 31 17
  21791747.343   -18474939.859 8 -13864226.68947  21791746.788    21791754.4414
  20254481.074    -5847520.443 9  -4412933.00848  20254480.135    20254487.3314
  24649722.177    -5430662.253 7  -4205752.25845  24649721.053    24649734.2824
  23177906.646     2539247.751 8   1987444.10646  23177906.460    23177914.4974
  21192668.315       18742.706 9    146450.52848  21192667.492    21192674.6424
  24190567.929    17583079.274 7  13692267.08045  24190567.509    24190579.4144
  24359883.663     6883839.986 8   5367651.91345  24359882.524    24359894.1324
  21648221.474   -18760513.296 9 -14600148.94747  21648220.739    21648228.7704
  20259904.034    -9788013.529 9  -7610996.77148  20259903.371    20259909.0804
  24375046.069    -1762302.255 7  -1348089.31245  24375045.337    24375055.0154
  20878773.173      519529.153 9    472483.22947  20878772.387    20878779.7454
 01  7 19 18  0 30.0000000  0 11 03 15 14 26 23 06 22 21 18 31 17
  21780977.571   -18531535.348 8 -13908327.05747  21780976.983    21780984.6474
  20257165.562    -5833413.418 9  -4401940.53848  20257164.617    20257171.7934
  24627785.131    -5545940.606 7  -4295579.12845  24627784.160    24627797.3034
  23193284.272     2620058.158 8   2050413.21546  23193284.043    23193292.2294
  21201732.100       66372.860 9    183564.91848  21201731.217    21201738.3904
  24211937.865    17695377.641 7  13779771.92045  24211937.215    24211949.5924
  24374520.773     6960757.794 8   5427587.77145  24374519.681    24374531.2114
  21638429.588   -18811969.938 9 -14640245.00247  21638428.838    21638436.8724
  20262413.830    -9774824.478 9  -7600719.59548  20262413.163    20262418.8724
  24355910.427    -1862860.625 7  -1426446.41845  24355909.624    24355919.4344
  20886272.367      558937.620 9    503191.10247  20886271.575    20886278.9454
 01  7 19 18  1  0.0000000  0 11 03 15 14 26 23 06 22 21 18 31 17
  21770297.972   -18587657.012 8 -13952058.20047  21770297.387    21770305.0584
  20259914.504    -5818967.572 9  -4390684.04248  20259913.574    20259920.7724
  24605849.470    -5661211.120 7  -4385399.96445  24605848.686    24605861.6114
  23208746.613     2701312.208 8   2113728.03346  23208746.349    23208754.3944
  21210847.023      114272.179 9    220889.04948  21210846.177    21210853.3324
  24233328.218    17807783.751 7  13867360.70145  24233327.566    24233340.2894
  24389190.457     7037846.850 8   5487657.07445  24389189.365    24389200.8904
  21628693.745   -18863131.979 9 -14680111.48747  21628692.997    21628701.0084
  20265004.160    -9761212.322 9  -7590112.72048  20265003.480    20265009.1824
  24336816.800    -1963198.038 7  -1504631.34645  24336816.143    24336825.8484
  20893828.478      598645.292 9    534132.12547  20893827.704    20893835.0664
 01  7 19 18  1 30.0000000  0 11 03 15 14 26 23 06 22 21 18 31 17
  21759708.524   -18643305.030 9 -13995420.29347  21759707.947    21759715.6014
  20262727.610    -5804184.796 9  -4379165.02448  20262726.676    20262733.8654
  24583915.597    -5776473.452 7  -4475214.43145  24583914.750    24583927.5644
  23224292.287     2783004.965 8   2177384.67046  23224292.007    23224300.1604
  21220012.510      162436.741 9    258419.83748  21220011.632    21220018.7774
  24254738.275    17920293.122 7  13955029.93545  24254737.723    24254750.4844
  24403891.645     7115101.521 8   5547855.39145  24403890.597    24403902.0184
  21619013.654   -18914001.185 9 -14719749.81247  21619012.909    21619020.9104
  20267674.397    -9747180.260 9  -7579178.67548  20267673.731    20267679.4244
  24317765.440    -2063314.148 7  -1582643.86745  24317764.751    24317774.2444
  20901441.140      638650.034 9    565304.60947  20901440.384    20901447.7464
 01  7 19 18  2  0.0000000  0 11 03 15 14 26 23 06 22 21 18 31 17
  21749210.399   -18698473.296 9 -14038408.54747  21749209.795    21749217.4154
  20265605.733    -5789060.515 9  -4367379.88948  20265604.784    20265611.9684
  24561984.602    -5891720.817 8  -4565017.23545  24561983.763    24561996.5174
  23239921.617     2865138.033 8   2241384.40546  23239921.368    23239929.6574
  21229228.888      210869.105 9    296159.30748  21229228.031    21229235.1564
  24276168.454    18032907.563 7  14042781.03445  24276167.918    24276180.8454
  24418624.700     7192523.221 8   5608183.89145  24418623.589    24418635.0024
  21609390.110   -18964573.455 9 -14759156.75747  21609389.331    21609397.3144
  20270425.117    -9732725.298 9  -7567915.09148  20270424.427    20270430.1564
  24298757.481    -2163201.970 7  -1660478.46945  24298756.691    24298766.2204
  20909111.183      678956.206 9    596711.97847  20909110.444    20909117.7914
 01  7 19 18  2 30.0000000  0 11 03 15 14 26 23 06 22 21 18 31 17
  21738803.453   -18753162.113 9 -14081023.21147  21738802.850    21738810.4474
  20268548.388    -5773597.048 9  -4355330.46348  20268547.447    20268554.6074
  24540056.256    -6006952.854 8  -4654808.12945  24540055.584    24540068.2094
  23255633.795     2947706.047 8   2305723.08146  23255633.669    23255641.7574
  21238495.520      259565.282 9    334104.34348  21238494.646    21238501.7894
  24297617.847    18145622.315 8  14130610.29845  24297617.278    24297630.1064
  24433388.470     7270106.863 8   5668638.58245  24433387.447    24433398.8594
  21599822.542   -19014851.181 9 -14798334.19747  21599821.784    21599829.7404
  20273255.575    -9717851.207 9  -7556324.91448  20273254.928    20273260.6274
  24279792.994    -2262861.391 7  -1738135.11345  24279792.129    24279801.7244
  20916838.129      719561.466 9    628352.39747  20916837.405    20916844.7904
 01  7 19 18  3  0.0000000  0 11 03 15 14 26 23 06 22 21 18 31 17
  21728488.416   -18807368.011 9 -14123261.54547  21728487.781    21728495.3674
  20271555.896    -5757792.396 9  -4343015.15448  20271554.945    20271562.1144
  24518131.739    -6122165.638 7  -4744584.02345  24518131.141    24518143.5954
  23271428.702     3030707.928 8   2370399.84046  23271428.455    23271436.5614
  21247812.250      308524.970 9    372254.73148  21247811.376    21247818.4924
  24319085.943    18258436.619 8  14218517.14645  24319085.457    24319098.3624
  24448182.830     7347851.214 8   5729218.49045  24448181.736    24448193.2254
  21590311.384   -19064832.497 9 -14837280.63747  21590310.609    21590318.5864
  20276165.851    -9702557.647 9  -7544407.85748  20276165.193    20276170.9034
  24260872.537    -2362288.245 7  -1815610.52545  24260871.948    24260881.5074
  20924622.330      760467.454 9    660227.16547  20924621.566    20924629.0174
 01  7 19 18  3 30.0000000  0 11 03 15 14 26 23 06 22 21 18 31 17
  21718264.704   -18861093.780 9 -14165125.75047  21718264.079    21718271.6374
  20274627.482    -5741651.208 9  -4330437.60848  20274626.518    20274633.7034
  24496210.496    -6237361.167 7  -4834346.45745  24496209.877    24496222.3154
  23287304.511     3114136.012 8   2435408.72946  23287304.344    23287312.3854
  21257177.964      357741.820 9    410605.50548  21257177.072    21257184.1774
  24340571.682    18371343.663 8  14306496.26445  24340571.243    24340584.2454
  24463006.108     7425748.158 7   5789917.32545  24463004.984    24463016.5764
  21580855.589   -19114522.642 9 -14876000.18847  21580854.815    21580862.8114
  20279154.875    -9686850.467 9  -7532168.49848  20279154.194    20279159.8924
  24241996.040    -2461484.597 7  -1892906.31845  24241995.336    24242004.9514
  20932462.864      801669.618 9    692332.72447  20932462.078    20932469.5664
 01  7 19 18  4  0.0000000  0 11 03 15 14 26 23 06 22 21 18 31 17
  21708133.211   -18914335.038 9 -14206612.42347  21708132.603    21708140.1334
  20277763.626    -5725170.696 9  -4317595.65748  20277762.677    20277769.8634
  24474293.560    -6352534.207 7  -4924091.39345  24474293.010    24474305.4744
  23303261.473     3197990.203 8   2500749.60746  23303261.268    23303269.3774
  21266592.739      407216.831 9    449157.44347  21266591.835    21266598.9574
  24362075.171    18484343.516 8  14394547.70245  24362074.716    24362087.8204
  24477858.417     7503796.957 7   5850734.48445  24477857.292    24477868.8854
  21571455.816   -19163918.648 9 -14914490.54847  21571455.072    21571463.0604
  20282222.779    -9670728.565 9  -7519605.98348  20282222.080    20282227.7844
  24223164.358    -2560445.206 7  -1970018.39145  24223163.553    24223173.3994
  20940360.209      843170.590 9    724671.12847  20940359.441    20940366.9664
 01  7 19 18  4 30.0000000  0 11 03 15 14 26 23 06 22 21 18 31 17
  21698094.376   -18967089.392 9 -14247719.70147  21698093.782    21698101.3364
  20280964.430    -5708350.289 9  -4304488.85848  20280963.481    20280970.6864
  24452381.505    -6467681.798 7  -5013816.50645  24452380.930    24452393.3204
  23319298.996     3282267.909 8   2566420.51046  23319298.795    23319306.9454
  21276056.365      456948.684 9    487909.51847  21276055.493    21276062.6784
  24383595.870    18597434.302 7  14482669.96845  24383595.407    24383608.7484
  24492739.047     7581995.334 7   5911668.20745  24492737.890    24492749.5874
  21562112.070   -19213020.400 9 -14952751.62547  21562111.301    21562119.2564
  20285369.397    -9654192.750 9  -7506720.94148  20285368.731    20285374.4474
  24204378.124    -2659167.120 7  -2046944.49345  24204377.368    24204386.9444
  20948314.480      884970.706 9    757242.62547  20948313.744    20948321.2734
 01  7 19 18  5  0.0000000  0 11 03 15 14 26 23 06 22 21 18 31 17
  21688148.535   -19019354.928 9 -14288446.08547  21688147.947    21688155.5274
  20284230.050    -5691189.593 9  -4291116.90248  20284229.110    20284236.2734
  24430474.618    -6582801.457 7  -5103519.85845  24430474.165    24430486.5324
  23335416.440     3366966.314 8   2632419.23146  23335416.307    23335424.5024
  21285568.555      506935.699 9    526860.41447  21285567.708    21285574.9094
  24405133.355    18710613.613 7  14570861.23045  24405133.098    24405146.4544
  24507647.725     7660340.567 7   5972716.36645  24507646.489    24507658.2504
  21552824.257   -19261827.901 9 -14990783.41647  21552823.481    21552831.4374
  20288594.585    -9637244.426 9  -7493514.46748  20288593.909    20288599.5944
  24185637.843    -2757647.945 7  -2123682.73445  24185637.122    24185646.7224
  20956325.800      927070.043 9    790047.27847  20956325.038    20956332.5414
 01  7 19 18  5 30.0000000  0 11 03 15 14 26 23 06 22 21 18 31 17
  21678296.094   -19071129.858 9 -14328790.15947  21678295.498    21678303.1304
  20287560.468    -5673688.192 9  -4277479.45948  20287559.535    20287566.6654
  24408573.483    -6697890.669 7  -5193199.49545  24408573.127    24408585.5344
  23351613.456     3452082.539 8   2698743.52446  23351613.355    23351621.6704
  21295129.055      557176.216 9    566008.84847  21295128.199    21295135.3584
  24426687.292    18823879.120 7  14659119.64045  24426687.246    24426700.5724
  24522583.546     7738829.607 7   6033876.53745  24522582.460    24522594.3974
  21543592.502   -19310340.803 9 -15028585.65047  21543591.762    21543599.7064
  20291898.066    -9619884.686 9  -7479987.41248  20291897.382    20291903.0644
  24166943.830    -2855884.938 7  -2200230.97545  24166943.034    24166952.7734
  20964393.982      969468.721 9    823085.18147  20964393.243    20964400.7554
 01  7 19 18  6  0.0000000  0 11 03 15 14 26 23 06 22 21 18 31 17
  21668537.310   -19122412.613 9 -14368750.72047  21668536.724    21668544.3194
  20290955.643    -5655846.293 9  -4263576.69648  20290954.704    20290961.8884
  24386678.503    -6812946.998 7  -5282853.52745  24386678.404    24386690.4524
  23367889.458     3537613.501 8   2765391.00446  23367889.417    23367897.6524
  21304737.416      607668.405 9    605353.38547  21304736.538    21304743.7124
  24448257.449    18937228.429 7  14747443.34145  24448257.164    24448270.5914
  24537546.253     7817458.705 7   6095145.87445  24537545.042    24537556.9464
  21534416.789   -19358559.488 9 -15066158.62147  21534416.014    21534423.9434
  20295279.489    -9602115.015 9  -7466140.92948  20295278.821    20295284.5024
  24148296.761    -2953876.072 7  -2276587.66045  24148296.032    24148305.5304
  20972519.120     1012166.544 9    856356.18647  20972518.358    20972525.8954
 01  7 19 18  6 30.0000000  0 11 03 15 14 26 23 06 22 21 18 31 17
  21658872.607   -19173200.766 9 -14408325.89047  21658872.025    21658879.6054
  20294415.790    -5637663.144 9  -4249408.03248  20294414.879    20294422.0594
  24364790.849    -6927967.730 7  -5372479.82845  24364790.288    24364802.3834
  23384243.949     3623556.839 8   2832359.78246  23384243.905    23384252.2274
  21314393.386      658410.831 9    644892.91447  21314392.523    21314399.7054
  24469842.741    19050659.528 7  14835830.75545  24469842.381    24469856.1244
  24552535.142     7896225.202 7   6156522.26445  24552533.974    24552545.9214
  21525296.980   -19406484.043 9 -15103502.40447  21525296.218    21525304.1644
  20298738.746    -9583936.518 9  -7451975.87248  20298738.076    20298743.7464
  24129696.906    -3051618.167 7  -2352750.26945  24129696.259    24129705.7754
  20980701.258     1055163.738 9    889860.46847  20980700.473    20980707.9904
 01  7 19 18  7  0.0000000  0 11 03 15 14 26 23 06 22 21 18 31 17
  21649302.396   -19223492.571 9 -14447514.29247  21649301.800    21649309.3594
  20297940.869    -5619138.805 9  -4234973.49648  20297939.939    20297947.1664
  24342910.292    -7042949.946 7  -5462076.16245  24342909.606    24342921.5804
  23400676.217     3709909.418 8   2899647.44845  23400676.210    23400684.6084
  21324096.626      709401.751 9    684626.07247  21324095.766    21324103.0174
  24491443.056    19164170.147 7  14924280.16945  24491443.106    24491456.7684
  24567549.628     7975126.587 7   6218003.76845  24567548.420    24567560.4154
  21516233.189   -19454114.591 9 -15140617.08747  21516232.412    21516240.3634
  20302275.548    -9565350.614 9  -7437493.36848  20302274.868    20302280.5454
  24111145.087    -3149108.632 7  -2428716.80645  24111144.412    24111153.8384
  20988940.423     1098460.447 9    923598.13247  20988939.599    20988947.1134
 01  7 19 18  7 30.0000000  0 11 03 15 14 26 23 06 22 21 18 31 17
  21639826.989   -19273285.922 9 -14486314.32047  21639826.430    21639833.9384
  20301530.952    -5600272.835 9  -4220272.75748  20301530.023    20301537.2794
  24321037.315    -7157890.771 7  -5551640.24445  24321036.897    24321048.7804
  23417185.904     3796668.751 8   2967252.08145  23417185.950    23417194.4094
  21333846.871      760639.748 9    724551.76047  21333846.036    21333853.3194
  24513058.341    19277758.049 7  15012789.78845  24513058.552    24513071.9794
  24582589.400     8054160.290 7   6279588.40545  24582588.158    24582600.1604
  21507225.403   -19501450.459 9 -15177502.14947  21507224.658    21507232.5864
  20305889.667    -9546358.138 9  -7422694.04848  20305888.976    20305894.6724
  24092641.689    -3246344.449 7  -2504484.92645  24092641.102    24092650.4814
  20997236.548     1142057.023 9    957569.46347  20997235.756    20997243.3074
 01  7 19 18  8  0.0000000  0 10 03 15 14 26 23 22 21 18 31 17
  21630446.778   -19322579.372 9 -14524724.77647  21630446.204    21630453.7114
  20305186.010    -5581065.260 9  -4205305.83148  20305185.093    20305192.3574
  24299173.090    -7272788.210 8  -5641170.53145  24299172.443    24299184.3334
  23433772.531     3883831.447 8   3035171.02745  23433772.477    23433780.9394
  21343643.750      812122.702 9    764668.32447  21343642.913    21343650.2144
  24597653.292     8133322.182 7   6341272.77545  24597652.290    24597664.2644
  21498273.652   -19548492.420 9 -15214158.19647  21498272.876    21498280.7714
  20309580.900    -9526960.832 9  -7407579.27448  20309580.220    20309585.9064
  24074187.148    -3343323.623 7  -2580053.06045  24074186.468    24074195.9014
  21005589.746     1185952.986 9    991774.07047  21005588.903    21005596.5144
 01  7 19 18  8 30.0000000  0 10 03 15 14 26 23 22 21 18 31 17
  21621161.997   -19371371.249 9 -14562744.38947  21621161.432    21621168.9434
  20308906.119    -5561515.856 9  -4190072.53848  20308905.188    20308912.4794
  24277317.497    -7387639.674 8  -5730664.99145  24277316.703    24277328.5274
  23450435.319     3971394.753 8   3103402.13645  23450435.232    23450443.7424
  21353486.917      863848.953 9    804974.47247  21353486.109    21353493.4494
  24612741.200     8212609.840 7   6403055.45245  24612740.205    24612752.1244
  21489377.798   -19595240.156 9 -15250584.97747  21489377.054    21489384.9264
  20313348.839    -9507160.147 9  -7392150.17848  20313348.142    20313353.8474
  24055781.930    -3440043.669 7  -2655419.27745  24055781.179    24055790.5244
  21013999.850     1230148.475 9   1026212.08447  21013999.031    21014006.6644
 01  7 19 18  9  0.0000000  0 10 03 15 14 26 23 22 21 18 31 17
  21611973.003   -19419659.406 9 -14600371.50547  21611972.453    21611979.9764
  20312691.348    -5541624.258 9  -4174572.60448  20312690.447    20312697.7204
  24255471.103    -7502442.300 8  -5820121.40245  24255470.328    24255482.1014
  23467173.950     4059356.113 8   3171943.43045  23467173.884    23467182.2594
  21363376.213      915817.226 9    845469.21347  21363375.393    21363382.6294
  24627852.637     8292020.032 7   6464933.41945  24627851.533    24627863.4874
  21480538.066   -19641693.299 9 -15286782.20347  21480537.304    21480545.1934
  20317193.296    -9486957.211 9  -7376407.64648  20317192.620    20317198.3974
  24037426.469    -3536501.675 7  -2730581.28545  24037425.817    24037435.0984
  21022467.047     1274643.811 9   1060883.74247  21022466.259    21022473.8994
 01  7 19 18  9 30.0000000  0 10 03 15 14 26 23 22 21 18 31 17
  21602880.303   -19467441.967 9 -14637604.65447  21602879.718    21602887.2554
  20316541.868    -5521389.905 9  -4158805.59248  20316540.911    20316548.2004
  24233634.696    -7617192.931 8  -5909537.30645  24233633.845    24233645.6844
  23483987.716     4147712.867 8   3240792.77745  23483987.644    23483996.0554
  21373311.265      968026.174 9    886151.49347  21373310.435    21373317.6704
  24642986.729     8371550.692 7   6526905.28745  24642985.826    24642997.5994
  21471754.299   -19687852.207 9 -15322750.15947  21471753.545    21471761.3984
  20321114.134    -9466353.128 9  -7360352.53248  20321113.466    20321119.2224
  24019121.465    -3632694.796 7  -2805536.88645  24019120.649    24019130.0834
  21030991.443     1319439.360 9   1095789.32947  21030990.618    21030998.2484
 01  7 19 18 10  0.0000000  0 10 03 15 14 26 23 22 21 18 31 17
  21593883.951   -19514717.761 9 -14674442.91647  21593883.406    21593890.9414
  20320457.542    -5500812.946 9  -4142771.61248  20320456.561    20320463.8564
  24211808.662    -7731889.504 8  -5998911.08845  24211807.655    24211819.4264
  23500876.117     4236461.525 8   3309947.55045  23500876.002    23500884.2744
  21383291.735     1020473.743 9    927019.71047  21383290.906    21383298.1244
  24658143.300     8451198.261 7   6588968.23845  24658142.263    24658154.1654
  21463026.400   -19733717.374 9 -15358489.22647  21463025.677    21463033.5124
  20325110.988    -9445349.599 9  -7343986.16048  20325110.299    20325116.0844
  24000867.346    -3728621.004 7  -2880284.51145  24000866.566    24000875.8824
  21039572.726     1364534.504 9   1130928.36847  21039571.918    21039579.5554
 01  7 19 18 10 30.0000000  0 10 03 15 14 26 23 22 21 18 31 17
  21584984.576   -19561484.405 9 -14710884.43847  21584983.986    21584991.4984
  20324438.425    -5479892.914 9  -4126470.30248  20324437.465    20324444.7864
  24189993.309    -7846528.973 8  -6088240.36645  24189992.347    24190004.0764
  23517838.563     4325599.626 8   3379405.74745  23517838.450    23517846.7704
  21393317.360     1073158.783 9    968072.96947  21393316.515    21393323.7574
  24673321.598     8530959.731 7   6651119.96845  24673320.515    24673332.2714
  21454354.582   -19779288.139 9 -15393998.89047  21454353.840    21454361.6574
  20329183.719    -9423947.294 9  -7327309.04748  20329183.049    20329188.8074
  23982664.543    -3824276.965 7  -2954821.56845  23982663.748    23982673.1354
  21048211.149     1409929.870 9   1166301.34747  21048210.397    21048217.9984
 01  7 19 18 11  0.0000000  0 10 03 15 14 26 23 22 21 18 31 17
  21576182.567   -19607739.239 9 -14746927.15647  21576181.990    21576189.4744
  20328484.882    -5458628.780 9  -4109900.85948  20328483.923    20328491.2294
  24168189.527    -7961107.871 7  -6177522.45745  24168188.642    24168200.2894
  23534874.845     4415124.968 8   3449165.68845  23534874.764    23534882.9424
  21403388.020     1126080.312 9   1009310.49547  21403387.173    21403394.4414
  24688520.900     8610832.852 7   6713358.68545  24688519.903    24688531.7724
  21445738.874   -19824563.970 9 -15429278.74147  21445738.124    21445745.9514
  20333332.209    -9402147.063 9  -7310321.87448  20333331.507    20333337.2854
  23964513.731    -3919659.487 7  -3029145.56045  23964513.023    23964522.2474
  21056906.932     1455626.086 9   1201908.75547  21056906.137    21056913.6984
 01  7 19 18 11 30.0000000  0 10 03 15 14 26 23 22 21 18 31 17
  21567477.940   -19653482.345 9 -14782571.12847  21567477.366    21567484.7704
  20332596.504    -5437022.123 9  -4093064.51948  20332595.537    20332602.8594
  24146397.271    -8075625.418 7  -6266756.73045  24146396.509    24146408.0944
  23551984.022     4505033.116 8   3519223.94245  23551983.790    23551991.9434
  21413503.029     1179234.948 9   1050729.67147  21413502.191    21413509.5044
  24703740.805     8690813.473 7   6775681.16045  24703739.727    24703751.6844
  21437178.940   -19869546.613 9 -15464330.12947  21437178.200    21437186.0534
  20337555.805    -9379951.931 9  -7293026.97648  20337555.094    20337560.8664
  23946415.233    -4014767.547 8  -3103255.66745  23946414.522    23946423.6444
  21065659.664     1501621.656 9   1237749.42447  21065658.858    21065666.4094
 01  7 19 18 12  0.0000000  0 10 03 15 14 26 23 22 21 18 31 17
  21558871.145   -19698711.409 9 -14817814.53447  21558870.545    21558877.9664
  20336773.474    -5415072.190 9  -4075960.68648  20336772.485    20336779.8084
  24124617.379    -8190078.501 7  -6355940.75245  24124616.685    24124628.2954
  23569165.426     4595321.521 8   3589578.47945  23569165.127    23569173.3584
  21423662.168     1232621.749 9   1092329.76247  21423661.358    21423668.6584
  24718980.823     8770899.192 7   6838085.53545  24718979.696    24718991.5604
  21428674.859   -19914235.956 9 -15499152.97647  21428674.078    21428681.9174
  20341854.313    -9357362.917 9  -7275425.15848  20341853.638    20341859.4464
  23928369.543    -4109598.052 8  -3177149.49345  23928368.805    23928378.0624
  21074469.363     1547916.958 9   1273823.65247  21074468.579    21074476.1164
 01  7 19 18 12 30.0000000  0 10 03 15 14 26 23 22 21 18 31 17
  21550362.595   -19743424.249 9 -14852655.70547  21550361.955    21550369.3714
  20341015.907    -5392777.947 9  -4058588.56248  20341014.958    20341022.2454
  24102850.494    -8304463.778 7  -6445071.95245  24102849.825    24102861.3084
  23586418.635     4685988.229 8   3660227.79445  23586418.372    23586426.7114
  21433865.319     1286239.398 9   1134109.73547  21433864.484    21433871.8124
  24734240.161     8851087.557 7   6900569.88345  24734239.113    24734250.9214
  21420226.732   -19958631.174 9 -15533746.62947  21420225.996    21420233.7904
  20346227.728    -9334380.705 9  -7257516.95348  20346227.030    20346232.8154
  23910377.293    -4204147.890 8  -3250824.65245  23910376.531    23910385.6834
  21083336.371     1594512.746 9   1310132.01347  21083335.501    21083343.0104
 01  7 19 18 13  0.0000000  0 10 03 15 14 26 23 22 21 18 31 17
  21541952.537   -19787618.763 9 -14887092.97947  21541951.937    21541959.4354
  20345323.983    -5370138.853 9  -4040947.72948  20345323.046    20345330.3004
  24081097.110    -8418777.904 7  -6534147.70045  24081096.334    24081107.8654
  23603743.441     4777030.527 8   3731169.80545  23603743.119    23603751.6044
  21444112.184     1340086.975 9   1176068.86147  21444111.361    21444118.7084
  24749518.556     8931375.627 7   6963131.99845  24749517.585    24749529.4144
  21411834.729   -20002731.419 9 -15568110.44047  21411833.966    21411841.7694
  20350675.809    -9311005.771 9  -7239302.73248  20350675.131    20350680.9084
  23892438.931    -4298413.713 8  -3324278.46345  23892438.209    23892447.4544
  21092260.514     1641409.610 9   1346674.98147  21092259.672    21092267.1814
 01  7 19 18 13 30.0000000  0 10 03 15 14 26 23 22 21 18 31 17
  21533641.538   -19831293.387 9 -14921125.14647  21533640.941    21533648.4784
  20349697.661    -5347154.923 9  -4023038.19248  20349696.748    20349703.9954
  24059357.877    -8533018.713 7  -6623166.30945  24059356.954    24059368.4244
  23621139.028     4868445.319 8   3802402.04145  23621138.796    23621147.2814
  21454402.439     1394162.524 9   1218205.64147  21454401.597    21454408.8984
  24764815.358     9011760.398 7   7025769.39445  24764814.376    24764826.2954
  21403498.665   -20046537.414 9 -15602244.95747  21403497.907    21403505.7174
  20355198.298    -9287239.971 9  -7220783.94048  20355197.590    20355203.4084
  23874555.088    -4392393.077 8  -3397509.06345  23874554.510    23874563.7844
  21101241.988     1688607.312 9   1383452.37447  21101241.155    21101248.6574
 01  7 19 18 14  0.0000000  0 10 03 15 14 26 23 22 21 18 31 17
  21525429.571   -19874447.507 9 -14954751.72347  21525428.976    21525436.4774
  20354136.851    -5323827.060 9  -4004860.65248  20354135.925    20354143.1724
  24037632.623    -8647184.383 7  -6712126.37445  24037631.934    24037643.3394
  23638604.947     4960228.631 8   3873921.45145  23638604.604    23638613.1764
  21464735.559     1448463.529 9   1260518.09447  21464734.743    21464742.0954
  24780129.777     9092238.310 7   7088479.37745  24780128.723    24780140.9164
  21395218.403   -20090050.479 9 -15636151.22147  21395217.649    21395225.4384
  20359794.702    -9263085.758 9  -7201962.48748  20359794.018    20359799.8264
  23856726.089    -4486084.751 8  -3470515.51245  23856725.393    23856734.6954
  21110280.466     1736104.685 9   1420463.27247  21110279.648    21110287.1814
 01  7 19 18 14 30.0000000  0 10 03 15 14 26 23 22 21 18 31 17
  21517317.138   -19917078.546 9 -14987970.69747  21517316.532    21517324.0384
  20358641.732    -5300154.139 9  -3986414.23748  20358640.756    20358647.9764
  24015922.217    -8761271.180 8  -6801024.98745  24015921.724    24015933.1524
  23656140.536     5052378.512 8   3945726.46745  23656140.195    23656148.7984
  21475111.519     1502989.381 9   1303005.75847  21475110.680    21475118.0294
  24795461.768     9172807.533 7   7151260.50245  24795460.699    24795472.7554
  21386993.991   -20133269.670 9 -15669828.49447  21386993.243    21387001.0424
  20364464.938    -9238543.384 9  -7182838.57348  20364464.255    20364470.1074
  23838952.470    -4579484.959 7  -3543294.81145  23838951.797    23838961.3764
  21119376.154     1783902.930 9   1457708.61447  21119375.361    21119382.9394
 01  7 19 18 15  0.0000000  0 10 03 15 14 26 23 22 21 18 31 17
  21509304.512   -19959184.917 9 -15020780.84947  21509303.899    21509311.4444
  20363212.259    -5276135.965 9  -3967698.79748  20363211.282    20363218.5224
  23994227.606    -8875276.849 8  -6889860.38145  23994227.073    23994238.3094
  23673745.229     5144891.793 8   4017814.72045  23673744.928    23673753.4644
  21485529.948     1557738.369 9   1345667.28447  21485529.098    21485536.4524
  24810810.381     9253464.356 7   7214109.90445  24810809.304    24810821.3344
  21378825.505   -20176195.440 9 -15703277.12047  21378824.758    21378832.5594
  20369208.794    -9213614.656 9  -7163413.60148  20369208.101    20369213.9134
  23821234.879    -4672591.318 8  -3615845.16445  23821234.173    23821243.7534
  21128529.062     1832001.795 9   1495188.20947  21128528.314    21128535.9124
 01  7 19 18 15 30.0000000  0 10 03 15 14 26 23 22 21 18 31 17
  21501391.939   -20000765.595 9 -15053181.36447  21501391.347    21501398.9194
  20367848.441    -5251772.773 9  -3948714.51048  20367847.453    20367854.7094
  23972548.824    -8989199.256 8  -6978630.89545  23972548.221    23972559.4124
  23691418.394     5237765.140 8   4090183.49645  23691418.152    23691426.8094
  21495990.388     1612708.330 9   1388501.00547  21495989.556    21495996.9154
  24826174.867     9334205.107 7   7277024.69945  24826173.797    24826185.7844
  21370712.738   -20218828.223 9 -15736497.44847  21370711.974    21370719.7684
  20374025.712    -9188301.347 9  -7143688.96048  20374025.046    20374030.8524
  23803573.653    -4765401.560 7  -3688164.78045  23803572.989    23803582.4314
  21137739.146     1880400.707 9   1532901.60747  21137738.348    21137745.9504
 01  7 19 18 16  0.0000000  0  9 03 15 14 26 23 21 18 31 17
  21493580.099   -20041817.128 9 -15085169.57247  21493579.504    21493587.1034
  20372550.640    -5227062.588 9  -3929459.83348  20372549.637    20372556.9324
  23950886.812    -9103033.814 8  -7067332.96345  23950886.017    23950897.2404
  23709159.947     5330997.673 8   4162832.20945  23709159.721    23709168.2684
  21506492.974     1667899.658 9   1431507.21947  21506492.125    21506499.4834
  21362656.045   -20261166.468 9 -15769488.27147  21362655.282    21362663.0284
  20378916.015    -9162603.035 9  -7123664.31548  20378915.291    20378921.0524
  23785969.610    -4857911.045 8  -3760250.02745  23785968.947    23785978.4994
  21147006.665     1929101.758 9   1570850.44047  21147005.862    21147013.5084
 01  7 19 18 16 30.0000000  0  9 03 15 14 26 23 21 18 31 17
  21485869.165   -20082338.065 9 -15116744.31947  21485868.583    21485876.2284
  20377318.881    -5202005.284 9  -3909934.68448  20377317.906    20377325.2244
  23929241.820    -9216777.744 8  -7155964.42645  23929241.131    23929252.2074
  23726969.243     5424586.253 8   4235758.30445  23726969.141    23726977.4224
  21517037.286     1723310.708 9   1474684.64047  21517036.466    21517043.8554
  21354655.417   -20303210.023 9 -15802249.46447  21354654.650    21354662.3764
  20383879.285    -9136520.899 9  -7103340.58648  20383878.604    20383884.3474
  23768423.244    -4950117.270 8  -3832098.98045  23768422.564    23768432.1334
  21156331.686     1978104.810 9   1609034.58947  21156330.857    21156338.5514
 01  7 19 18 17  0.0000000  0  9 03 15 14 26 23 21 18 31 17
  21478259.147   -20122329.067 9 -15147906.13547  21478258.541    21478266.1994
  20382152.740    -5176603.088 9  -3890140.78048  20382151.770    20382159.1134
  23907614.208    -9330430.643 8  -7244524.92945  23907613.514    23907624.5984
  23744845.359     5518525.645 8   4308957.79745  23744845.305    23744853.5894
  21527622.726     1778937.523 9   1518030.18847  21527621.907    21527629.3144
  21346710.291   -20344961.679 9 -15834783.19747  21346709.531    21346717.2864
  20388914.863    -9110058.896 9  -7082720.85648  20388914.168    20388919.9254
  23750934.824    -5042020.100 8  -3903711.51345  23750934.021    23750943.6814
  21165713.656     2027407.487 9   1647452.21847  21165712.862    21165720.5854
 01  7 19 18 17 30.0000000  0  9 03 15 14 26 23 21 18 31 17
  21470750.160   -20161788.946 9 -15178654.08947  21470749.579    21470757.1824
  20387052.198    -5150856.167 9  -3870078.25848  20387051.238    20387058.5954
  23886004.369    -9443990.467 8  -7333012.93245  23886003.654    23886014.7034
  23762787.765     5612812.433 8   4382428.00145  23762787.634    23762795.7584
  21538248.930     1834778.225 9   1561542.41047  21538248.061    21538255.4824
  21338820.697   -20386421.758 9 -15867089.72947  21338819.912    21338827.6694
  20394022.339    -9083218.968 9  -7061806.63848  20394021.633    20394027.4234
  23733504.470    -5133617.261 8  -3975085.86945  23733503.667    23733513.2904
  21175152.689     2077009.533 9   1686103.12347  21175151.877    21175159.5784
 01  7 19 18 18  0.0000000  0  9 03 15 14 26 23 21 18 31 17
  21463342.710   -20200715.398 9 -15208986.38047  21463342.127    21463349.6794
  20392017.481    -5124763.457 9  -3849746.29348  20392016.541    20392023.9314
  23864412.988    -9557453.695 8  -7421425.64645  23864412.181    23864423.2284
  23780795.679     5707444.513 8   4456167.21445  23780795.479    23780803.7884
  21548915.614     1890831.980 9   1605220.63747  21548914.777    21548922.1774
  21330986.759   -20427589.306 9 -15899168.31847  21330985.996    21330993.7304
  20399201.666    -9056001.425 9  -7040598.17748  20399200.957    20399206.7794
  23716132.922    -5224905.312 7  -4046219.35645  23716132.113    23716141.6314
  21184648.774     2126911.656 9   1724987.84947  21184647.963    21184655.6944
 01  7 19 18 18 30.0000000  0  9 03 15 14 26 23 21 18 31 17
  21456037.194   -20239106.062 9 -15238901.18147  21456036.635    21456044.1474
  20397048.814    -5098323.675 9  -3829143.89048  20397047.848    20397055.2404
  23842840.644    -9670816.337 8  -7509759.98545  23842839.895    23842850.8524
  23798869.030     5802420.138 7   4530174.13945  23798868.795    23798877.0944
  21559622.790     1947098.312 9   1649064.51847  21559621.924    21559629.3214
  21323208.625   -20468463.427 9 -15931018.26647  21323207.870    21323215.6124
  20404452.782    -9028406.522 9  -7019095.66448  20404452.072    20404457.8884
  23698820.846    -5315880.562 8  -4117109.09045  23698820.108    23698829.5804
  21194202.119     2177114.945 9   1764107.25247  21194201.320    21194209.0694
 01  7 19 18 19  0.0000000  0  9 03 15 14 26 23 21 18 31 17
  21448833.769   -20276960.584 9 -15268398.20547  21448833.182    21448840.6934
  20402145.988    -5071537.844 9  -3808271.83748  20402145.039    20402152.4394
  23821287.750    -9784076.937 8  -7598014.79845  23821286.926    23821297.8884
  23817006.917     5897735.088 8   4604445.46545  23817006.650    23817014.9924
  21570369.814     2003574.511 9   1693071.91747  21570368.974    21570376.4034
  21315485.992   -20509046.128 9 -15962641.13247  21315485.247    21315492.9584
  20409775.193    -9000437.027 9  -6997301.27048  20409774.487    20409780.3224
  23681568.660    -5406541.450 8  -4187753.88945  23681567.932    23681577.3064
  21203812.540     2227618.226 9   1803460.41747  21203811.786    21203819.5224
 01  7 19 18 19 30.0000000  0  9 03 15 14 26 23 21 18 31 17
  21441733.075   -20314275.115 9 -15297474.45847  21441732.488    21441740.0074
  20407309.424    -5044403.743 9  -3787128.40248  20407308.494    20407315.8994
  23799754.942    -9897230.910 8  -7686186.53045  23799754.243    23799765.2214
  23835209.160     5993388.411 7   4678980.47845  23835208.809    23835217.1704
  21581156.959     2060261.243 9   1737243.39047  21581156.116    21581163.5084
  21307819.278   -20549334.812 9 -15994034.90047  21307818.554    21307826.2514
  20415169.025    -8972092.137 9  -6975214.35348  20415168.343    20415174.2224
  23664377.175    -5496883.431 8  -4258150.19545  23664376.463    23664385.6224
  21213480.556     2278423.479 9   1843048.88247  21213479.734    21213487.4434
 01  7 19 18 20  0.0000000  0  9 03 15 14 26 23 21 18 31 17
  21434734.881   -20351050.831 9 -15326130.86247  21434734.292    21434741.8194
  20412538.669    -5016923.822 9  -3765715.49348  20412537.774    20412545.1944
  23778242.690   -10010278.024 8  -7774274.98845  23778242.016    23778252.9544
  23853474.698     6089374.749 8   4753774.90145  23853474.303    23853482.8654
  21591983.371     2117154.268 9   1781575.59647  21591982.522    21591989.9324
  21300207.948   -20589332.810 9 -16025202.15247  21300207.173    21300214.8834
  20420633.515    -8943376.188 9  -6952838.30148  20420632.840    20420638.6884
  23647246.243    -5586906.496 8  -4328297.97045  23647245.553    23647254.6944
  21223205.442     2329528.098 9   1882870.62147  21223204.611    21223212.3334
 01  7 19 18 20 30.0000000  0  9 03 15 14 26 23 21 18 31 17
  21427839.765   -20387284.883 9 -15354365.17747  21427839.176    21427846.6974
  20417834.080    -4989096.395 9  -3744031.80148  20417833.158    20417840.5664
  23756751.691   -10123214.186 8  -7862276.98645  23756750.844    23756761.6794
  23871803.581     6185692.577 8   4828827.70045  23871803.214    23871811.6244
  21602849.074     2174253.600 9   1826068.56147  21602848.209    21602855.6224
  21292652.272   -20629038.324 9 -16056141.49547  21292651.504    21292659.1644
  20426168.692    -8914288.659 9  -6930172.70148  20426168.028    20426173.8784
  23630176.793    -5676606.528 8  -4398194.03145  23630176.080    23630185.3004
  21232987.625     2380933.819 9   1922926.98847  21232986.809    21232994.5824
 01  7 19 18 21  0.0000000  0  9 03 15 14 26 23 21 18 31 17
  21421047.950   -20422976.121 9 -15382176.53447  21421047.328    21421054.8784
  20423195.602    -4960921.604 9  -3722077.42948  20423194.667    20423202.0654
  23735281.970   -10236036.729 8  -7950190.45245  23735281.217    23735292.0574
  23890194.863     6282338.761 8   4904136.33745  23890194.482    23890202.8564
  21613753.652     2231557.459 9   1870720.90347  21613752.770    21613760.1564
  21285152.120   -20668451.819 9 -16086853.29547  21285151.346    21285159.0074
  20431774.225    -8884831.427 9  -6907219.02648  20431773.557    20431779.4184
  23613169.429    -5765981.056 8  -4467836.46845  23613168.654    23613177.7704
  21242827.059     2432640.158 9   1963217.59147  21242826.247    21242834.0254
 01  7 19 18 21 30.0000000  0  9 03 15 14 26 23 21 18 31 17
  21414359.635   -20458123.280 9 -15409563.92547  21414359.028    21414366.5144
  20428623.215    -4932399.346 9  -3699852.31348  20428622.279    20428629.6904
  23713834.478   -10348743.105 8  -8038013.39945  23713833.775    23713844.5064
  23908648.023     6379310.358 8   4979698.54145  23908647.628    23908656.0204
  21624696.818     2289064.180 9   1915531.31747  21624695.945    21624703.3324
  21277707.464   -20707573.757 9 -16117337.89947  21277706.650    21277714.3004
  20437449.861    -8855006.034 9  -6883978.47348  20437449.178    20437455.0094
  23596224.465    -5855027.415 8  -4537223.17945  23596223.694    23596232.7664
  21252723.685     2484647.124 9   2003742.44647  21252722.866    21252730.6834
 01  7 19 18 22  0.0000000  0  9 03 15 14 26 23 21 18 31 17
  21407775.304   -20492724.166 9 -15436525.64847  21407774.706    21407782.1774
  20434117.203    -4903528.435 9  -3677355.50948  20434116.266    20434123.6644
  23692409.843   -10461329.779 8  -8125743.06745  23692409.098    23692419.8164
  23927162.614     6476605.120 8   5055512.60645  23927162.250    23927170.6284
  21635678.470     2346773.087 9   1960499.27547  21635677.602    21635684.9944
  21270318.322   -20746403.612 9 -16147594.90447  21270317.546    21270325.2064
  20443195.397    -8824813.059 9  -6860451.49248  20443194.691    20443200.5054
  23579342.557    -5943742.164 8  -4606351.50545  23579341.822    23579350.8834
  21262677.640     2536955.487 9   2044502.17247  21262676.855    21262684.6924
 01  7 19 18 22 30.0000000  0  9 03 15 14 26 23 21 18 31 17
  21401294.903   -20526778.972 9 -15463061.86047  21401294.292    21401301.7304
  20439677.117    -4874310.665 9  -3654588.43348  20439676.207    20439683.6214
  23671008.168   -10573795.822 8  -8213378.75345  23671007.403    23671017.9684
  23945737.765     6574218.298 8   5131574.75045  23945737.531    23945745.9354
  21646697.927     2404680.709 9   2005622.07347  21646697.053    21646704.4234
  21262984.494   -20784942.920 9 -16177625.52447  21262983.733    21262991.3954
  20449010.241    -8794255.855 9  -6836640.69748  20449009.535    20449015.3594
  23562523.955    -6032124.577 8  -4675220.85945  23562523.105    23562532.2734
  21272688.651     2589563.412 9   2085495.31247  21272687.864    21272695.7324
 01  7 19 18 23  0.0000000  0  9 03 15 14 26 23 21 18 31 17
  21394919.019   -20560284.304 9 -15489169.90447  21394918.396    21394925.9524
  20445303.499    -4844743.894 9  -3631549.40048  20445302.572    20445309.9554
  23649630.379   -10686136.484 8  -8300916.72845  23649629.582    23649640.0794
  23964373.377     6672149.003 8   5207884.33645  23964373.109    23964381.5364
  21657755.345     2462787.868 9   2050900.35647  21657754.479    21657761.8554
  21255706.388   -20823189.609 9 -16207428.11547  21255705.601    21255713.2424
  20454894.570    -8763333.607 9  -6812545.44848  20454893.892    20454899.6994
  23545769.476    -6120169.997 8  -4743827.60745  23545768.583    23545777.6734
  21282757.120     2642472.920 9   2126723.45247  21282756.274    21282764.1344
 01  7 19 18 23 30.0000000  0  9 03 15 14 26 23 21 18 31 17
  21388647.399   -20593241.622 9 -15514850.93747  21388646.798    21388654.3964
  20450995.809    -4814830.663 9  -3608240.40648  20450994.871    20451002.2774
  23628276.343   -10798351.860 8  -8388357.07945  23628275.616    23628285.9844
  23983068.512     6770391.598 8   5284436.92845  23983068.236    23983076.5744
  21668849.969     2521090.277 9   2096330.77847  21668849.098    21668856.4974
  21248483.304   -20861146.916 9 -16237005.22847  21248482.562    21248490.2024
  20460847.579    -8732050.561 9  -6788169.06048  20460846.841    20460852.6414
  23529079.096    -6207878.577 8  -4812171.89645  23529078.208    23529087.2334
  21292882.370     2695681.201 9   2168184.40547  21292881.565    21292889.4354
 01  7 19 18 24  0.0000000  0  9 03 15 14 26 23 21 18 31 17
  21382480.928   -20625646.780 9 -15540101.71047  21382480.337    21382487.9054
  20456754.587    -4784567.950 9  -3584659.08448  20456753.674    20456761.0814
  23606946.998   -10910436.678 8  -8475695.68845  23606946.382    23606956.7094
  24001822.867     6868945.929 8   5361232.43545  24001822.604    24001831.0184
  21679981.936     2579589.255 9   2141914.36847  21679981.091    21679988.4984
  21241315.819   -20898812.392 9 -16266354.93147  21241315.044    21241322.6914
  20466869.394    -8700405.557 9  -6763510.62448  20466868.682    20466874.5374
  23512453.750    -6295245.033 8  -4880249.60145  23512452.848    23512461.8904
  21303064.913     2749190.967 9   2209880.28047  21303064.145    21303072.0424
 01  7 19 18 24 30.0000000  0  9 03 15 14 26 23 21 18 31 17
  21376419.588   -20657499.462 9 -15564921.98247  21376419.013    21376426.5274
  20462579.801    -4753956.456 9  -3560805.98648  20462578.861    20462586.2314
  23585643.279   -11022388.649 8  -8562930.78545  23585642.520    23585652.7524
  24020635.533     6967808.263 7   5438267.97045  24020635.411    24020644.0884
  21691150.945     2638282.459 9   2187649.30747  21691150.079    21691157.4704
  21234203.578   -20936187.194 9 -16295478.13947  21234202.807    21234210.4874
  20472959.742    -8668400.553 9  -6738571.67048  20472959.045    20472964.8634
  23495893.871    -6382267.520 8  -4948059.26645  23495892.962    23495902.0784
  21313304.726     2803001.416 9   2251810.45047  21313303.937    21313311.8644
 01  7 19 18 25  0.0000000  0  9 03 15 14 26 23 21 18 31 17
  21370463.606   -20688798.242 9 -15589310.64547  21370463.036    21370470.4874
  20468471.454    -4722995.923 9  -3536680.91048  20468470.493    20468477.8464
  23564365.137   -11134204.852 8  -8650060.08045  23564364.361    23564374.5944
  24039506.487     7066975.447 7   5515541.09945  24039506.257    24039514.7774
  21702356.554     2697168.394 9   2233534.42747  21702355.692    21702363.0764
  21227146.671   -20973271.324 9 -16324374.84947  21227145.913    21227153.5774
  20479118.384    -8636036.857 9  -6713353.22248  20479117.662    20479123.4884
  23479399.899    -6468943.272 8  -5015598.73845  23479398.981    23479408.1954
  21323601.742     2857112.495 8   2293974.87747  21323600.918    21323608.8944
 01  7 19 18 25 30.0000000  0 10 03 15 14 26 23 21 18 31 17 29
  21364613.237   -20719542.125 9 -15613266.91447  21364612.656    21364620.1324
  20474429.449    -4691686.696 9  -3512284.12648  20474428.478    20474435.8144
  23543113.246   -11245883.351 8  -8737082.08045  23543112.583    23543122.6264
  24058434.890     7166444.321 7   5593049.19945  24058434.673    24058443.2214
  21713598.524     2756245.194 9   2279568.27647  21713597.659    21713605.0304
  21220145.037   -21010065.214 9 -16353045.39447  21220144.260    21220151.9484
  20485344.890    -8603316.360 9  -6687856.74248  20485344.171    20485350.0214
  23462972.410    -6555270.038 8  -5082866.28145  23462971.473    23462980.6694
  21333955.917     2911523.826 8   2336373.27447  21333955.080    21333963.0954
  24467214.602    -2256655.479 7  -1745848.96345  24467214.270    24467228.1064
 01  7 19 18 26  0.0000000  0 10 03 15 14 26 23 21 18 31 17 29
  21358867.961   -20749733.689 9 -15636792.80847  21358867.394    21358874.8924
  20480453.150    -4660032.256 9  -3487618.34248  20480452.168    20480459.5184
  23521887.567   -11357424.811 8  -8823997.31245  23521886.787    23521896.8434
  24077419.467     7266208.421 7   5670787.41145  24077419.269    24077427.5854
  21724875.815     2815507.758 9   2325746.87547  21724874.942    21724882.3104
  21213197.822   -21046572.913 9 -16381492.93647  21213197.049    21213204.7254
  20491638.306    -8570244.215 9  -6662086.25548  20491637.605    20491643.4514
  23446611.127    -6641248.747 8  -5149862.62545  23446610.240    23446619.3794
  21344366.457     2966231.630 8   2379002.68447  21344365.653    21344373.6354
  24446059.704    -2367825.066 7  -1832474.44445  24446059.445    24446072.9904
 01  7 19 18 26 30.0000000  0 10 03 15 14 26 23 21 18 31 17 29
  21353229.008   -20779366.539 9 -15659883.34647  21353228.418    21353235.9584
  20486543.481    -4628027.355 9  -3462679.47648  20486542.512    20486549.8754
  23500689.260   -11468821.546 8  -8910799.75845  23500688.513    23500698.6134
  24096460.732     7366269.853 7   5748757.23145  24096460.488    24096468.7674
  21736189.176     2874959.882 9   2372073.18447  21736188.300    21736195.7214
  21206305.955   -21082789.622 9 -16409713.73147  21206305.190    21206312.8914
  20497999.329    -8536816.877 9  -6636038.99548  20497998.631    20498004.4804
  23430317.543    -6726871.661 8  -5216581.72345  23430316.719    23430325.8164
  21354834.433     3021241.168 8   2421867.21447  21354833.646    21354841.6224
  24424911.974    -2478956.734 7  -1919070.38245  24424911.726    24424925.1824
 01  7 19 18 27  0.0000000  0 10 03 15 14 26 23 21 18 31 17 29
  21347696.651   -20808439.578 9 -15682537.65847  21347696.038    21347703.5504
  20492700.476    -4595671.994 9  -3437467.52348  20492699.539    20492706.9324
  23479518.919   -11580070.800 8  -8997487.29946  23479518.288    23479528.3774
  24115557.878     7466625.582 7   5826956.41645  24115557.647    24115565.8264
  21747538.365     2934600.068 9   2418546.03547  21747537.473    21747544.8954
  21199469.528   -21118715.299 9 -16437707.74747  21199468.773    21199476.4574
  20504427.698    -8503035.766 9  -6609716.06248  20504426.971    20504432.8014
  23414092.266    -6812136.280 8  -5283021.62945  23414091.352    23414100.4224
  21365359.786     3076552.176 8   2464966.66147  21365359.020    21365366.9934
  24403771.930    -2590048.007 8  -2005634.83945  24403771.800    24403785.1154
 01  7 19 18 27 30.0000000  0 10 03 15 14 26 23 21 18 31 17 29
  21342270.730   -20836953.056 9 -15704755.95247  21342270.134    21342277.5964
  20498923.945    -4562967.634 9  -3411983.61948  20498922.961    20498930.3824
  23458377.119   -11691171.505 8  -9084059.08346  23458376.305    23458386.3964
  24134710.141     7567271.310 8   5905381.59045  24134709.928    24134718.2914
  21758922.723     2994425.319 9   2465163.08647  21758921.862    21758929.2914
  21192688.131   -21154351.678 9 -16465476.34147  21192687.368    21192695.0704
  20510922.781    -8468903.789 9  -6583119.73048  20510922.064    20510927.9064
  23397935.234    -6897041.537 8  -5349181.52245  23397934.337    23397943.3974
  21375942.280     3132163.123 8   2508299.82547  21375941.474    21375949.4444
  24382639.686    -2701098.209 7  -2092167.29445  24382639.520    24382652.8024
 01  7 19 18 28  0.0000000  0 10 03 15 14 26 23 21 18 31 17 29
  21336951.588   -20864905.247 9 -15726536.87947  21336950.996    21336958.4594
  20505213.949    -4529913.490 9  -3386227.15948  20505212.966    20505220.4174
  23437264.124   -11802120.288 8  -9170512.50246  23437263.281    23437273.3374
  24153917.175     7668204.581 8   5984030.82845  24153916.881    24153925.4364
  21770342.167     3054434.621 9   2511923.55847  21770341.286    21770348.6994
  21185961.832   -21189698.475 9 -16493019.28747  21185961.084    21185968.7594
  20517484.527    -8434421.696 9  -6556250.58348  20517483.802    20517489.6404
  23381847.274    -6981584.269 8  -5415058.92745  23381846.335    23381855.2754
  21386581.949     3188074.632 8   2551867.18047  21386581.138    21386589.0944
  24361515.782    -2812104.263 7  -2178665.32245  24361515.654    24361528.9614
 01  7 19 18 28 30.0000000  0 10 03 15 14 26 23 21 18 31 17 29
  21331739.482   -20892295.088 9 -15747879.61147  21331738.865    21331746.3914
  20511570.519    -4496509.490 9  -3360198.08648  20511569.546    20511577.0274
  23416180.553   -11912914.553 8  -9256845.51346  23416179.697    23416189.7624
  24173178.424     7769422.356 8   6062901.75845  24173178.117    24173186.5754
  21781796.239     3114626.555 9   2558826.33447  21781795.377    21781802.8704
  21179290.654   -21224755.832 9 -16520336.69447  21179289.883    21179297.5744
  20524112.504    -8399591.328 9  -6529110.05048  20524111.803    20524117.6604
  23365828.742    -7065761.953 8  -5480651.87045  23365827.844    23365836.7864
  21397278.740     3244286.374 8   2595668.49547  21397277.933    21397285.8774
  24340400.575    -2923063.843 7  -2265127.16945  24340400.582    24340413.8764
 01  7 19 18 29  0.0000000  0 10 03 15 14 26 23 21 18 31 17 29
  21326634.593   -20919121.648 9 -15768783.42447  21326633.969    21326641.4934
  20517993.618    -4462755.861 9  -3333896.57448  20517992.649    20518000.1484
  23395126.763   -12023551.817 8  -9343056.20846  23395126.041    23395136.0344
  24192493.231     7870921.504 8   6141991.89645  24192492.795    24192501.3644
  21793284.812     3174999.382 9   2605870.06147  21793283.973    21793291.5054
  21172674.310   -21259524.648 9 -16547429.26647  21172673.563    21172681.2564
  20530806.449    -8364414.328 9  -6501699.41648  20530805.779    20530811.6594
  23349880.017    -7149572.554 8  -5545958.78346  23349879.175    23349888.1104
  21408032.521     3300797.930 8   2639703.42847  21408031.738    21408039.7354
  24319294.746    -3033974.888 7  -2351551.22645  24319294.832    24319308.1604
 01  7 19 18 29 30.0000000  0 10 03 15 14 26 23 21 18 31 17 29
  21321637.098   -20945383.497 9 -15789247.20947  21321636.498    21321643.9954
  20524483.305    -4428652.349 9  -3307322.42448  20524482.327    20524489.8334
  23374103.605   -12134028.868 8  -9429142.06246  23374102.836    23374112.8184
  24211860.961     7972699.252 8   6221299.13445  24211860.468    24211869.1374
  21804807.695     3235551.996 9   2653053.89047  21804806.796    21804814.3174
  21166113.009   -21294004.617 9 -16574296.76447  21166112.255    21166119.9074
  20537566.231    -8328891.611 9  -6474019.38948  20537565.559    20537571.3944
  23334001.780    -7233013.157 8  -5610977.38546  23334000.957    23334009.9054
  21418843.499     3357609.737 8   2683972.31247  21418842.724    21418850.7244
  24298199.001    -3144834.468 7  -2437935.16945  24298198.807    24298212.1144
 01  7 19 18 30  0.0000000  0 10 03 15 14 26 23 21 18 31 17 29
  21316747.018   -20971081.194 9 -15809271.38647  21316746.423    21316753.9184
  20531039.359    -4394199.948 9  -3280476.41948  20531038.408    20531045.8834
  23353111.044   -12244344.673 8  -9515102.27146  23353110.279    23353120.2094
  24231280.904     8074751.393 8   6300820.19645  24231280.414    24231289.1894
  21816364.172     3296281.640 9   2700375.66147  21816363.286    21816370.8154
  21159606.370   -21328197.282 9 -16600940.38247  21159605.600    21159613.2624
  20544391.227    -8293026.258 9  -6446072.37248  20544390.544    20544396.3764
  23318194.287    -7316082.285 8  -5675706.54346  23318193.431    23318202.2844
  21429711.345     3414720.189 8   2728473.91647  21429710.540    21429718.5294
  24277113.321    -3255641.859 7  -2524278.41845  24277112.755    24277125.9764
 01  7 19 18 30 30.0000000  0 10 03 15 14 26 23 21 18 31 17 29
  21311964.670   -20996212.372 9 -15828854.12047  21311964.094    21311971.5924
  20537662.101    -4359397.286 9  -3253357.48148  20537661.163    20537668.6004
  23332150.067   -12354495.031 8  -9600933.56646  23332149.240    23332159.1434
  24250752.718     8177076.350 8   6380553.86745  24250752.333    24250761.0644
  21827954.329     3357188.274 9   2747835.34347  21827953.452    21827961.0044
  21153154.624   -21362101.477 9 -16627359.22047  21153153.856    21153161.5074
  20551281.362    -8256818.452 9  -6417858.51048  20551280.674    20551286.4934
  23302458.144    -7398776.066 8  -5740143.20146  23302457.304    23302466.2564
  21440636.163     3472130.482 8   2773209.15247  21440635.387    21440643.3844
  24256038.020    -3366393.068 7  -2610577.89745  24256037.455    24256050.4764
 01  7 19 18 31  0.0000000  0 10 03 15 14 26 23 21 18 31 17 29
  21307290.359   -21020776.060 9 -15847994.65947  21307289.750    21307297.2944
  20544351.418    -4324244.684 9  -3225965.86648  20544350.502    20544357.9374
  23311220.967   -12464477.618 8  -9686634.13546  23311220.139    23311229.9934
  24270275.819     8279670.788 7   6460497.47145  24270275.448    24270284.2714
  21839577.839     3418270.081 9   2795431.52747  21839576.965    21839584.5574
  21146757.570   -21395718.173 9 -16653554.03247  21146756.805    21146764.4314
  20558236.271    -8220270.150 9  -6389379.32748  20558235.580    20558241.4054
  23286793.862    -7481092.329 8  -5804285.69646  23286792.978    23286801.9894
  21451617.992     3529840.262 8   2818177.76347  21451617.204    21451625.2144
  24234973.663    -3477086.186 7  -2696832.13345  24234973.197    24234986.1064
 01  7 19 18 31 30.0000000  0 10 03 15 14 26 23 21 18 31 17 29
  21302724.182   -21044771.451 9 -15866692.36947  21302723.571    21302731.1284
  20551107.361    -4288742.081 9  -3198301.52348  20551106.425    20551113.8874
  23290324.218   -12574289.839 8  -9772201.95246  23290323.425    23290333.2494
  24289849.566     8382531.520 7   6540648.62345  24289849.218    24289858.0354
  21851234.393     3479525.442 9   2843162.94147  21851233.495    21851241.0764
  21140415.090   -21429047.839 9 -16679525.18747  21140414.336    21140421.9614
  20565255.723    -8183382.645 9  -6360635.83248  20565255.030    20565260.8984
  23271201.719    -7563029.071 8  -5868132.46346  23271200.873    23271209.8574
  21462656.765     3587849.169 8   2863379.45647  21462655.972    21462663.9604
  24213920.887    -3587718.925 7  -2783039.30745  24213920.272    24213933.2444
 01  7 19 18 32  0.0000000  0 10 03 15 14 26 23 21 18 31 17 29
  21298266.494   -21068196.812 9 -15884945.90147  21298265.917    21298273.4184
  20557930.022    -4252888.906 9  -3170364.00448  20557929.082    20557936.5594
  23269460.591   -12683928.004 8  -9857634.14346  23269459.899    23269469.6594
  24309473.762     8485656.459 7   6621005.65445  24309473.252    24309482.0264
  21862923.925     3540953.771 9   2891029.14247  21862922.983    21862930.5244
  21134127.408   -21462089.647 9 -16705272.03447  21134126.659    21134134.2994
  20572339.615    -8146156.496 9  -6331628.45948  20572338.936    20572344.7994
  23255682.458    -7644582.646 8  -5931680.67046  23255681.706    23255690.6624
  21473752.580     3646157.851 8   2908814.73447  21473751.771    21473759.7294
  24192879.836    -3698288.209 7  -2869197.07045  24192879.578    24192892.2594
 01  7 19 18 32 30.0000000  0 10 03 15 14 26 23 21 18 31 17 29
  21293917.320   -21091051.670 9 -15902754.88847  21293916.748    21293924.2734
  20564819.301    -4216685.510 9  -3142153.58948  20564818.362    20564825.8324
  23248630.291   -12793390.325 8  -9942929.31246  23248629.779    23248639.4644
  24329147.338     8589042.184 7   6701565.81945  24329146.951    24329155.6964
  21874645.844     3602553.115 9   2939028.59947  21874644.938    21874652.5324
  21127894.269   -21494845.072 9 -16730795.72347  21127893.494    21127901.1504
  20579487.557    -8108593.950 9  -6302358.95648  20579486.868    20579492.7514
  23240236.592    -7725751.109 8  -5994928.77546  23240235.860    23240244.8134
  21484905.308     3704765.623 8   2954483.07847  21484904.540    21484912.4994
  24171851.631    -3808792.126 7  -2955303.85045  24171851.336    24171864.0004
 01  7 19 18 33  0.0000000  0 10 03 15 14 26 23 21 18 31 17 29
  21289676.904   -21113335.076 9 -15920118.59147  21289676.334    21289683.9394
  20571775.259    -4180131.769 9  -3113670.18648  20571774.317    20571781.7694
  23227834.441   -12902673.865 8 -10028085.17546  23227833.706    23227843.3124
  24348870.117     8692685.788 7   6782327.01945  24348869.819    24348878.3424
  21886400.049     3664322.254 9   2987160.36247  21886399.221    21886406.7914
  21121715.685   -21527313.404 9 -16756095.71447  21121714.961    21121722.6014
  20586699.235    -8070696.354 9  -6272828.38048  20586698.555    20586704.4514
  23224864.482    -7806531.690 8  -6057874.63246  23224863.751    23224872.7194
  21496115.000     3763672.596 8   3000384.56047  21496114.200    21496122.1684
  24150836.509    -3919228.039 8  -3041357.63545  24150835.925    24150848.5294
 01  7 19 18 33 30.0000000  0 10 03 15 14 26 23 21 18 31 17 29
  21285544.947   -21135048.724 9 -15937038.32647  21285544.344    21285551.9554
  20578797.395    -4143230.346 9  -3084915.85448  20578796.446    20578803.9244
  23207072.422   -13011778.330 8 -10113101.49446  23207071.718    23207081.2604
  24368640.809     8796581.705 7   6863284.78945  24368640.581    24368649.3744
  21898185.910     3726256.976 9   3035421.16647  21898185.062    21898192.6114
  21115591.151   -21559498.209 9 -16781174.76448  21115590.391    21115598.0634
  20593973.889    -8032467.493 9  -6243039.67148  20593973.239    20593979.1274
  23209566.126    -7886924.764 8  -6120518.52546  23209565.392    23209574.3504
  21507381.047     3822875.811 8   3046516.88547  21507380.231    21507388.2254
  24129833.899    -4029596.247 8  -3127358.65545  24129833.364    24129845.9514
 01  7 19 18 34  0.0000000  0 10 03 15 14 26 23 21 18 31 17 29
  21281522.330   -21156187.981 9 -15953510.48447  21281521.729    21281529.3014
  20585886.406    -4105977.568 9  -3055887.74248  20585885.448    20585892.9294
  23186345.676   -13120697.342 8 -10197973.31546  23186345.008    23186354.5014
  24388459.721     8900730.481 7   6944439.59345  24388459.451    24388468.2874
  21910003.707     3788359.732 9   3083812.88847  21910002.821    21910010.4274
  21109521.209   -21591395.979 9 -16806030.15747  21109520.463    21109528.0754
  20601312.034    -7993905.510 9  -6212991.38648  20601311.369    20601317.2724
  23194342.718    -7966923.934 8  -6182855.51146  23194341.952    23194350.9484
  21518704.157     3882378.812 8   3092882.80247  21518703.352    21518711.3264
  24108845.415    -4139890.686 8  -3213302.16845  24108844.875    24108857.4834
 01  7 19 18 34 30.0000000  0 10 03 15 14 26 23 21 18 31 17 29
  21277608.992   -21176752.889 9 -15969535.08847  21277608.368    21277615.9184
  20593042.127    -4068374.198 9  -3026586.43948  20593041.154    20593048.6104
  23165654.559   -13229429.508 8 -10282699.53146  23165653.802    23165663.3204
  24408325.953     9005128.533 7   7025788.62345  24408325.647    24408334.6014
  21921853.049     3850628.049 9   3132333.62147  21921852.157    21921859.7304
  21103505.697   -21623007.630 9 -16830662.60447  21103504.928    21103512.5824
  20608713.032    -7955012.960 9  -6182685.52248  20608712.385    20608718.2964
  23179194.588    -8046527.732 8  -6244884.39046  23179193.848    23179202.8484
  21530084.115     3942180.531 8   3139481.49347  21530083.313    21530091.2234
  24087871.308    -4250109.940 8  -3299187.07245  24087870.675    24087883.3254
 01  7 19 18 35  0.0000000  0 10 03 15 14 26 23 21 18 31 17 29
  21273805.064   -21196742.698 9 -15985111.56947  21273804.452    21273811.9884
  20600264.560    -4030420.273 9  -2997011.97548  20600263.584    20600271.0274
  23144999.517   -13337972.008 8 -10367277.95546  23144998.711    23145008.2194
  24428239.165     9109772.802 7   7107329.51545  24428238.761    24428248.0034
  21933733.635     3913060.530 9   3180982.28647  21933732.713    21933740.2654
  21097544.526   -21654333.644 9 -16855072.47148  21097543.774    21097551.4254
  20616176.695    -7915791.332 9  -6152123.22948  20616176.048    20616181.8954
  23164122.151    -8125733.764 8  -6306603.33946  23164121.412    23164130.4104
  21541520.794     4002280.723 8   3186312.76347  21541520.006    21541527.9814
  24066911.901    -4360251.632 8  -3385011.51845  24066911.264    24066923.7934
 01  7 19 18 35 30.0000000  0 10 03 15 14 26 23 21 18 31 17 29
  21270110.813   -21216156.097 9 -16000238.89647  21270110.199    21270117.7664
  20607553.766    -3992115.388 9  -2967164.03848  20607552.808    20607560.2334
  23124381.154   -13446321.663 8 -10451706.09546  23124380.315    23124389.8344
  24448198.701     9214660.890 8   7189060.42845  24448198.414    24448207.4954
  21945645.111     3975656.264 9   3229758.15747  21945644.246    21945651.8344
  21091637.745   -21685373.828 9 -16879259.61848  21091636.974    21091644.6454
  20623702.763    -7876241.665 9  -6121305.32548  20623702.108    20623707.9814
  23149126.018    -8204538.974 8  -6368009.96646  23149125.284    23149134.2604
  21553014.322     4062679.763 8   3233376.88847  21553013.559    21553021.6234
  24045967.493    -4470312.893 7  -3470773.31345  24045967.064    24045979.7564
 01  7 19 18 36  0.0000000  0 10 03 15 14 26 23 21 18 31 17 29
  21266526.252   -21234993.174 9 -16014917.14047  21266525.621    21266533.2084
  20614909.572    -3953460.450 9  -2937043.33448  20614908.596    20614916.0464
  23103799.685   -13554476.902 8 -10535982.74946  23103798.933    23103808.4374
  24468204.074     9319788.874 7   7270978.22645  24468203.775    24468212.8264
  21957587.290     4038412.919 9   3278659.43047  21957586.469    21957594.0544
  21085785.126   -21716129.519 9 -16903225.08448  21085784.355    21085792.0294
  20631290.817    -7836366.308 9  -6090233.63048  20631290.145    20631296.0124
  23134206.389    -8282941.935 8  -6429103.14546  23134205.603    23134214.6474
  21564564.587     4123376.538 8   3280673.02447  21564563.813    21564571.9404
  24025038.974    -4580292.398 7  -3556471.36745  24025038.442    24025051.1324
 01  7 19 18 36 30.0000000  0 10 03 15 14 26 23 21 18 31 17 29
  21263051.594   -21253252.731 9 -16029145.36647  21263050.986    21263058.5334
  20622332.167    -3914454.611 9  -2906649.19848  20622331.167    20622338.6674
  23083256.063   -13662433.862 8 -10620104.89546  23083255.295    23083264.7814
  24488254.494     9425154.620 7   7353081.30245  24488254.055    24488263.2214
  21969560.043     4101330.020 9   3327685.70847  21969559.260    21969566.8364
  21079986.758   -21746600.299 9 -16926968.53948  21079986.009    21079993.6514
  20638940.637    -7796166.241 9  -6058908.91848  20638939.979    20638945.8314
  23119364.040    -8360939.020 8  -6489880.04246  23119363.228    23119372.2774
  21576171.626     4184371.584 8   3328201.57547  21576170.818    21576178.9454
  24004126.575    -4690186.757 7  -3642103.08745  24004126.119    24004138.7414
 01  7 19 18 37  0.0000000  0 10 03 15 14 23 09 21 18 31 17 29
  21259686.483   -21270936.547 9 -16042924.96247  21259685.876    21259693.4184
  20629821.003    -3875100.402 9  -2875983.60948  20629820.013    20629827.5644
  23062750.087   -13770192.795 8 -10704072.74146  23062749.371    23062758.8064
  21981562.623     4164403.675 9   3376833.98147  21981561.791    21981569.3954
  24414036.607    -3118906.266 7  -2420063.49345  24414036.144    24414046.6244
  21074242.009   -21776789.141 9 -16950492.30648  21074241.216    21074248.8724
  20646651.548    -7755645.236 9  -6027334.12748  20646650.891    20646656.7894
  23104598.836    -8438530.571 8  -6550340.95846  23104597.950    23104606.9334
  21587834.826     4245662.164 8   3375960.41247  21587834.024    21587842.1744
  23983230.299    -4799996.180 7  -3727668.60445  23983229.877    23983242.5084
 01  7 19 18 37 30.0000000  0 10 03 15 14 23 09 21 18 31 17 29
  21256431.854   -21288039.667 9 -16056252.07647  21256431.249    21256438.8174
  20637376.908    -3835393.773 9  -2845043.40648  20637375.922    20637383.5294
  23042283.126   -13877746.865 8 -10787880.94446  23042282.410    23042291.7394
  21993595.464     4227636.447 9   3426106.23547  21993594.611    21993602.2594
  24402184.009    -3181192.464 7  -2468598.06645  24402183.451    24402193.7754
  21068551.679   -21806692.067 9 -16973793.28548  21068550.926    21068558.5464
  20654424.027    -7714800.592 9  -5995507.14748  20654423.370    20654429.2534
  23089911.890    -8515710.273 8  -6610480.95146  23089911.087    23089920.0984
  21599555.049     4307252.157 8   3423952.55247  21599554.260    21599562.4244
  23962351.222    -4909714.260 7  -3813162.93945  23962350.910    23962363.6074
 01  7 19 18 38  0.0000000  0 10 03 15 14 23 09 21 18 31 17 29
  21253287.525   -21304563.019 9 -16069127.42347  21253286.926    21253294.5224
  20644999.570    -3795336.433 9  -2813829.92348  20644998.595    20645006.2184
  23021855.381   -13985094.981 8 -10871528.69046  23021854.632    23021863.9174
  22005657.927     4291025.256 9   3475500.07947  22005657.041    22005664.7514
  24390394.412    -3243145.908 7  -2516873.37345  24390393.842    24390404.4594
  21062915.440   -21836310.878 9 -16996872.87448  21062914.668    21062922.2774
  20662257.467    -7673635.863 9  -5963430.76148  20662256.797    20662262.6634
  23075303.674    -8592477.100 8  -6670299.21346  23075302.890    23075311.7464
  21611331.876     4369139.605 8   3472176.47547  21611331.077    21611339.2744
  23941489.609    -5019340.359 8  -3898585.60045  23941489.463    23941502.2724
 01  7 19 18 38 30.0000000  0 10 03 15 14 23 09 21 18 31 17 29
  21250253.771   -21320505.479 9 -16081550.12847  21250253.176    21250260.7774
  20652689.068    -3754928.044 9  -2782342.89648  20652688.071    20652695.7214
  23001467.334   -14092234.130 8 -10955013.58846  23001466.616    23001475.8554
  22017749.890     4354569.100 9   3525014.73047  22017749.079    22017756.8174
  24378668.843    -3304763.402 8  -2564886.92445  24378668.279    24378678.9624
  21057333.166   -21865645.906 9 -17019731.33448  21057332.382    21057340.0094
  20670151.569    -7632152.018 9  -5931105.71448  20670150.912    20670156.7934
  23060774.519    -8668828.288 8  -6729793.61046  23060773.659    23060782.5654
  21623165.352     4431324.808 8   3520632.41947  21623164.574    21623172.8114
  23920646.447    -5128871.612 7  -3983934.35945  23920646.121    23920658.9034
 01  7 19 18 39  0.0000000  0 10 03 15 14 23 09 21 18 31 17 29
  21247330.499   -21335867.395 9 -16093520.46447  21247329.930    21247337.4984
  20660445.031    -3714170.118 9  -2750583.50448  20660444.062    20660451.6764
  22981119.316   -14199162.739 8 -11038334.44446  22981118.653    22981127.8554
  22029870.937     4418265.606 8   3574648.33347  22029870.088    22029877.8884
  24367007.658    -3366043.019 7  -2612637.16645  24367006.982    24367017.6434
  21051804.515   -21894699.040 9 -17042370.13848  21051803.770    21051811.3804
  20678105.972    -7590351.555 9  -5898533.94848  20678105.286    20678111.1794
  23046324.594    -8744762.675 8  -6788963.21646  23046323.812    23046332.7254
  21635055.158     4493806.300 8   3569319.24047  21635054.423    21635062.7214
  23899821.638    -5238306.812 7  -4069208.26545  23899821.148    23899833.7604
 01  7 19 18 39 30.0000000  0 10 03 15 14 23 09 21 18 31 17 29
  21244517.939   -21350647.565 9 -16105037.48547  21244517.376    21244524.9204
  20668267.798    -3673061.406 9  -2718550.77448  20668266.817    20668274.4154
  22960812.124   -14305877.215 8 -11121488.44746  22960811.451    22960820.6144
  22042021.049     4482114.422 8   3624400.62147  22042020.157    22042027.9524
  24355411.587    -3426980.621 7  -2660120.94545  24355410.970    24355421.4644
  21046329.758   -21923469.066 9 -17064788.33048  21046328.990    21046336.6164
  20686120.486    -7548235.189 9  -5865716.02048  20686119.787    20686125.6694
  23031954.737    -8820277.013 8  -6847805.51546  23031953.880    23031962.7824
  21647001.559     4556584.861 8   3618237.53847  21647000.823    21647009.1294
  23879015.561    -5347642.465 7  -4154404.61745  23879015.103    23879027.5344
 01  7 19 18 40  0.0000000  0 10 03 15 14 23 09 21 18 31 17 29
  21241815.902   -21364847.045 9 -16116102.01947  21241815.317    21241822.8614
  20676156.942    -3631603.623 9  -2686246.03648  20676155.985    20676163.6044
  22940545.821   -14412376.634 8 -11204474.87446  22940545.172    22940554.3634
  22054199.600     4546112.520 9   3674269.24047  22054198.676    22054206.3884
  24343880.796    -3487574.985 8  -2707337.21445  24343880.102    24343890.4094
  21040908.402   -21951958.061 9 -17086987.54148  21040907.643    21040915.2794
  20694194.517    -7505805.967 9  -5832654.31048  20694193.818    20694199.7214
  23017664.895    -8895370.295 8  -6906319.72846  23017664.062    23017672.8964
  21659004.136     4619658.536 8   3667385.79447  21659003.394    21659011.7274
  23858228.660    -5456878.132 7  -4239523.03645  23858227.913    23858240.3054
 01  7 19 18 40 30.0000000  0 10 03 15 14 23 09 21 18 31 17 29
  21239225.063   -21378461.984 9 -16126711.07547  21239224.481    21239232.0134
  20684113.060    -3589793.930 9  -2653667.08348  20684112.107    20684119.7174
  22920321.624   -14518655.655 8 -11287289.55846  22920320.842    22920329.9854
  22066406.675     4610261.474 8   3724255.39347  22066405.775    22066413.5634
  24332416.386    -3547820.589 8  -2754281.76545  24332415.619    24332425.9554
  21035541.065   -21980163.578 9 -17108965.86748  21035540.328    21035547.9354
  20702328.267    -7463062.848 9  -5799348.00248  20702327.557    20702333.4614
  23003456.217    -8970037.310 8  -6964501.78846  23003455.439    23003464.1904
  21671063.324     4683029.856 8   3716765.98447  21671062.595    21671070.9394
  23837461.459    -5566008.456 8  -4324559.39045  23837460.979    23837473.3174
 01  7 19 18 41  0.0000000  0 10 03 15 14 23 09 21 18 31 17 29
  21236745.241   -21391493.622 9 -16136865.61047  21236744.648    21236752.1764
  20692135.868    -3547634.034 9  -2620815.24848  20692134.903    20692142.4844
  22900139.516   -14624712.714 8 -11369931.29746  22900138.714    22900147.7954
  22078641.854     4674558.276 8   3774356.76547  22078641.025    22078648.8464
  24321018.734    -3607715.813 8  -2800953.32145  24321018.010    24321028.3774
  21030227.322   -22008087.835 9 -17130725.02448  21030226.547    21030234.1284
  20710521.232    -7420008.527 9  -5765799.20748  20710520.505    20710526.4524
  22989328.833    -9044277.371 8  -7022351.15146  22989327.970    22989336.7684
  21683178.839     4746697.164 8   3766376.81347  21683178.088    21683186.4704
  23816714.691    -5675032.536 8  -4409512.98145  23816714.312    23816726.3504
 01  7 19 18 41 30.0000000  0 10 03 15 14 23 09 21 18 31 17 29
  21234376.445   -21403941.609 9 -16146565.34847  21234375.857    21234383.4504
  20700225.298    -3505123.997 9  -2587690.57348  20700224.343    20700231.9184
  22880000.045   -14730545.715 8 -11452398.44546  22879999.256    22880008.2454
  22090904.970     4739001.473 8   3824572.20147  22090904.165    22090912.0244
  24309687.990    -3667258.017 8  -2847349.73745  24309687.274    24309697.7934
  21024966.927   -22035731.273 9 -17152265.36348  21024966.159    21024973.7624
  20718773.115    -7376644.890 9  -5732009.38348  20718772.392    20718778.3084
  22975283.074    -9118088.119 8  -7079865.97446  22975282.253    22975290.9234
  21695350.691     4810659.990 8   3816217.91647  21695349.921    21695358.2674
  23795988.533    -5783948.280 8  -4494382.13345  23795988.170    23796000.1284
 01  7 19 18 42  0.0000000  0 10 03 15 14 23 09 21 18 31 17 29
  21232118.909   -21415804.856 9 -16155809.44847  21232118.330    21232125.9024
  20708381.354    -3462263.622 9  -2554292.91148  20708380.417    20708388.0134
  22859903.905   -14836151.272 8 -11534688.37046  22859903.129    22859912.0144
  22103195.873     4803590.156 8   3874901.02147  22103195.006    22103202.8514
  24298425.247    -3726443.730 8  -2893468.41245  24298424.601    24298434.9454
  21019760.111   -22063093.391 9 -17173586.48848  21019759.343    21019766.9444
  20727083.673    -7332972.903 9  -5697979.28648  20727082.919    20727088.8134
  22961319.683    -9191466.671 8  -7137044.05546  22961318.790    22961327.3294
  21707578.855     4874918.553 8   3866289.46947  21707578.026    21707586.3704
  23775283.452    -5892752.889 8  -4579164.69245  23775283.065    23775295.0204
 01  7 19 18 42 30.0000000  0 10 03 15 14 23 09 21 18 31 17 29
  21229972.691   -21427083.397 9 -16164597.93647  21229972.096    21229979.7014
  20716603.986    -3419053.456 9  -2520622.69248  20716603.054    20716610.6874
  22839851.437   -14941527.317 8 -11616799.44146  22839850.581    22839859.4814
  22115514.134     4868322.691 8   3925341.91347  22115513.239    22115521.1304
  24287230.834    -3785270.336 8  -2939307.26345  24287230.240    24287240.5194
  21014606.637   -22090175.049 9 -17194689.08048  21014605.851    21014613.4344
  20735452.540    -7288994.513 9  -5663710.43848  20735451.785    20735457.6324
  22947438.721    -9264411.262 8  -7193883.95346  22947437.829    22947446.4044
  21719863.115     4939472.094 8   3916590.85247  21719862.232    21719870.5714
  23754599.888    -6001444.129 7  -4663858.93145  23754599.644    23754611.5334
 01  7 19 18 43  0.0000000  0 10 03 15 14 23 09 21 18 31 17 29
  21227938.024   -21437775.578 9 -16172929.51947  21227937.435    21227945.0364
  20724893.380    -3375492.571 9  -2486679.17548  20724892.455    20724900.1024
  22819843.238   -15046670.162 8 -11698728.79546  22819842.452    22819851.3374
  22127859.641     4933198.869 8   3975894.73747  22127858.782    22127866.7084
  24276105.575    -3843734.129 8  -2984863.37645  24276104.972    24276115.0054
  21009506.566   -22116975.885 9 -17215572.84748  21009505.802    21009513.4294
  20743879.523    -7244710.297 9  -5629203.28048  20743878.762    20743884.6574
  22933641.028    -9336918.345 8  -7250382.94446  22933640.171    22933648.7184
  21732203.512     5004321.404 8   3967122.72947  21732202.729    21732211.0394
  23733938.662    -6110018.803 8  -4748462.33845  23733938.317    23733950.2584
 01  7 19 18 43 30.0000000  0 10 03 15 14 23 09 21 18 31 17 29
  21226014.804   -21447882.244 9 -16180804.85647  21226014.206    21226021.8114
  20733249.331    -3331582.167 9  -2452463.31248  20733248.391    20733256.0074
  22799879.762   -15151578.293 8 -11780475.27346  22799879.022    22799887.9134
  22140232.071     4998216.279 8   4026557.62547  22140231.237    22140239.1054
  24265049.535    -3901833.374 8  -3030135.44245  24265049.045    24265059.2094
  21004459.639   -22143497.400 9 -17236238.95748  21004458.886    21004466.5064
  20752364.275    -7200122.639 9  -5594459.67148  20752363.547    20752369.4384
  22919926.857    -9408986.735 8  -7306540.09646  22919925.946    22919934.5194
  21744600.034     5069465.209 8   4017884.06747  21744599.237    21744607.5954
  23713299.664    -6218475.744 7  -4832974.01945  23713299.405    23713311.2344
 01  7 19 18 44  0.0000000  0 10 03 15 14 23 09 21 18 31 17 29
  21224203.145   -21457402.484 9 -16188223.23947  21224202.560    21224210.1924
  20741671.829    -3287321.703 9  -2417974.67548  20741670.880    20741678.5144
  22779961.547   -15256248.582 8 -11862036.41346  22779960.802    22779969.6534
  22152631.286     5063374.069 8   4077329.89347  22152630.393    22152638.2424
  24254063.589    -3959564.772 7  -3075120.88845  24254063.102    24254073.1714
  20999465.964   -22169739.314 9 -17256687.20148  20999465.203    20999472.8554
  20760906.508    -7155232.887 9  -5559480.66948  20760905.764    20760911.6904
  22906296.626    -9480613.837 8  -7362353.37746  22906295.742    22906304.3174
  21757052.438     5134903.234 8   4068874.67347  21757051.656    21757060.0904
  23692684.053    -6326811.990 7  -4917391.63845  23692683.577    23692695.3824
 01  7 19 18 44 30.0000000  0 10 03 15 14 23 09 21 18 31 17 29
  21222503.243   -21466335.593 9 -16195184.12047  21222502.647    21222510.3054
  20750160.960    -3242711.093 9  -2383213.19448  20750160.023    20750167.6524
  22760089.117   -15360678.269 8 -11943410.05746  22760088.389    22760097.2404
  22165056.924     5128671.070 8   4128210.64347  22165056.061    22165063.7864
  24243148.113    -4016925.348 7  -3119817.35045  24243147.738    24243157.6234
  20994525.487   -22195701.913 9 -17276917.79748  20994524.713    20994532.3454
  20769505.985    -7110042.212 9  -5524267.18148  20769505.280    20769511.2174
  22892750.939    -9551796.980 8  -7417820.71346  22892749.999    22892758.5574
  21769560.955     5200635.840 8   4120094.83347  21769560.167    21769568.6584
  23672091.422    -6435025.026 7  -5001713.25945  23672091.083    23672102.9704
 01  7 19 18 45  0.0000000  0 10 03 15 14 23 09 21 18 31 17 29
  21220915.071   -21474681.530 9 -16201687.45547  21220914.476    21220922.1504
  20758716.683    -3197750.612 9  -2348179.08947  20758715.730    20758723.3604
  22740262.956   -15464864.836 8 -12024594.25846  22740262.264    22740271.0944
  22177508.814     5194106.035 8   4179198.89747  22177507.951    22177515.6064
  24232303.789    -4073912.011 8  -3164222.48445  24232303.506    24232313.3404
  20989638.055   -22221385.566 9 -17296931.02648  20989637.306    20989644.9114
  20778162.506    -7064552.146 9  -5488820.39448  20778161.768    20778167.6944
  22879290.047    -9622534.066 8  -7472940.49746  22879289.137    22879297.7264
  21782125.463     5266662.424 8   4171544.06047  21782124.629    21782133.1704
  23651522.916    -6543112.596 8  -5085937.12845  23651522.562    23651534.4044
 01  7 19 18 45 30.0000000  0 10 03 15 14 23 09 21 18 31 17 29
  21219438.835   -21482439.384 9 -16207732.55047  21219438.248    21219445.8924
  20767339.038    -3152439.709 9  -2312871.92647  20767338.111    20767345.7434
  22720483.595   -15568805.026 8 -12105586.48346  22720483.007    22720491.8164
  22189986.874     5259678.313 8   4230294.14147  22189985.992    22189993.6514
  24221531.436    -4130521.410 8  -3208333.66245  24221531.023    24221541.0074
  20984803.768   -22246790.093 9 -17316726.76148  20984802.973    20984810.6074
  20786875.760    -7018763.645 9  -5453141.07348  20786875.036    20786881.0154
  22865914.598    -9692822.102 8  -7527710.36146  22865913.728    22865922.2994
  21794745.981     5332983.337 8   4223222.62646  21794745.142    21794753.6864
  23630979.007    -6651071.516 8  -5170060.74645  23630978.594    23630990.2994
 01  7 19 18 46  0.0000000  0 10 03 15 14 23 09 21 18 31 17 29
  21218074.355   -21489610.047 9 -16213320.09747  21218073.753    21218081.3854
  20776027.813    -3106780.190 9  -2277293.11847  20776026.876    20776034.5214
  22700751.531   -15672497.838 8 -12186385.95146  22700750.818    22700759.6144
  22202490.513     5325384.991 8   4281494.11447  22202489.607    22202497.2814
  24210831.079    -4186752.404 8  -3252149.92945  24210830.511    24210840.5874
  20980022.101   -22271917.837 9 -17336306.82048  20980021.323    20980028.9224
  20795645.251    -6972679.777 9  -5417231.58948  20795644.545    20795650.5104
  22852624.780    -9762660.357 8  -7582129.75346  22852623.938    22852632.5154
  21807422.162     5399596.717 8   4275129.09046  21807421.326    21807429.8924
  23610459.519    -6758901.272 8  -5254083.74245  23610459.170    23610470.8124
 01  7 19 18 46 30.0000000  0 10 03 15 14 23 09 21 18 31 17 29
  21216821.929   -21496191.538 9 -16218448.55447  21216821.340    21216828.9694
  20784783.315    -3060769.961 9  -2241441.03147  20784782.355    20784790.0384
  22681067.185   -15775938.617 8 -12266989.02546  22681066.575    22681075.3734
  22215019.749     5391226.729 8   4332799.32547  22215018.902    22215026.5524
  24200203.582    -4242600.130 8  -3295667.58445  24200202.939    24200213.1334
  20975293.465   -22296766.953 9 -17355669.76848  20975292.687    20975300.3124
  20804470.979    -6926300.161 9  -5381091.65648  20804470.285    20804476.2664
  22839421.389    -9832044.822 8  -7636195.53846  22839420.578    22839429.0024
  21820154.295     5466504.170 8   4327264.70646  21820153.422    21820162.0584
  23589965.629    -6866597.424 8  -5338002.62145  23589965.187    23589976.7244
 01  7 19 18 47  0.0000000  0 10 03 15 14 23 09 21 18 31 17 29
  21215681.334   -21502185.545 9 -16223119.22547  21215680.740    21215688.3484
  20793605.072    -3014411.360 9  -2205317.48347  20793604.107    20793611.8564
  22661431.138   -15879126.797 8 -12347395.26546  22661430.468    22661439.2024
  22227574.153     5457200.323 8   4384207.28247  22227573.271    22227580.9554
  24189649.066    -4298063.748 7  -3338885.91745  24189648.545    24189658.7284
  20970617.462   -22321339.683 9 -17374817.34548  20970616.664    20970624.2644
  20813352.431    -6879628.106 9  -5344723.84248  20813351.726    20813357.6874
  22826304.446    -9900974.908 8  -7689907.27046  22826303.629    22826311.9984
  21832941.927     5533703.424 8   4379627.69446  21832941.079    21832949.6824
  23569497.190    -6974159.423 8  -5421816.97445  23569496.737    23569508.0724
 01  7 19 18 47 30.0000000  0 10 03 15 14 23 09 21 18 31 17 29
  21214653.005   -21507589.317 9 -16227329.97547  21214652.422    21214660.0544
  20802493.525    -2967702.277 9  -2168920.83347  20802492.594    20802500.3684
  22641843.980   -15982057.318 8 -12427600.75046  22641843.348    22641852.0594
  22240153.783     5523306.825 8   4435718.80447  22240152.962    22240160.6754
  24179168.550    -4353138.166 7  -3381800.96645  24179168.151    24179178.1444
  20965994.333   -22345634.172 9 -17393748.11748  20965993.545    20966001.1754
  20822289.615    -6832662.912 9  -5308127.61448  20822288.909    20822294.8814
  22813274.711    -9969446.177 8  -7743261.45346  22813273.929    22813282.3144
  21845785.443     5601196.427 8   4432219.58246  21845784.568    21845793.2034
  23549055.069    -7081582.774 8  -5505523.30645  23549054.589    23549065.8054
 01  7 19 18 48  0.0000000  0 10 03 15 14 23 09 21 18 31 17 29
  21213736.773   -21512404.101 9 -16231081.77547  21213736.186    21213743.8404
  20811448.479    -2920643.979 9  -2132252.06747  20811447.505    20811455.2954
  22622306.158   -16084728.919 8 -12507604.47446  22622305.484    22622314.1514
  22252758.349     5589543.832 8   4487332.00947  22252757.467    22252765.2464
  24168762.588    -4407821.759 7  -3424411.49845  24168762.224    24168772.1304
  20961423.821   -22369652.229 9 -17412463.48748  20961423.049    20961430.7024
  20831282.081    -6785407.252 9  -5271305.03348  20831281.384    20831287.3534
  22800332.622   -10037457.552 8  -7796257.29746  22800331.809    22800340.1584
  21858684.516     5668981.611 8   4485039.14946  21858683.649    21858692.3034
  23528639.536    -7188866.326 8  -5589120.70745  23528639.023    23528650.1694
 01  7 19 18 48 30.0000000  0 10 03 15 14 23 09 21 18 31 17 29
  21212932.612   -21516630.176 9 -16234374.83747  21212932.043    21212939.6654
  20820469.694    -2873237.109 9  -2095311.68447  20820468.749    20820476.5494
  22602818.024   -16187139.213 8 -12587404.58146  22602817.395    22602826.0144
  22265387.429     5655909.692 8   4539045.63047  22265386.564    22265394.2904
  24158431.475    -4462112.166 7  -3466715.63345  24158430.947    24158440.9814
  20956905.800   -22393394.622 9 -17430964.05248  20956905.017    20956912.6594
  20840329.464    -6737863.077 9  -5234257.64948  20840328.761    20840334.7404
  22787478.288   -10105007.076 8  -7848893.25046  22787477.498    22787485.8954
  21871639.026     5737058.233 8   4538085.80546  21871638.220    21871646.9124
  23508251.033    -7296007.928 8  -5672607.49845  23508250.478    23508261.5124
 01  7 19 18 49  0.0000000  0 10 03 15 14 23 09 21 18 31 17 29
  21212240.657   -21520266.599 9 -16237208.43647  21212240.072    21212247.6854
  20829557.352    -2825481.353 9  -2058099.44947  20829556.438    20829564.1974
  22583380.270   -16289285.338 8 -12666998.85646  22583379.532    22583388.0984
  22278040.891     5722403.759 8   4590859.14747  22278040.014    22278047.6684
  24148175.572    -4516006.239 7  -3508710.96445  24148175.007    24148185.2904
  20952440.285   -22416861.001 9 -17449249.54148  20952439.528    20952447.1824
  20849431.554    -6690031.374 9  -5196986.21348  20849430.829    20849436.8054
  22774712.424   -10172092.338 8  -7901167.45146  22774711.595    22774720.0184
  21884649.098     5805426.459 8   4591359.68146  21884648.313    21884657.0114
  23487889.973    -7403005.003 8  -5755981.68445  23487889.542    23487900.4094
 01  7 19 18 49 30.0000000  0 10 03 15 14 23 09 21 18 31 17 29
  21211661.054   -21523312.565 9 -16239581.93647  21211660.443    21211668.0644
  20838711.545    -2777375.938 9  -2020614.74147  20838710.661    20838718.3504
  22563993.300   -16391163.979 8 -12746384.69846  22563992.583    22564001.0924
  22290718.535     5789025.391 8   4642772.07347  22290717.697    22290725.4014
  24137995.958    -4569500.224 7  -3550394.49645  24137995.434    24138005.7764
  20948027.322   -22440051.455 9 -17467320.02448  20948026.553    20948034.1484
  20858588.223    -6641913.094 9  -5159491.47848  20858587.500    20858593.4844
  22762035.386   -10238710.426 8  -7953077.61346  22762034.562    22762043.0184
  21897714.737     5874086.497 8   4644860.94046  21897713.948    21897722.6414
  23467556.945    -7509854.397 8  -5839240.80245  23467556.599    23467567.4304
 01  7 19 18 50  0.0000000  0 10 03 15 14 23 09 21 18 31 17 29
  21211193.640   -21525768.762 9 -16241495.87847  21211193.047    21211200.6814
  20847932.199    -2728921.737 9  -1982858.26247  20847931.257    20847938.9084
  22544657.575   -16492773.273 8 -12825560.67346  22544656.869    22544665.2834
  22303420.108     5855772.679 8   4694782.89647  22303419.304    22303427.0394
  24127892.984    -4622592.251 7  -3591764.86445  24127892.517    24127902.6784
  20943666.659   -22462966.896 9 -17485176.21248  20943665.882    20943673.4994
  20867798.977    -6593510.173 9  -5121774.94248  20867798.274    20867804.2784
  22749447.548   -10304859.845 8  -8004622.58746  22749446.706    22749455.1554
  21910835.717     5943037.401 8   4698588.84946  21910834.934    21910843.6234
  23447252.533    -7616554.446 8  -5922383.53745  23447252.105    23447262.9124
 01  7 19 18 50 30.0000000  0 10 03 15 14 23 09 21 18 31 17 29
  21210838.597   -21527634.734 9 -16242949.89947  21210838.012    21210845.6654
  20857219.035    -2680118.862 9  -1944830.07947  20857218.118    20857225.8194
  22525373.676   -16594110.396 8 -12904524.56646  22525372.969    22525381.3944
  22316145.466     5922644.668 8   4746890.90847  22316144.634    22316152.3194
  24117866.879    -4675279.602 7  -3632819.86845  24117866.379    24117876.5884
  20939358.244   -22485607.748 9 -17502818.43348  20939357.484    20939365.1124
  20877063.637    -6544824.029 9  -5083837.71048  20877062.960    20877068.9894
  22736949.314   -10370538.181 8  -8055800.48046  22736948.508    22736956.9834
  21924012.008     6012278.869 8   4752543.15946  21924011.233    21924019.9054
  23426976.917    -7723102.588 8  -6005407.90345  23426976.512    23426987.3454
 01  7 19 18 51  0.0000000  0 10 03 15 14 23 09 21 18 31 17 29
  21210595.715   -21528910.973 9 -16243944.39247  21210595.170    21210602.8004
  20866572.206    -2630967.953 9  -1906530.71047  20866571.243    20866578.9524
  22506141.895   -16695173.174 8 -12983274.68146  22506141.253    22506149.6734
  22328894.315     5989639.708 8   4799094.79747  22328893.419    22328901.1434
  24107918.257    -4727559.807 7  -3673557.61145  24107917.826    24107927.8954
  20935101.993   -22507974.664 9 -17520247.19848  20935101.201    20935108.8094
  20886381.912    -6495856.413 9  -5045681.14748  20886381.209    20886387.2314
  22724541.122   -10435743.718 8  -8106609.95746  22724540.297    22724548.7084
  21937243.530     6081810.440 8   4806723.53546  21937242.703    21937251.3134
  23406730.570    -7829496.820 8  -6088312.36245  23406730.278    23406741.0694
 01  7 19 18 51 30.0000000  0 10 03 15 14 23 09 21 18 31 17 29
  21210465.280   -21529596.714 9 -16244478.74947  21210464.721    21210472.3214
  20875991.561    -2581468.645 9  -1867959.85747  20875990.623    20875998.3994
  22486963.056   -16795958.323 8 -13061808.46146  22486962.380    22486970.8334
  22341666.395     6056757.155 8   4851394.06147  22341665.497    22341673.2724
  24098047.746    -4779429.502 7  -3713975.50145  24098047.259    24098057.1774
  20930897.844   -22530067.509 9 -17537462.40048  20930897.062    20930904.6894
  20895753.553    -6446608.363 9  -5007306.06548  20895752.831    20895758.8334
  22712223.529   -10500473.368 8  -8157048.61246  22712222.685    22712231.0604
  21950530.137     6151632.054 8   4861129.91346  21950529.345    21950537.9304
  23386514.198    -7935734.157 8  -6171094.54545  23386513.843    23386524.6744
 01  7 19 18 52  0.0000000  0 10 03 15 14 23 09 21 18 31 17 29
  21210447.168   -21529692.233 9 -16244553.19847  21210446.593    21210454.1704
  20885477.120    -2531621.547 9  -1829117.99847  20885476.196    20885484.0034
  22467837.443   -16896463.615 8 -13140124.18046  22467836.810    22467845.2104
  22354461.518     6123995.474 8   4903787.51547  22354460.569    22354468.3724
  24088255.700    -4830886.499 7  -3754071.80245  24088255.208    24088265.2684
  20926745.731   -22551886.877 9 -17554464.50448  20926744.946    20926752.5624
  20905178.148    -6397081.842 9  -4968713.99347  20905177.417    20905183.4114
  22699996.806   -10564725.381 8  -8207115.07846  22699995.940    22700004.3634
  21963871.792     6221742.983 8   4915761.73746  21963871.019    21963879.6284
  23366327.941    -8041812.812 8  -6253753.09046  23366327.638    23366338.4544
 01  7 19 18 52 30.0000000  0 10 03 15 14 23 09 21 18 31 17 29
  21210541.364   -21529197.342 9 -16244167.58247  21210540.768    21210548.3384
  20895028.924    -2481426.403 9  -1790004.94647  20895028.033    20895035.8504
  22448765.610   -16996686.379 8 -13218219.74746  22448764.964    22448773.3474
  22367279.317     6191353.961 8   4956274.60147  22367278.465    22367286.2644
  24078542.879    -4881927.859 7  -3793844.21745  24078542.332    24078552.2344
  20922645.646   -22573433.078 9 -17571253.75548  20922644.854    20922652.4864
  20914655.486    -6347277.894 9  -4929905.74047  20914654.786    20914660.7764
  22687861.363   -10628497.690 8  -8256807.77246  22687860.421    22687868.9054
  21977268.455     6292143.240 8   4970619.00846  21977267.714    21977276.4434
  23346172.504    -8147729.947 8  -6336285.78946  23346172.171    23346182.9564
 01  7 19 18 53  0.0000000  0 10 03 15 14 23 09 21 18 31 17 29
  21210747.866   -21528112.064 9 -16243321.93447  21210747.275    21210754.8754
  20904647.013    -2430883.251 9  -1750620.71247  20904646.104    20904653.9434
  22429748.141   -17096623.872 8 -13296093.02746  22429747.449    22429755.7834
  22380119.904     6258831.490 8   5008854.45247  22380119.066    22380126.8344
  24068909.693    -4932550.685 7  -3833290.50145  24068909.072    24068919.0174
  20918597.429   -22594706.390 9 -17587830.36348  20918596.657    20918604.2834
  20924185.475    -6297197.793 9  -4890882.31047  20924184.778    20924190.7584
  22675817.499   -10691788.024 8  -8306124.88846  22675816.569    22675825.1314
  21990720.295     6362832.406 8   5025701.39946  21990719.541    21990728.2504
  23326048.178    -8253483.258 8  -6418690.81846  23326047.863    23326058.5974
 01  7 19 18 53 30.0000000  0 10 03 15 14 23 09 21 18 31 17 29
  21211066.755   -21526436.214 9 -16242016.10247  21211066.174    21211073.7704
  20914331.346    -2379992.245 9  -1710965.42147  20914330.430    20914338.2214
  22410785.458   -17196273.286 8 -13373741.83646  22410784.687    22410793.0434
  22392982.976     6326426.935 8   5061526.18047  22392982.111    22392989.8854
  24059356.530    -4982752.308 8  -3872408.59245  24059356.014    24059365.8974
  20914601.156   -22615706.933 9 -17604194.42848  20914600.383    20914607.9814
  20933767.659    -6246842.943 9  -4851644.79147  20933766.945    20933772.9534
  22663865.953   -10754593.829 8  -8355064.44846  22663865.063    22663873.5734
  22004227.066     6433810.365 8   5081008.81546  22004226.341    22004235.0154
  23305955.611    -8359069.943 8  -6500966.03746  23305955.343    23305965.9784
 01  7 19 18 54  0.0000000  0 10 03 15 14 23 09 21 18 31 17 29
  21211497.991   -21524170.157 9 -16240250.36347  21211497.416    21211505.0074
  20924081.695    -2328754.214 9  -1671039.72347  20924080.770    20924088.5474
  22391877.800   -17295632.954 8 -13451164.86846  22391877.096    22391885.4314
  22405868.013     6394138.761 8   5114288.59647  22405867.191    22405875.0364
  24049884.158    -5032530.446 8  -3911196.68945  24049883.502    24049893.4864
  20910656.603   -22636435.811 9 -17620346.80148  20910655.814    20910663.4134
  20943401.760    -6196215.391 9  -4812194.77847  20943401.055    20943407.0924
  22652006.920   -10816913.677 8  -8403625.32446  22652006.003    22652014.5124
  22017788.526     6505076.035 8   5136540.41746  22017787.793    22017796.5164
  23285895.060    -8464488.523 8  -6583110.24046  23285894.761    23285905.3604
 01  7 19 18 54 30.0000000  0 10 03 15 14 23 09 21 18 31 17 29
  21212041.620   -21521313.530 9 -16238024.44447  21212041.040    21212048.6204
  20933898.066    -2277169.084 9  -1630843.55947  20933897.134    20933904.9354
  22373025.995   -17394699.663 8 -13528359.62246  22373025.267    22373033.5914
  22418775.182     6461966.134 8   5167141.04447  22418774.365    22418782.1894
  24040492.696    -5081882.270 8  -3949652.60045  24040492.114    24040501.8974
  20906763.734   -22656892.960 9 -17636287.44048  20906762.949    20906770.5194
  20953087.546    -6145316.279 9  -4772533.15247  20953086.850    20953092.8404
  22640240.755   -10878745.239 8  -8451805.74846  22640239.848    22640248.2744
  22031404.718     6576629.301 8   5192296.13046  22031403.956    22031412.7484
  23265867.012    -8569736.250 8  -6665121.33546  23265866.716    23265877.2404
 01  7 19 18 55  0.0000000  0 10 03 15 14 23 09 21 18 31 17 29
  21212697.551   -21517866.613 9 -16235338.55847  21212696.975    21212704.5714
  20943780.457    -2225237.072 9  -1590377.09947  20943779.513    20943787.2884
  22354230.429   -17493470.856 8 -13605324.10846  22354229.669    22354237.9384
  22431704.160     6529908.074 8   5220082.77147  22431703.325    22431711.1754
  24031182.872    -5130805.111 8  -3987774.21745  24031182.259    24031192.2114
  20902922.476   -22677079.005 9 -17652016.83248  20902921.708    20902929.2324
  20962824.795    -6094146.753 9  -4732660.81847  20962824.089    20962830.1184
  22628567.856   -10940086.321 8  -8499603.95546  22628566.959    22628575.3954
  22045075.578     6648469.929 8   5248275.74846  22045074.792    22045083.5954
  23245871.959    -8674810.643 8  -6746997.35346  23245871.568    23245882.0644
 01  7 19 18 55 30.0000000  0 10 03 15 14 23 09 21 18 31 17 29
  21213465.792   -21513829.523 9 -16232192.80347  21213465.234    21213472.8484
  20953728.879    -2172957.829 9  -1549640.06847  20953727.946    20953735.6684
  22335491.624   -17591943.661 8 -13682056.09046  22335490.911    22335499.1234
  22444654.713     6597963.623 8   5273113.02547  22444653.909    22444661.7714
  24021955.281    -5179296.103 7  -4025559.33545  24021954.767    24021964.6954
  20899132.810   -22696993.862 9 -17667534.90648  20899132.022    20899139.5994
  20972613.218    -6042708.457 9  -4692579.04947  20972612.512    20972618.5414
  22616988.781   -11000934.486 8  -8547018.07946  22616987.925    22616996.3524
  22058801.144     6720597.803 8   5304479.19846  22058800.350    22058809.1094
  23225910.255    -8779709.152 8  -6828736.32346  23225909.907    23225920.4214
 01  7 19 18 56  0.0000000  0 10 03 15 14 23 09 21 18 31 17 29
  21214346.200   -21509202.985 9 -16228587.73247  21214345.654    21214353.2444
  20963743.163    -2120332.572 9  -1508633.42447  20963742.203    20963749.9394
  22316809.849   -17690116.598 8 -13758554.41146  22316809.165    22316817.3424
  22457626.598     6666130.781 8   5326230.24347  22457625.699    22457633.6144
  24012810.271    -5227353.396 8  -4063006.52545  24012809.698    24012819.5114
  20895394.532   -22716638.696 9 -17682842.57348  20895393.770    20895401.3404
  20982452.434    -5991003.252 9  -4652289.29747  20982451.691    20982457.6634
  22605503.814   -11061288.503 8  -8594047.15446  22605502.936    22605511.3684
  22072581.203     6793011.581 8   5360905.43446  22072580.370    22072589.0374
  23205982.504    -8884430.174 8  -6910336.98945  23205982.053    23205992.5074
 01  7 19 18 56 30.0000000  0 10 03 15 14 23 09 21 18 31 17 29
  21215339.030   -21503985.723 9 -16224522.36247  21215338.467    21215346.0904
  20973823.409    -2067360.350 9  -1467356.41647  20973822.495    20973830.2334
  22298185.965   -17787985.681 8 -13834815.96146  22298185.248    22298193.3814
  22470619.698     6734409.850 8   5379434.66847  22470618.784    22470626.7194
  24003748.665    -5274973.088 8  -4100112.66645  24003748.121    24003757.7264
  20891707.815   -22736012.759 9 -17697939.25148  20891707.012    20891714.5494
  20992342.260    -5939031.459 9  -4611791.82847  20992341.584    20992347.6384
  22594113.423   -11121145.110 8  -8640688.63546  22594112.571    22594120.9884
  22086415.736     6865712.149 8   5417555.13546  22086414.913    22086423.5714
  23186088.986    -8988970.233 8  -6991796.65146  23186088.635    23186099.0314
 01  7 19 18 57  0.0000000  0 10 03 15 14 23 09 21 18 31 17 29
  21216443.970   -21498179.337 9 -16219997.92947  21216443.422    21216451.0364
  20983969.450    -2014042.562 9  -1425810.13347  20983968.541    20983976.3054
  22279620.166   -17885549.512 8 -13910839.65546  22279619.440    22279627.4984
  22483633.551     6802798.626 8   5432724.58047  22483632.725    22483640.7234
  23994770.301    -5322153.595 7  -4136876.63245  23994769.668    23994779.5194
  20888072.202   -22755117.879 9 -17712826.35848  20888071.449    20888078.9764
  21002282.409    -5886795.662 9  -4571088.63647  21002281.703    21002287.8164
  22582817.882   -11180503.469 8  -8686941.87946  22582817.011    22582825.4694
  22100304.447     6938697.779 8   5474426.96546  22100303.668    22100312.4034
  23166230.386    -9093328.007 8  -7073114.28446  23166229.933    23166240.2254
 01  7 19 18 57 30.0000000  0 10 03 15 14 23 09 21 18 31 17 29
  21217661.129   -21491783.455 9 -16215014.14747  21217660.569    21217668.1464
  20994181.348    -1960378.703 9  -1383994.18847  20994180.451    20994188.2714
  22261112.983   -17982805.108 8 -13986623.16146  22261112.263    22261120.3084
  22496668.360     6871296.578 8   5486099.56247  22496667.491    22496675.4834
  23985876.026    -5368892.022 8  -4173296.11845  23985875.464    23985885.4084
  20884487.891   -22773953.718 9 -17727503.63948  20884487.130    20884494.6754
  21012272.674    -5834296.668 9  -4530180.35147  21012271.987    21012278.0534
  22571617.623   -11239360.830 8  -8732804.72246  22571616.805    22571625.2484
  22114247.504     7011968.848 8   5531521.22446  22114246.725    22114255.5214
  23146406.976    -9197500.498 8  -7154287.52546  23146406.436    23146416.6704
 01  7 19 18 58  0.0000000  0 10 03 15 14 23 09 21 18 31 17 29
  21218990.341   -21484798.420 9 -16209571.28947  21218989.779    21218997.3884
  21004459.033    -1906369.359 9  -1341909.03647  21004458.126    21004466.0104
  22242664.911   -18079750.276 8 -14062164.78547  22242664.174    22242672.1714
  22509723.671     6939902.335 8   5539558.54747  22509722.783    22509730.7444
  23977066.500    -5415186.338 8  -4209369.48445  23977065.913    23977075.8204
  20880954.668   -22792520.860 9 -17741971.54348  20880953.906    20880961.4174
  21022312.751    -5781536.092 9  -4489068.24647  21022312.036    21022318.1174
  22560513.058   -11297715.610 8  -8778275.97046  22560512.243    22560520.5874
  22128244.726     7085524.464 8   5588837.19346  22128243.945    22128252.8204
  23126619.030    -9301485.806 8  -7235314.93346  23126618.615    23126628.7734
 01  7 19 18 58 30.0000000  0 10 03 15 14 23 09 21 18 31 17 29
  21220431.614   -21477224.549 9 -16203669.59847  21220431.021    21220438.6964
  21014802.378    -1852014.786 9  -1299554.87147  21014801.495    21014809.3804
  22224276.473   -18176382.084 8 -14137462.22847  22224275.714    22224283.7074
  22522799.213     7008614.814 8   5593100.68547  22522798.411    22522806.3324
  23968342.089    -5461033.693 8  -4245094.60445  23968341.473    23968351.3764
  20877472.512   -22810819.760 9 -17756230.42948  20877471.737    20877479.2824
  21032402.269    -5728515.604 9  -4447753.60247  21032401.541    21032407.6254
  22549504.430   -11355565.851 8  -8823354.04746  22549503.644    22549512.0224
  22142296.069     7159364.224 8   5646374.57346  22142295.218    22142304.1674
  23106867.424    -9405281.478 8  -7316194.55946  23106866.879    23106876.9894
 01  7 19 18 59  0.0000000  0 10 03 15 14 23 09 21 18 31 17 29
  21221984.847   -21469062.204 9 -16197309.35547  21221984.266    21221991.9834
  21025211.433    -1797315.325 9  -1256931.96947  21025210.519    21025218.4104
  22205948.028   -18272698.166 8 -14212513.65447  22205947.293    22205955.2964
  22535895.016     7077433.009 8   5646725.20847  22535894.095    22535902.0194
  23959703.111    -5506431.451 8  -4280469.43245  23959702.593    23959712.4894
  20874041.300   -22828850.777 9 -17770280.57048  20874040.532    20874048.0814
  21042540.902    -5675236.565 9  -4406237.49447  21042540.212    21042546.2614
  22538592.288   -11412909.456 8  -8868037.36646  22538591.438    22538599.8174
  22156401.429     7233487.741 8   5704133.06246  22156400.553    22156409.4964
  23087152.046    -9508885.139 8  -7396924.58246  23087151.668    23087161.7844
 01  7 19 18 59 30.0000000  0 10 03 15 14 23 09 21 18 31 17 29
  21223650.071   -21460311.412 9 -16190490.58047  21223649.493    21223657.2324
  21035686.091    -1742270.822 9  -1214040.19847  21035685.138    21035693.0334
  22187680.178   -18368695.869 8 -14287316.98147  22187679.440    22187687.4694
  22549010.672     7146356.181 8   5700431.53346  22549009.706    22549017.6934
  23951150.224    -5551376.900 8  -4315491.75345  23951149.774    23951159.6144
  20870661.080   -22846614.032 9 -17784122.06748  20870660.303    20870667.8464
  21052728.712    -5621699.671 9  -4364520.45647  21052727.990    21052734.0034
  22527776.953   -11469744.110 8  -8912324.08846  22527776.116    22527784.4404
  22170560.707     7307894.929 8   5762112.59046  22170559.871    22170568.8274
  23067473.894    -9612294.116 8  -7477502.89046  23067473.470    23067483.5864
 01  7 19 19  0  0.0000000  0 10 03 15 14 23 09 21 18 31 17 29
  21225427.236   -21450972.418 9 -16183213.46847  21225426.663    21225434.4074
  21046226.340    -1686881.692 9  -1170879.89047  21046225.381    21046233.2384
  22169473.424   -18464372.925 8 -14361870.46147  22169472.663    22169480.6744
  22562145.990     7215383.151 8   5754218.72946  22562145.122    22562153.1514
  23942683.640    -5595867.703 7  -4350159.83645  23942683.136    23942693.1134
  20867331.629   -22864110.303 9 -17797755.52948  20867330.867    20867338.4064
  21062965.132    -5567906.805 9  -4322603.96547  21062964.403    21062970.5094
  22517058.800   -11526068.227 8  -8956212.99146  22517057.995    22517066.3564
  22184773.869     7382585.040 8   5820312.57346  22184773.001    22184782.0154
  23047833.129    -9715506.307 8  -7557927.85546  23047832.808    23047842.8934
 01  7 19 19  0 30.0000000  0 10 03 15 14 23 09 21 18 31 17 29
  21227316.257   -21441045.742 9 -16175478.42547  21227315.705    21227323.4234
  21056832.074    -1631148.333 9  -1127451.35547  21056831.099    21056838.9394
  22151328.118   -18559726.641 8 -14436171.98947  22151327.385    22151335.3914
  22575300.993     7284512.867 8   5808085.99146  22575300.115    22575308.0924
  23934304.205    -5639901.388 8  -4384471.72045  23934303.756    23934313.7424
  20864052.986   -22881339.510 9 -17811180.89148  20864052.237    20864059.7794
  21073249.987    -5513859.294 9  -4280489.04647  21073249.313    21073255.4114
  22506438.211   -11581879.812 8  -8999702.50746  22506437.358    22506445.7604
  22199040.713     7457557.628 8   5878732.66846  22199039.864    22199048.9364
  23028230.396    -9818519.326 8  -7638197.63546  23028229.988    23028240.0654
 01  7 19 19  1  0.0000000  0 10 03 15 14 23 09 21 18 31 17 29
  21229316.946   -21430532.238 9 -16167286.11147  21229316.370    21229324.0854
  21067503.133    -1575071.606 9  -1083755.25847  21067502.182    21067510.0344
  22133244.859   -18654754.935 8 -14510219.93447  22133244.034    22133252.0534
  22588475.193     7353743.808 8   5862032.12746  22588474.355    22588482.3744
  23926012.335    -5683475.982 8  -4418425.85645  23926011.857    23926021.7084
  20860825.078   -22898302.466 9 -17824398.78248  20860824.322    20860831.8584
  21083583.020    -5459559.094 9  -4238177.22647  21083582.320    21083588.4044
  22495915.443   -11637177.160 8  -9042791.33346  22495914.652    22495923.0354
  22213361.117     7532811.690 8   5937372.10546  22213360.261    22213369.3864
  23008665.816    -9921331.462 8  -7718310.86546  23008665.363    23008675.5054
 01  7 19 19  1 30.0000000  0 10 03 15 14 23 09 21 18 31 17 29
  21231429.323   -21419431.589 9 -16158636.27647  21231428.748    21231436.4774
  21078239.640    -1518651.060 9  -1039791.24447  21078238.699    21078246.6114
  22115223.913   -18749454.903 8 -14584012.05247  22115223.170    22115231.1844
  22601668.561     7423075.571 8   5916056.82746  22601667.751    22601675.8554
  23917808.143    -5726588.431 7  -4452019.90945  23917807.617    23917817.5794
  20857647.737   -22914999.631 9 -17837409.56648  20857646.961    20857654.5074
  21093963.933    -5405007.081 9  -4195669.19947  21093963.213    21093969.3604
  22485490.894   -11691958.103 8  -9085477.75346  22485490.059    22485498.5204
  22227735.119     7608347.437 8   5996231.02046  22227734.319    22227743.4414
  22989139.946   -10023939.567 8  -7798265.11146  22989139.560    22989149.7294
 01  7 19 19  2  0.0000000  0 10 03 15 14 23 09 21 18 31 17 29
  21233653.427   -21407743.989 9 -16149529.08047  21233652.838    21233660.5714
  21089041.565    -1461886.726 9   -995559.35047  21089040.631    21089048.5984
  22097266.065   -18843823.711 8 -14657546.12047  22097265.282    22097273.2634
  22614881.050     7492507.410 8   5970159.50446  22614880.224    22614888.3574
  23909692.375    -5769236.245 8  -4485251.89145  23909691.935    23909701.7754
  20854520.932   -22931431.025 9 -17850213.25348  20854520.156    20854527.7434
  21104392.606    -5350204.161 9  -4152965.65347  21104391.913    21104398.0194
  22475165.153   -11746220.308 8  -9127759.97946  22475164.358    22475172.6684
  22242162.749     7684164.575 8   6055309.19946  22242161.971    22242171.0304
  22969653.475   -10126341.211 8  -7878058.48646  22969653.100    22969663.2854
 01  7 19 19  2 30.0000000  0 10 03 15 14 23 09 21 18 31 17 29
  21235988.992   -21395470.703 9 -16139965.50347  21235988.421    21235996.1484
  21099908.753    -1404779.585 9   -951060.32747  21099907.828    21099915.8434
  22079371.466   -18937859.916 8 -14730821.00947  22079370.740    22079378.7144
  22628112.222     7562037.531 8   6024338.76546  22628111.424    22628119.5584
  23901665.595    -5811417.610 8  -4518120.38845  23901665.131    23901674.8604
  20851444.441   -22947597.970 9 -17862810.87748  20851443.686    20851451.2764
  21114868.619    -5295152.682 9  -4110068.42047  21114867.881    21114873.9984
  22464938.317   -11799962.964 8  -9169637.34146  22464937.488    22464945.7994
  22256643.673     7760261.772 8   6114605.61646  22256642.917    22256651.9504
  22950206.665   -10228534.866 8  -7957689.78546  22950206.253    22950216.3614
 01  7 19 19  3  0.0000000  0 10 03 15 14 23 09 21 18 31 17 29
  21238435.945   -21382612.220 9 -16129945.93347  21238435.367    21238443.0794
  21110841.118    -1347330.090 9   -906294.53947  21110840.159    21110848.1664
  22061540.714   -19031560.848 8 -14803834.65747  22061539.964    22061547.9384
  22641361.960     7631665.022 8   6078593.90246  22641361.122    22641369.2584
  23893727.959    -5853129.961 8  -4550623.46945  23893727.407    23893737.1724
  20848418.332   -22963500.486 9 -17875202.45748  20848417.551    20848425.1334
  21125391.584    -5239854.027 9  -4066978.59847  21125390.866    21125397.0064
  22454810.673   -11853183.904 8  -9211108.17246  22454809.868    22454818.1914
  22271177.829     7836638.598 8   6174119.91146  22271177.055    22271186.0454
  22930799.784   -10330518.077 8  -8037157.13046  22930799.418    22930809.4734
 01  7 19 19  3 30.0000000  0 10 03 15 14 23 09 21 18 31 17 29
  21240994.126   -21369169.201 9 -16119470.87847  21240993.536    21241001.2194
  21121838.522    -1289538.819 9   -861262.42247  21121837.546    21121845.5104
  22043774.257   -19124924.019 8 -14876585.10947  22043773.443    22043781.4714
  22654629.965     7701388.769 8   6132924.04346  22654629.176    22654637.3464
  23885879.930    -5894371.130 8  -4582759.38845  23885879.360    23885889.0144
  20845442.337   -22979139.361 9 -17887388.59348  20845441.551    20845449.1504
  21135961.440    -5184309.587 9  -4023697.24647  21135960.719    21135966.8564
  22444782.686   -11905881.134 8  -9252170.92346  22444781.871    22444790.2504
  22285765.064     7913294.370 8   6233851.58346  22285764.236    22285773.2574
  22911433.418   -10432288.840 8  -8116458.91946  22911433.005    22911442.9474
 01  7 19 19  4  0.0000000  0 10 03 15 14 23 09 21 18 31 17 29
  21243663.489   -21355141.769 9 -16108540.43447  21243662.888    21243670.5614
  21132901.018    -1231405.404 9   -815963.70647  21132900.028    21132907.9924
  22026072.570   -19217946.475 8 -14949070.07247  22026071.798    22026079.8424
  22667916.336     7771208.349 8   6187328.86346  22667915.469    22667923.6634
  23878122.238    -5935138.566 8  -4614526.11745  23878121.661    23878131.0754
  20842516.574   -22994514.223 9 -17899369.01348  20842515.807    20842523.4024
  21146577.771    -5128520.348 9  -3980225.13747  21146577.029    21146583.1674
  22434854.804   -11958052.412 8  -9292823.84146  22434854.004    22434862.4364
  22300405.297     7990229.231 8   6293800.70746  22300404.511    22300413.5494
  22892108.078   -10533844.078 8  -8195592.75946  22892107.614    22892117.4634
 01  7 19 19  4 30.0000000  0 10 03 15 14 23 09 21 18 31 17 29
  21246443.872   -21340530.890 9 -16097155.36147  21246443.253    21246450.9254
  21144028.435    -1172930.705 9   -770399.05247  21144027.444    21144035.3664
  22008435.960   -19310626.806 8 -15021288.45147  22008435.267    22008443.2524
  22681220.553     7841122.041 8   6241807.00746  22681219.618    22681227.7914
  23870454.916    -5975430.366 8  -4645922.25345  23870454.418    23870463.8084
  20839640.862   -23009626.328 9 -17911144.68948  20839640.067    20839647.6484
  21157240.378    -5072488.031 9  -3936563.62147  21157239.688    21157245.8204
  22425027.216   -12009696.827 8  -9333066.21946  22425026.387    22425034.7484
  22315098.483     8067441.952 8   6353966.36346  22315097.689    22315106.8044
  22872823.924   -10635182.393 8  -8274557.57346  22872823.504    22872833.3314
 01  7 19 19  5  0.0000000  0 10 03 15 14 23 09 21 18 31 17 29
  21249335.200   -21325336.727 9 -16085315.78247  21249334.572    21249342.2754
  21155220.783    -1114114.829 9   -724568.55147  21155219.796    21155227.6934
  21990865.134   -19402962.130 8 -15093237.98947  21990864.402    21990872.3384
  22694542.499     7911129.242 8   6296358.03146  22694541.606    22694549.7614
  23862878.571    -6015243.811 8  -4676945.68245  23862878.123    23862887.5324
  20836815.131   -23024475.530 9 -17922715.50348  20836814.364    20836821.9484
  21167949.005    -5016213.743 9  -3892713.56247  21167948.324    21167954.4874
  22415300.289   -12060812.312 8  -9372896.45046  22415299.451    22415307.7404
  22329844.580     8144932.334 8   6414348.36246  22329843.761    22329852.8774
  22853581.596   -10736301.115 8  -8353351.28146  22853581.165    22853591.0214
 01  7 19 19  5 30.0000000  0 10 03 15 14 23 09 21 18 31 17 29
  21252337.606   -21309559.192 9 -16073021.62647  21252336.993    21252344.6624
  21166478.091    -1054957.308 9   -678471.82847  21166477.113    21166485.0054
  21973360.579   -19494948.986 8 -15164915.98947  21973359.849    21973367.7764
  22707882.182     7981229.727 8   6350981.72746  22707881.271    22707889.4824
  23855393.842    -6054575.951 8  -4707594.03745  23855393.375    23855402.7774
  20834039.522   -23039061.472 9 -17934081.17948  20834038.755    20834046.3754
  21178703.622    -4959698.298 9  -3848675.58147  21178702.889    21178709.0304
  22405674.488   -12111396.371 8  -9412312.56646  22405673.595    22405681.8764
  22344643.489     8222700.495 8   6474946.80846  22344642.676    22344651.7594
  22834381.672   -10837196.919 8  -8431971.27746  22834381.207    22834391.0594
 01  7 19 19  6  0.0000000  0 10 03 15 14 23 09 21 18 31 17 29
  21255450.681   -21293199.681 9 -16060273.98247  21255450.078    21255457.7724
  21177800.202     -995459.478 9   -632109.92647  21177799.215    21177807.1104
  21955922.601   -19586585.883 8 -15236321.30947  21955921.902    21955929.8304
  22721239.248     8051421.904 8   6405676.87246  22721238.444    22721246.6904
  23848001.169    -6093425.317 8  -4737866.19445  23848000.613    23848009.8714
  20831313.715   -23053385.704 9 -17945242.93048  20831312.972    20831320.5544
  21189503.612    -4902943.846 9  -3804451.35947  21189502.902    21189509.0154
  22396149.943   -12161447.989 8  -9451313.81046  22396149.089    22396157.2964
  22359494.973     8300745.152 8   6535760.71146  22359494.114    22359503.1924
  22815224.270   -10937868.664 8  -8510416.70546  22815223.949    22815233.7544
 01  7 19 19  6 30.0000000  0 10 03 15 14 23 09 21 18 31 17 29
  21258674.471   -21276258.630 9 -16047073.18847  21258673.856    21258681.5974
  21189187.072     -935621.366 9   -585482.87247  21189186.072    21189194.0054
  21938551.714   -19677870.361 8 -15307452.00547  21938550.987    21938558.9174
  22734613.727     8121705.088 8   6460442.94146  22734612.945    22734621.2054
  23840700.702    -6131789.156 8  -4767760.03345  23840700.087    23840709.3984
  20828637.698   -23067448.555 9 -17956201.00148  20828636.915    20828644.4854
  21200348.950    -4845951.310 9  -3760041.62447  21200348.254    21200354.3964
  22386727.154   -12210965.182 8  -9489898.61546  22386726.282    22386734.5084
  22374398.966     8379066.009 8   6596789.83646  22374398.126    22374407.1994
  22796110.250   -11038313.609 8  -8588685.37446  22796109.831    22796119.6084
 01  7 19 19  7  0.0000000  0 10 03 15 14 23 09 21 18 31 17 29
  21262008.731   -21258736.953 9 -16033419.95947  21262008.148    21262015.8994
  21200638.569     -875443.494 9   -538591.06947  21200637.554    21200645.5414
  21921248.276   -19768800.042 8 -15378306.24347  21921247.576    21921255.5224
  22748005.385     8192078.109 8   6515279.00746  22748004.504    22748012.7704
  23833492.965    -6169665.516 8  -4797274.04545  23833492.436    23833501.7294
  20826011.275   -23081250.149 9 -17966955.50348  20826010.513    20826018.1274
  21211239.312    -4788722.246 9  -3715447.59247  21211238.635    21211244.8184
  22377406.293   -12259946.513 8  -9528065.86746  22377405.414    22377413.6984
  22389355.392     8457662.462 8   6658033.70546  22389354.592    22389363.6684
  22777039.773   -11138529.569 8  -8666775.63846  22777039.284    22777049.0894
 01  7 19 19  7 30.0000000  0 10 03 15 14 23 09 21 18 31 17 29
  21265453.333   -21240635.628 9 -16019315.05847  21265452.753    21265460.4894
  21212154.484     -814926.657 9   -491435.14247  21212153.522    21212161.5404
  21904012.757   -19859373.125 8 -15448882.61747  21904012.068    21904019.9884
  22761413.827     8262539.565 8   6570183.98146  22761412.952    22761421.2344
  23826378.367    -6207052.802 8  -4826406.94145  23826377.881    23826387.1534
  20823434.516   -23094791.187 9 -17977506.96948  20823433.757    20823441.3384
  21222174.341    -4731258.549 9  -3670670.71747  21222173.655    21222179.7964
  22368187.690   -12308390.558 8  -9565814.46146  22368186.807    22368195.0854
  22404364.203     8536533.411 8   6719491.46646  22404363.432    22404372.4304
  22758013.052   -11238514.817 8  -8744686.12346  22758012.676    22758022.4614
 01  7 19 19  8  0.0000000  0 10 03 15 14 23 09 21 18 31 17 29
  21269008.343   -21221953.896 9 -16004757.88947  21269007.762    21269015.4774
  21223735.240     -754069.559 9   -444014.07947  21223734.255    21223742.2734
  21886845.984   -19949585.303 8 -15519177.76047  21886845.252    21886853.1234
  22774839.207     8333090.257 8   6625158.49546  22774838.337    22774846.7144
  23819357.583    -6243946.982 8  -4855155.60145  23819357.013    23819366.4824
  20820907.484   -23108070.709 9 -17987854.66148  20820906.736    20820914.3354
  21233154.068    -4673559.805 9  -3625710.69047  21233153.394    21233159.5224
  22359071.978   -12356293.857 8  -9603141.68346  22359071.107    22359079.4104
  22419425.380     8615679.925 8   6781163.95146  22419424.595    22419433.6954
  22739031.163   -11338265.490 8  -8822413.80646  22739030.687    22739040.4704
 01  7 19 19  8 30.0000000  0 10 03 15 14 23 09 21 18 31 17 29
  21272673.328   -21202694.343 9 -15989750.47547  21272672.745    21272680.4804
  21235380.303     -692874.525 9   -396329.68747  21235379.353    21235387.3404
  21869747.910   -20039436.038 8 -15589191.26247  21869747.179    21869755.0434
  22788281.020     8403727.479 8   6680200.42546  22788280.172    22788288.5804
  23812430.834    -6280347.562 8  -4883519.67145  23812430.218    23812439.5694
  20818429.889   -23121090.838 9 -17998000.22748  20818429.131    20818436.6974
  21244177.917    -4615629.268 9  -3580570.05547  21244177.232    21244183.3864
  22350059.189   -12403656.554 8  -9640047.65946  22350058.297    22350066.5074
  22434538.445     8695099.558 8   6843049.27246  22434537.663    22434546.8764
  22720093.823   -11437781.158 8  -8899958.36746  22720093.417    22720103.1834
 01  7 19 19  9  0.0000000  0 10 03 15 14 23 09 21 18 31 17 29
  21276448.253   -21182857.002 9 -15974292.83747  21276447.682    21276455.4354
  21247089.733     -631341.465 9   -348381.89847  21247088.736    21247096.7044
  21852719.103   -20128922.701 9 -15658921.07247  21852718.388    21852726.2284
  22801739.417     8474450.708 8   6735309.37746  22801738.445    22801746.7524
  23805598.296    -6316251.918 8  -4911497.05545  23805597.728    23805607.1864
  20816001.628   -23133851.558 9 -18007943.65648  20816000.842    20816008.4134
  21255245.808    -4557467.692 9  -3535249.39047  21255245.050    21255251.1844
  22341149.618   -12450476.457 8  -9676530.68346  22341148.735    22341156.9874
  22449703.492     8774792.308 8   6905147.39946  22449702.714    22449712.0444
  22701201.786   -11537058.755 8  -8977317.42646  22701201.376    22701211.1824
 01  7 19 19  9 30.0000000  0 10 03 15 14 23 09 21 18 31 17 29
  21280332.990   -21162442.490 9 -15958385.45447  21280332.422    21280340.2234
  21258863.469     -569470.386 9   -300170.72047  21258862.456    21258870.4504
  21835760.244   -20218042.242 9 -15728364.81147  21835759.468    21835767.2364
  22815214.049     8545259.554 8   6790485.04946  22815213.026    22815221.2534
  23798860.799    -6351657.479 8  -4939085.76645  23798860.232    23798869.5674
  20813622.641   -23146353.102 9 -18017685.12448  20813621.899    20813629.4804
  21266357.378    -4499075.996 9  -3489749.40847  21266356.648    21266362.7754
  22332343.651   -12496751.695 8  -9712589.29746  22332342.791    22332351.0084
  22464920.579     8854757.880 8   6967458.10946  22464919.749    22464929.0724
  22682355.647   -11636095.815 8  -9054489.04546  22682355.192    22682364.9654
 01  7 19 19 10  0.0000000  0 10 03 15 14 23 09 21 18 31 17 29
  21284327.286   -21141452.365 9 -15942029.54747  21284326.717    21284334.5214
  21270701.204     -507262.442 9   -251697.04747  21270700.251    21270708.3794
  21818871.407   -20306793.396 9 -15797521.50347  21818870.690    21818878.3644
  22828704.531     8616152.209 8   6845726.01046  22828703.507    22828711.8044
  23792218.535    -6386563.112 8  -4966284.92345  23792217.900    23792227.1854
  20811292.884   -23158596.234 9 -18027225.23348  20811292.112    20811299.6914
  21277512.313    -4440456.299 9  -3444071.75947  21277511.605    21277517.7984
  22323641.570   -12542481.552 8  -9748222.92446  22323640.685    22323648.9234
  22480189.455     8934994.988 8   7029980.41446  22480188.558    22480197.7304
  22663555.384   -11734890.986 8  -9131472.18546  22663554.938    22663564.7534
 01  7 19 19 10 30.0000000  0 10 03 15 14 23 09 21 18 31 17 29
  21288431.038   -21119887.105 9 -15925225.47947  21288430.446    21288438.2824
  21282603.089     -444717.877 9   -202961.07347  21282602.121    21282610.3474
  21802053.263   -20395173.481 9 -15866389.04547  21802052.464    21802060.1484
  22842210.868     8687128.203 8   6901031.91046  22842209.837    22842218.1304
  23785671.716    -6420966.281 8  -4993092.56145  23785671.102    23785680.5054
  20809012.227   -23170581.076 9 -18036564.08048  20809011.481    20809019.0554
  21288710.485    -4381609.664 9  -3398217.27747  21288709.783    21288716.0234
  22315043.539   -12587664.305 8  -9783430.24246  22315042.687    22315050.8834
  22495509.746     9015503.314 8   7092714.04846  22495508.873    22495518.1114
  22644801.891   -11833441.628 8  -9208264.77646  22644801.350    22644811.1054
 01  7 19 19 11  0.0000000  0 10 03 15 14 23 09 21 18 31 17 29
  21292644.390   -21097745.979 9 -15907972.68547  21292643.799    21292651.6354
  21294569.221     -381835.621 9   -153961.96347  21294568.237    21294576.5104
  21785306.278   -20483178.909 9 -15934964.64647  21785305.537    21785313.2494
  22855733.190     8758187.884 8   6956403.05246  22855732.166    22855740.3534
  23779221.170    -6454863.578 8  -5019505.99345  23779220.608    23779229.9074
  20806780.841   -23182307.295 9 -18045701.39648  20806780.066    20806787.6454
  21299951.857    -4322535.979 9  -3352185.87147  21299951.131    21299957.3554
  22306550.241   -12632296.797 8  -9818208.79946  22306549.407    22306557.5944
  22510881.679     9096283.578 8   7155659.59546  22510880.861    22510890.1954
  22626095.355   -11931744.232 8  -9284864.10446  22626094.921    22626104.6254
 01  7 19 19 11 30.0000000  0 10 03 15 14 23 09 21 18 31 17 29
  21296966.751   -21075031.814 9 -15890273.36547  21296966.167    21296974.0274
  21306599.137     -318618.231 9   -104701.70947  21306598.149    21306606.3964
  21768630.739   -20570809.149 9 -16003247.88847  21768629.991    21768637.7034
  22869270.841     8829328.554 8   7011837.27646  22869269.814    22869277.9634
  23772866.960    -6488254.634 8  -5045524.94345  23772866.407    23772875.7584
  20804598.256   -23193776.816 9 -18054638.69248  20804597.507    20804605.0914
  21311235.875    -4263238.603 9  -3305980.15347  21311235.149    21311241.3324
  22298161.604   -12676379.214 8  -9852558.70846  22298160.784    22298168.9854
  22526304.910     9177333.103 8   7218814.94846  22526304.094    22526313.5734
  22607436.208   -12029798.559 8  -9361269.96146  22607435.768    22607445.4164
 01  7 19 19 12  0.0000000  0 10 03 15 14 23 09 21 18 31 17 29
  21301398.239   -21051744.444 9 -15872127.39647  21301397.619    21301405.4864
  21318692.952     -255064.785 9    -55179.59647  21318691.977    21318700.2094
  21752027.336   -20658060.679 9 -16071236.04147  21752026.595    21752034.2474
  22882823.840     8900550.654 8   7067334.96646  22882822.921    22882831.1294
  23766609.854    -6521136.331 8  -5071147.00145  23766609.298    23766618.5274
  20802464.689   -23204988.879 9 -18063375.36548  20802463.934    20802471.4964
  21322562.340    -4203717.534 9  -3259600.13847  21322561.608    21322567.8504
  22289878.146   -12719908.973 8  -9886477.97146  22289877.309    22289885.5104
  22541779.598     9258652.785 8   7282180.81246  22541778.791    22541788.3664
  22588824.935   -12127600.860 8  -9437479.45346  22588824.503    22588834.1114
 01  7 19 19 12 30.0000000  0 10 03 15 14 23 09 21 18 31 17 29
  21305938.469   -21027885.540 9 -15853536.07547  21305937.846    21305945.7374
  21330850.566     -191176.433 9     -5396.52647  21330849.590    21330857.7704
  21735496.238   -20744932.038 9 -16138927.95647  21735495.480    21735503.1014
  22896392.161     8971852.438 8   7122894.73046  22896391.228    22896399.5344
  23760449.824    -6553507.532 8  -5096371.28145  23760449.293    23760458.4454
  20800379.870   -23215944.855 9 -18071912.49548  20800379.077    20800386.6644
  21333930.965    -4143974.973 9  -3213047.53247  21333930.287    21333936.5404
  22281699.985   -12762885.345 8  -9919966.03746  22281699.150    22281707.3714
  22557305.454     9340240.954 8   7345755.88146  22557304.642    22557314.1854
  22570261.973   -12225149.886 8  -9513491.58046  22570261.453    22570271.0344
